[[{"header":{"parameterUnit":"m.s-1","parameterCategory":1,"la1":30.6,"la2":29.2853,"lo1":-89.7004,"lo2":-87.6739,"dy":0.0162,"dx":0.0183,"nx":112,"ny":82,"refTime":"2024-04-28T18:00:00:Z","depth":0,"parameterNumber":2,"parameterNumberName":"U-component_of_WINDS"},"data":[0.0,0.0,0.0,0.0,0.0,0.0,0.0,0.0,0.0,0.0,0.0,0.0,0.0,0.0,0.0,0.0,0.0,0.0,0.0,0.0,0.0,0.0,0.0,0.0,0.0,0.0,0.0,0.0,0.0,0.0,0.0,0.0,0.0,0.0,0.0,0.0,0.0,0.0,0.0,0.0,0.0,0.0,0.0,0.0,0.0,0.0,0.0,0.0,0.0,0.0,0.0,0.0,0.0,0.0,0.0,0.0,0.0,0.0,0.0,0.0,0.0,0.0,0.0,0.0,0.0,0.0,0.0,0.0,0.0,0.0,0.0,0.0,0.0,0.0,0.0,0.0,0.0,0.0,0.0,0.0,0.0,0.0,0.0,0.0,0.0,0.0,0.0,0.0,0.0,0.0,-4.8867,-4.877,-4.8276,-4.7932,-4.7914,-4.7001,-4.6542,-4.6775,0.0,0.0,0.0,0.0,0.0,0.0,0.0,0.0,0.0,0.0,0.0,0.0,0.0,0.0,0.0,0.0,0.0,0.0,0.0,0.0,0.0,0.0,0.0,0.0,0.0,0.0,0.0,0.0,0.0,0.0,0.0,0.0,0.0,0.0,0.0,0.0,0.0,0.0,0.0,0.0,0.0,0.0,0.0,0.0,0.0,0.0,0.0,0.0,0.0,0.0,0.0,0.0,0.0,0.0,0.0,0.0,0.0,0.0,0.0,0.0,0.0,0.0,0.0,0.0,0.0,0.0,0.0,0.0,0.0,0.0,0.0,0.0,0.0,0.0,0.0,0.0,0.0,0.0,0.0,0.0,0.0,0.0,0.0,0.0,0.0,0.0,0.0,0.0,0.0,0.0,0.0,0.0,0.0,0.0,0.0,0.0,0.0,0.0,0.0,0.0,0.0,0.0,0.0,0.0,-4.8819,-4.8643,-4.774,-4.7135,-4.7095,-4.626,-4.5768,-4.5817,0.0,0.0,0.0,0.0,0.0,0.0,0.0,0.0,0.0,0.0,0.0,0.0,0.0,0.0,0.0,0.0,0.0,0.0,0.0,0.0,0.0,0.0,0.0,0.0,0.0,0.0,0.0,0.0,0.0,0.0,0.0,0.0,0.0,0.0,0.0,0.0,0.0,0.0,0.0,0.0,0.0,0.0,0.0,0.0,0.0,0.0,0.0,0.0,0.0,0.0,0.0,0.0,0.0,0.0,0.0,0.0,0.0,0.0,0.0,0.0,0.0,0.0,0.0,0.0,0.0,0.0,0.0,0.0,0.0,0.0,0.0,0.0,0.0,0.0,0.0,0.0,0.0,0.0,0.0,0.0,0.0,0.0,0.0,0.0,0.0,0.0,0.0,0.0,0.0,0.0,0.0,0.0,0.0,0.0,0.0,0.0,0.0,0.0,0.0,0.0,0.0,0.0,0.0,-4.762,-4.7166,-4.718,-4.65,-4.6052,-4.6127,-4.5743,-4.5549,-4.5648,-4.5616,0.0,0.0,0.0,0.0,0.0,0.0,0.0,0.0,0.0,0.0,0.0,0.0,0.0,0.0,0.0,0.0,0.0,0.0,0.0,0.0,0.0,0.0,0.0,0.0,0.0,0.0,0.0,0.0,0.0,0.0,0.0,0.0,0.0,0.0,0.0,0.0,0.0,0.0,0.0,0.0,0.0,0.0,0.0,0.0,0.0,0.0,0.0,0.0,0.0,0.0,0.0,0.0,0.0,0.0,0.0,0.0,0.0,0.0,0.0,0.0,0.0,0.0,0.0,0.0,0.0,0.0,0.0,0.0,0.0,0.0,0.0,0.0,0.0,0.0,0.0,0.0,0.0,0.0,0.0,0.0,0.0,0.0,0.0,0.0,0.0,0.0,0.0,0.0,0.0,0.0,0.0,0.0,0.0,0.0,0.0,0.0,0.0,0.0,0.0,0.0,0.0,0.0,-4.651,-4.5735,-4.59,-4.5487,-4.5253,-4.5419,-4.5438,-4.5512,-4.5684,-4.5632,0.0,0.0,0.0,0.0,0.0,0.0,0.0,0.0,0.0,0.0,0.0,0.0,0.0,0.0,0.0,0.0,0.0,0.0,0.0,0.0,0.0,0.0,0.0,0.0,0.0,0.0,0.0,0.0,0.0,0.0,0.0,0.0,0.0,0.0,0.0,0.0,0.0,0.0,0.0,0.0,0.0,0.0,0.0,0.0,0.0,0.0,0.0,0.0,0.0,0.0,0.0,0.0,0.0,0.0,0.0,0.0,0.0,0.0,0.0,0.0,0.0,0.0,0.0,0.0,0.0,0.0,0.0,0.0,0.0,0.0,0.0,0.0,0.0,0.0,0.0,0.0,0.0,0.0,0.0,0.0,0.0,0.0,0.0,0.0,0.0,0.0,0.0,0.0,0.0,0.0,0.0,0.0,0.0,0.0,0.0,0.0,0.0,0.0,0.0,0.0,0.0,0.0,-4.6464,-4.5604,-4.5637,-4.5378,-4.5211,-4.5222,-4.5457,-4.5622,-4.5701,-4.564,0.0,0.0,0.0,0.0,0.0,0.0,0.0,0.0,0.0,0.0,0.0,0.0,0.0,0.0,0.0,0.0,0.0,0.0,0.0,0.0,0.0,0.0,0.0,0.0,0.0,0.0,0.0,0.0,0.0,0.0,0.0,0.0,0.0,0.0,0.0,0.0,0.0,0.0,0.0,0.0,0.0,0.0,0.0,0.0,0.0,0.0,0.0,0.0,0.0,0.0,0.0,0.0,0.0,0.0,0.0,0.0,0.0,0.0,0.0,0.0,0.0,0.0,0.0,0.0,0.0,0.0,0.0,0.0,0.0,0.0,0.0,0.0,0.0,0.0,0.0,0.0,0.0,0.0,0.0,0.0,0.0,0.0,0.0,0.0,0.0,0.0,0.0,0.0,0.0,0.0,0.0,0.0,0.0,0.0,0.0,0.0,0.0,0.0,0.0,0.0,0.0,0.0,-4.5267,-4.4673,-4.4838,-4.4755,-4.4837,-4.518,-4.5302,-4.5429,-4.5631,0.0,0.0,0.0,0.0,0.0,0.0,0.0,0.0,0.0,0.0,0.0,0.0,0.0,0.0,0.0,0.0,0.0,0.0,0.0,0.0,0.0,0.0,0.0,0.0,0.0,0.0,0.0,0.0,0.0,0.0,0.0,0.0,0.0,0.0,0.0,0.0,0.0,0.0,0.0,0.0,0.0,0.0,0.0,0.0,0.0,0.0,0.0,0.0,0.0,0.0,0.0,0.0,0.0,0.0,0.0,0.0,0.0,0.0,0.0,0.0,0.0,0.0,0.0,0.0,0.0,0.0,0.0,0.0,0.0,0.0,0.0,0.0,0.0,0.0,0.0,0.0,0.0,0.0,0.0,0.0,0.0,0.0,0.0,0.0,0.0,0.0,0.0,0.0,0.0,0.0,0.0,0.0,0.0,0.0,0.0,0.0,0.0,0.0,0.0,0.0,0.0,0.0,-4.5361,-4.4544,-4.4079,-4.4265,-4.436,-4.4546,-4.4919,-4.5011,-4.518,-4.5429,0.0,0.0,0.0,0.0,0.0,0.0,0.0,0.0,0.0,0.0,0.0,0.0,0.0,0.0,0.0,0.0,0.0,0.0,0.0,0.0,0.0,0.0,0.0,0.0,0.0,0.0,0.0,0.0,0.0,0.0,0.0,0.0,0.0,0.0,0.0,0.0,0.0,0.0,0.0,0.0,0.0,0.0,0.0,0.0,0.0,0.0,0.0,0.0,0.0,0.0,0.0,0.0,0.0,0.0,0.0,0.0,0.0,0.0,0.0,0.0,0.0,0.0,0.0,0.0,0.0,0.0,0.0,0.0,0.0,0.0,0.0,0.0,0.0,0.0,0.0,0.0,0.0,0.0,0.0,0.0,0.0,0.0,0.0,0.0,0.0,0.0,0.0,0.0,0.0,0.0,0.0,0.0,0.0,0.0,0.0,0.0,0.0,0.0,0.0,0.0,0.0,0.0,-4.5287,-4.4525,-4.4005,-4.4005,-4.4236,-4.4402,-4.4397,-4.4637,-4.4872,0.0,0.0,0.0,0.0,0.0,0.0,0.0,0.0,0.0,0.0,0.0,0.0,0.0,0.0,0.0,0.0,0.0,0.0,0.0,0.0,0.0,0.0,0.0,0.0,0.0,0.0,0.0,0.0,0.0,0.0,0.0,0.0,0.0,0.0,0.0,0.0,0.0,0.0,0.0,0.0,0.0,0.0,0.0,0.0,0.0,0.0,0.0,0.0,0.0,0.0,0.0,0.0,0.0,0.0,0.0,0.0,0.0,0.0,0.0,0.0,0.0,0.0,0.0,0.0,0.0,0.0,0.0,0.0,0.0,0.0,0.0,0.0,0.0,0.0,0.0,0.0,0.0,0.0,0.0,0.0,0.0,0.0,0.0,0.0,0.0,0.0,0.0,0.0,0.0,0.0,0.0,0.0,0.0,0.0,0.0,0.0,0.0,0.0,0.0,0.0,0.0,0.0,0.0,-4.4451,-4.4153,-4.4005,-4.4005,-4.4079,-4.4192,-4.4369,-4.4465,-4.4682,-4.5076,0.0,0.0,0.0,0.0,0.0,0.0,0.0,0.0,0.0,0.0,0.0,0.0,0.0,0.0,0.0,0.0,0.0,0.0,0.0,0.0,0.0,0.0,0.0,0.0,0.0,0.0,0.0,0.0,0.0,0.0,0.0,0.0,0.0,0.0,0.0,0.0,0.0,0.0,0.0,0.0,0.0,0.0,0.0,0.0,0.0,0.0,0.0,0.0,0.0,0.0,0.0,0.0,0.0,0.0,0.0,0.0,0.0,0.0,0.0,0.0,0.0,0.0,0.0,0.0,0.0,0.0,0.0,0.0,0.0,0.0,0.0,0.0,0.0,0.0,0.0,0.0,0.0,0.0,0.0,0.0,0.0,0.0,0.0,0.0,0.0,0.0,0.0,0.0,0.0,0.0,0.0,0.0,0.0,0.0,0.0,0.0,0.0,0.0,0.0,0.0,0.0,0.0,-4.4101,-4.4005,-4.4005,-4.4005,-4.4055,-4.4162,-4.4317,-4.4341,-4.4508,-4.487,0.0,0.0,0.0,0.0,0.0,0.0,0.0,0.0,0.0,0.0,0.0,0.0,0.0,0.0,0.0,0.0,0.0,0.0,0.0,0.0,0.0,0.0,0.0,0.0,0.0,0.0,0.0,0.0,0.0,0.0,0.0,0.0,0.0,0.0,0.0,0.0,0.0,0.0,0.0,0.0,0.0,0.0,0.0,0.0,0.0,0.0,0.0,0.0,0.0,0.0,0.0,0.0,0.0,0.0,0.0,0.0,0.0,0.0,0.0,0.0,0.0,0.0,0.0,0.0,0.0,0.0,0.0,0.0,0.0,0.0,0.0,0.0,0.0,0.0,0.0,0.0,0.0,0.0,0.0,0.0,0.0,0.0,0.0,0.0,0.0,0.0,0.0,0.0,0.0,0.0,0.0,0.0,0.0,0.0,0.0,0.0,0.0,0.0,0.0,0.0,0.0,0.0,-4.4013,-4.3945,-4.3961,-4.4051,-4.4141,-4.4199,-4.4199,-4.4274,-4.4387,-4.4578,0.0,0.0,0.0,0.0,0.0,0.0,0.0,0.0,0.0,0.0,0.0,0.0,0.0,0.0,0.0,0.0,0.0,0.0,0.0,0.0,0.0,0.0,0.0,0.0,0.0,0.0,0.0,0.0,0.0,0.0,0.0,0.0,0.0,0.0,0.0,0.0,0.0,0.0,0.0,0.0,0.0,0.0,0.0,0.0,0.0,0.0,0.0,0.0,0.0,0.0,0.0,0.0,0.0,0.0,0.0,0.0,0.0,0.0,0.0,0.0,-4.525,0.0,0.0,0.0,0.0,0.0,0.0,0.0,0.0,0.0,0.0,0.0,0.0,0.0,0.0,0.0,0.0,0.0,0.0,0.0,0.0,0.0,0.0,0.0,0.0,0.0,0.0,0.0,0.0,0.0,0.0,0.0,0.0,0.0,0.0,0.0,0.0,0.0,0.0,0.0,0.0,0.0,-4.3756,-4.356,-4.3678,-4.4478,-4.4332,-4.4229,-4.427,-4.4285,-4.4387,-4.4578,-4.4748,0.0,0.0,0.0,0.0,0.0,0.0,0.0,0.0,0.0,0.0,0.0,0.0,0.0,0.0,0.0,0.0,0.0,0.0,0.0,0.0,0.0,0.0,0.0,0.0,0.0,0.0,0.0,0.0,0.0,0.0,0.0,0.0,0.0,0.0,0.0,0.0,0.0,0.0,0.0,0.0,0.0,0.0,0.0,0.0,0.0,0.0,0.0,0.0,0.0,0.0,0.0,0.0,0.0,0.0,0.0,0.0,0.0,0.0,0.0,0.0,-4.5467,0.0,0.0,0.0,0.0,0.0,0.0,0.0,0.0,0.0,0.0,0.0,0.0,0.0,0.0,0.0,0.0,0.0,0.0,0.0,0.0,0.0,0.0,0.0,0.0,0.0,0.0,0.0,0.0,0.0,0.0,0.0,0.0,0.0,0.0,0.0,0.0,0.0,0.0,0.0,0.0,-4.3134,-4.2989,-4.3068,-4.3597,-4.3697,-4.3726,-4.3775,-4.4002,-4.4207,-4.4306,-4.4651,0.0,0.0,0.0,0.0,0.0,0.0,0.0,0.0,0.0,0.0,0.0,0.0,0.0,0.0,0.0,0.0,0.0,0.0,0.0,0.0,0.0,0.0,0.0,0.0,0.0,0.0,0.0,0.0,0.0,0.0,0.0,0.0,0.0,0.0,0.0,0.0,0.0,0.0,0.0,0.0,0.0,0.0,0.0,0.0,0.0,0.0,0.0,0.0,0.0,0.0,0.0,0.0,0.0,-4.2629,-4.2629,-4.2691,-4.2629,-4.2706,-4.2876,-4.3777,-4.4179,-4.4348,-4.5731,0.0,0.0,0.0,0.0,0.0,0.0,0.0,0.0,0.0,0.0,0.0,0.0,0.0,0.0,0.0,0.0,0.0,0.0,0.0,0.0,0.0,0.0,0.0,0.0,-4.2294,-4.2601,-4.3683,0.0,0.0,0.0,0.0,0.0,0.0,0.0,0.0,0.0,0.0,0.0,-4.245,-4.2414,-4.2458,-4.2604,-4.2939,-4.3122,-4.314,-4.3609,-4.3892,-4.3892,-4.4541,-4.4895,0.0,0.0,0.0,0.0,0.0,0.0,0.0,0.0,0.0,0.0,0.0,0.0,0.0,0.0,0.0,0.0,0.0,0.0,0.0,0.0,0.0,0.0,0.0,0.0,0.0,0.0,0.0,0.0,0.0,0.0,0.0,0.0,-4.0658,-3.999,0.0,0.0,0.0,0.0,0.0,0.0,0.0,0.0,0.0,0.0,0.0,0.0,0.0,-4.161,-4.2169,-4.1757,-4.1611,-4.1673,-4.1109,-4.1057,-4.1524,-4.1241,-4.1207,-4.1407,-4.1832,0.0,-4.3684,-4.4406,0.0,0.0,0.0,0.0,0.0,0.0,0.0,0.0,0.0,0.0,0.0,0.0,0.0,0.0,0.0,0.0,0.0,0.0,0.0,0.0,0.0,0.0,-4.176,-4.1576,-4.1559,-4.1405,0.0,-4.1772,-4.237,-4.1648,-4.1866,0.0,0.0,0.0,0.0,0.0,0.0,0.0,-4.2137,-4.2088,-4.2281,-4.3111,-4.2997,-4.2885,-4.2923,-4.3265,-4.3474,-4.3474,-4.3904,-4.4125,-4.4064,-4.4047,0.0,0.0,0.0,0.0,0.0,0.0,0.0,0.0,0.0,0.0,0.0,0.0,0.0,0.0,0.0,0.0,0.0,0.0,0.0,0.0,0.0,0.0,0.0,0.0,0.0,0.0,0.0,0.0,0.0,-4.0761,-4.0002,-3.9154,-3.9355,-3.9416,0.0,0.0,0.0,0.0,0.0,0.0,0.0,0.0,0.0,-3.8424,-3.8777,-3.9405,-4.0402,-4.0315,-4.0482,-4.0922,-4.0646,-4.0627,-4.0867,-4.0696,-4.0696,-4.0765,-4.0919,-4.1074,-4.1374,-4.2809,-4.3448,-4.3558,0.0,0.0,0.0,0.0,-4.3471,-4.3273,-4.3446,-4.3443,-4.3413,-4.3489,0.0,0.0,0.0,0.0,0.0,0.0,0.0,0.0,0.0,0.0,-4.07,-3.993,-3.9761,-3.9567,-3.8872,-3.9432,-4.0044,0.0,-4.051,-4.076,-4.0436,0.0,0.0,0.0,0.0,-4.108,-4.1527,-4.1504,-4.1625,-4.2062,-4.221,-4.2302,-4.2344,-4.2224,-4.2159,-4.2159,-4.1868,-4.1685,-4.165,-4.165,-4.1615,0.0,0.0,0.0,0.0,0.0,0.0,0.0,0.0,0.0,0.0,0.0,0.0,0.0,0.0,0.0,0.0,0.0,0.0,0.0,0.0,0.0,0.0,0.0,0.0,0.0,0.0,0.0,0.0,-3.9356,-3.8824,-3.8125,-3.8376,-3.8458,0.0,0.0,0.0,0.0,0.0,0.0,-3.6312,-3.6049,-3.6224,-3.692,-3.7101,-3.7837,-3.9241,-3.9409,-3.9807,-4.047,-4.047,-4.047,-4.0489,-4.0489,-4.0489,-4.0489,-4.0627,-4.0368,-4.0052,-4.1499,-4.2124,-4.216,-4.2673,-4.2805,-4.2762,-4.3273,-4.3234,-4.2983,-4.297,-4.2959,-4.2912,-4.2851,-4.2751,-4.2739,-4.3019,0.0,0.0,0.0,0.0,-4.1054,-4.0424,-4.0059,-3.9578,-3.8531,-3.8315,-3.8157,-3.7621,-3.7899,-3.8418,0.0,-3.9411,-3.98,-3.98,0.0,0.0,0.0,0.0,-4.1,-4.1087,-4.114,-4.1192,-4.1249,-4.1376,-4.1492,-4.1492,-4.106,-4.0776,-4.0739,-4.0241,-3.9938,-3.99,-3.99,-3.99,-3.99,0.0,0.0,0.0,0.0,0.0,0.0,0.0,0.0,0.0,0.0,0.0,0.0,0.0,0.0,0.0,0.0,0.0,0.0,0.0,0.0,0.0,0.0,0.0,0.0,0.0,0.0,0.0,0.0,0.0,-3.6754,-3.6492,0.0,0.0,0.0,0.0,-3.7107,-3.6445,-3.6194,-3.6667,-3.6082,-3.629,-3.7617,-3.7662,-3.8413,-3.9935,-3.995,-4.0071,-4.0296,-4.0296,-4.0366,-4.0489,-4.0489,-4.0489,-4.0524,-4.0901,-4.1039,-4.1008,-4.0919,-4.0308,-3.9503,-4.0673,-4.0886,-4.0658,-4.1583,-4.1766,-4.1695,-4.2391,-4.2539,-4.2413,-4.2206,-4.1882,-4.1466,-4.0875,-4.1054,0.0,0.0,-4.0344,-3.9675,-3.9216,-3.8571,-3.7972,-3.7793,-3.7735,-3.7689,-3.7539,-3.7899,-3.8322,0.0,-3.8821,-3.9259,-3.9259,0.0,-4.0003,-4.0028,-4.0638,-4.1093,-4.1093,-4.1261,-4.138,-4.1403,-4.0779,-4.0381,-4.0381,-3.9946,-3.9636,-3.9499,-3.9877,-4.0032,-3.99,-3.99,-3.99,-3.99,-3.99,0.0,0.0,0.0,0.0,0.0,0.0,0.0,0.0,0.0,0.0,0.0,0.0,0.0,0.0,0.0,0.0,0.0,0.0,0.0,0.0,0.0,0.0,0.0,0.0,0.0,0.0,0.0,0.0,-3.6971,-3.6833,0.0,-3.6956,-3.6848,-3.6708,-3.6628,-3.6224,-3.6111,-3.637,-3.6472,-3.6937,-3.7861,-3.8451,-3.9207,-4.0156,-4.0261,-4.0366,-4.0436,-4.0436,-4.0455,-4.0489,-4.0489,-4.0489,-4.0489,-4.0662,-4.073,-4.0696,-4.0627,-4.0673,-4.0764,-4.0984,-4.0969,-4.0926,-4.147,-4.1501,-4.1306,-4.1788,-4.1693,-4.1294,-4.0926,-4.0714,-4.0564,-4.0323,-4.0054,-3.9813,-3.9653,-3.9036,-3.8373,-3.823,-3.798,-3.7759,-3.77,-3.77,-3.7671,-3.7642,-3.7714,-3.7786,-3.7786,-3.8226,-3.8629,-3.8629,-3.8859,-3.9183,-3.9568,-3.9919,-4.0286,-4.0717,-4.0836,-4.1047,-4.1493,-4.1292,-4.0942,-4.0473,-3.9726,-3.9059,-3.8529,-3.8058,-3.776,-3.772,-3.7501,-3.7377,-3.7377,-3.723,-3.7387,0.0,0.0,0.0,0.0,0.0,0.0,0.0,0.0,0.0,0.0,0.0,0.0,0.0,0.0,0.0,0.0,0.0,0.0,0.0,0.0,0.0,0.0,0.0,0.0,0.0,-3.7051,-3.6814,-3.6787,-3.6662,-3.665,-3.6736,-3.6676,-3.6564,-3.6487,-3.6294,-3.6325,-3.6631,-3.6941,-3.7513,-3.8311,-3.8888,-3.9589,-4.0366,-4.047,-4.0489,-4.0489,-4.0489,-4.0489,-4.0489,-4.0489,-4.0489,-4.0489,-4.0489,-4.0489,-4.0489,-4.0489,-4.0799,-4.1207,-4.0888,-4.0761,-4.0778,-4.0825,-4.0698,-4.0534,-4.0698,-4.0416,-3.9944,-3.947,-3.9218,-3.9108,-3.8933,-3.8554,-3.8174,-3.8204,-3.7826,-3.7449,-3.7508,-3.7567,-3.7567,-3.7462,-3.7433,-3.7419,-3.73,-3.7255,-3.7225,-3.7165,-3.7623,-3.8042,-3.8042,-3.8294,-3.864,-3.9022,-3.9411,-3.9842,-4.0269,-4.0441,-4.0707,-4.1146,-4.1051,-4.0809,-4.039,-3.9534,-3.8723,-3.7976,-3.7349,-3.6846,-3.6502,-3.6195,-3.6023,-3.6023,-3.5756,-3.5926,-3.6598,0.0,0.0,0.0,0.0,0.0,0.0,0.0,0.0,0.0,0.0,0.0,0.0,0.0,0.0,0.0,0.0,0.0,0.0,0.0,0.0,0.0,0.0,0.0,-3.7214,-3.6389,-3.5815,-3.6064,-3.5875,-3.5788,-3.6071,-3.5864,-3.5995,-3.6713,-3.6648,-3.6847,-3.7405,-3.7416,-3.7871,-3.8899,-3.8963,-3.944,-4.0409,-4.0443,-4.0428,-4.0428,-4.0428,-4.0428,-4.0428,-4.0428,-4.0428,-4.0428,-4.0428,-4.0428,-4.0428,-4.0428,-4.0428,-4.0416,-4.0186,-4.0103,-4.001,-3.9485,-3.9282,-3.9235,-3.9092,-3.8787,-3.8388,-3.79,-3.7478,-3.7084,-3.666,-3.6492,-3.6523,-3.6662,-3.6784,-3.6936,-3.7118,-3.7268,-3.7282,-3.6966,-3.689,-3.683,-3.6569,-3.6631,-3.6662,-3.6554,-3.7044,-3.748,-3.748,-3.8014,-3.8446,-3.8446,-3.9172,0.0,-3.974,-4.0078,-4.0351,-4.0375,-3.9993,-3.9796,-4.0051,-3.9355,-3.859,-3.7794,-3.7882,-3.753,-3.652,-3.622,-3.6075,-3.6054,-3.5739,-3.5594,-3.5611,0.0,0.0,0.0,0.0,0.0,0.0,0.0,0.0,0.0,0.0,0.0,0.0,0.0,0.0,0.0,0.0,0.0,0.0,0.0,0.0,0.0,-3.5722,-3.5816,-3.6127,-3.5908,-3.5748,-3.5788,-3.5746,-3.5734,-3.5788,-3.5746,-3.5811,-3.6127,-3.6123,-3.6187,-3.6461,-3.678,-3.7121,-3.7405,-3.7979,-3.8422,-3.8657,-3.894,-3.9062,-3.9062,-3.9062,-3.9062,-3.9062,-3.9062,-3.9062,-3.9062,-3.9062,-3.9062,-3.9062,-3.9062,-3.9062,-3.9139,-4.0041,-4.0038,-3.949,-3.9357,-3.889,-3.8284,-3.7875,-3.7642,-3.747,-3.7016,-3.68,-3.666,-3.6553,-3.6492,-3.6523,-3.6538,-3.6569,-3.6616,-3.6693,-3.6876,-3.7027,-3.692,-3.7012,-3.7088,-3.7013,-3.6968,-3.6908,-3.6877,-3.6892,-3.6877,-3.68,-3.7103,-3.7324,-3.7324,-3.7751,0.0,-3.8591,-3.8739,-3.9153,-4.0068,-4.0024,-3.9749,-3.9337,-3.9225,-3.8418,-3.6538,-3.6882,-3.6816,-3.6092,-3.5766,-3.5476,-3.5241,-3.4911,-3.5033,0.0,0.0,0.0,0.0,0.0,0.0,0.0,0.0,0.0,0.0,0.0,0.0,0.0,0.0,0.0,0.0,0.0,0.0,0.0,0.0,0.0,0.0,-3.571,-3.571,-3.571,-3.571,-3.571,-3.571,-3.571,-3.571,-3.571,-3.571,-3.5721,-3.5825,-3.6069,-3.6262,-3.6347,-3.659,-3.681,-3.687,-3.7346,-3.7607,-3.7664,-3.8107,-3.8322,-3.8322,-3.8322,-3.8322,-3.8342,-3.8395,-3.8391,-3.8342,-3.8395,-3.8391,-3.8322,-3.8322,-3.8379,0.0,0.0,0.0,0.0,0.0,-3.7752,-3.6899,-3.6589,-3.6485,-3.6425,-3.6174,-3.6084,-3.6084,-3.6084,-3.6084,-3.6084,-3.6084,-3.61,-3.6148,-3.6148,-3.6352,-3.6523,-3.6523,-3.66,-3.6708,-3.6708,-3.6693,-3.6647,-3.6585,-3.6538,0.0,-3.632,-3.6585,-3.6799,-3.6799,-3.7042,-3.731,-3.7616,-3.779,-3.8157,-3.8896,-3.909,-3.903,-3.8694,-3.8891,0.0,0.0,0.0,-3.6769,-3.5666,-3.569,0.0,0.0,0.0,-3.5163,-3.5574,0.0,0.0,0.0,-3.6468,-3.6848,0.0,0.0,0.0,0.0,0.0,0.0,0.0,0.0,0.0,0.0,0.0,0.0,0.0,0.0,0.0,0.0,-3.571,-3.571,-3.571,-3.571,-3.571,-3.571,-3.571,-3.571,-3.571,-3.571,-3.571,-3.571,-3.6175,-3.6489,-3.6489,0.0,0.0,0.0,0.0,-3.6734,-3.6895,-3.7461,-3.7773,-3.7846,-3.7808,-3.7808,-3.7831,-3.7933,-3.7942,-3.7891,-3.799,-3.7956,-3.7883,-3.7883,-3.7974,-3.8152,-3.8306,-3.8262,-3.8071,-3.7056,-3.6079,-3.5261,-3.5261,0.0,0.0,-3.5261,-3.5261,-3.5261,-3.5261,-3.5261,-3.5261,-3.5261,-3.5394,-3.5479,-3.5479,-3.5688,-3.5863,-3.5799,-3.591,-3.6005,-3.5941,-3.6085,-3.6211,-3.6068,-3.6116,-3.6148,-3.6037,-3.6383,-3.6646,-3.6646,-3.6738,-3.6845,-3.6845,-3.7071,-3.731,-3.7383,0.0,0.0,-3.8052,-3.8381,-3.8187,-3.7302,-3.7488,-3.6934,-3.5347,-3.5873,-3.5754,-3.4798,-3.5307,-3.5546,-3.541,-3.5354,-3.5417,-3.5643,-3.6486,-3.654,0.0,0.0,0.0,0.0,0.0,0.0,0.0,0.0,0.0,0.0,0.0,0.0,0.0,0.0,0.0,-3.571,-3.571,-3.571,-3.571,-3.571,-3.571,-3.571,-3.571,-3.571,-3.571,-3.571,-3.571,-3.571,-3.5355,-3.5162,-3.5162,-3.4551,-3.4224,-3.4263,-3.4381,-3.4671,-3.5176,-3.5389,-3.5769,-3.623,0.0,0.0,-3.623,-3.61,-3.6187,-3.6483,-3.6353,-3.6382,-3.6498,-3.6498,-3.6729,-3.7114,-3.7317,-3.6911,-3.6141,-3.5222,-3.438,-3.3644,-3.3644,-3.3644,-3.3644,-3.3644,-3.3644,-3.3644,-3.3644,-3.3748,0.0,-3.3899,-3.4022,-3.4158,-3.4158,-3.4643,-3.5023,-3.4576,-3.5335,-3.6038,-3.5608,-3.6006,-3.6414,-3.6398,-3.6289,-3.6196,-3.6179,-3.6242,-3.6305,-3.6305,-3.6461,-3.6569,-3.6569,-3.6476,-3.6662,-3.7263,-3.7189,-3.716,-3.7291,-3.7528,-3.7069,-3.5731,-3.5915,-3.5948,-3.5776,-3.6044,-3.59,-3.5276,-3.4955,-3.5056,-3.5557,-3.5064,-3.5124,-3.5667,-3.5645,-3.5676,0.0,0.0,0.0,0.0,0.0,0.0,0.0,0.0,0.0,0.0,0.0,-3.6018,-3.4786,0.0,-3.5844,-3.5141,-3.5426,-3.571,-3.571,-3.571,-3.571,-3.571,-3.571,-3.571,-3.571,-3.5412,-3.5236,-3.5236,-3.468,-3.4355,-3.4355,-3.3709,-3.336,-3.336,-3.3397,-3.3669,-3.4134,-3.4612,-3.5091,-3.5589,-3.5589,-3.5628,-3.5742,-3.5723,-3.5752,-3.5881,-3.5859,-3.5789,-3.5767,-3.5822,-3.5949,-3.6147,-3.6368,-3.6121,-3.5502,-3.508,-3.4193,-3.3178,-3.3178,-3.3178,-3.3178,-3.3178,-3.3178,-3.3178,-3.3178,-3.3262,-3.3367,-3.3471,-3.3575,-3.3679,-3.3762,-3.4056,-3.4308,-3.4138,-3.4643,-3.5106,-3.4894,-3.5124,-3.5497,-3.5879,-3.5864,-3.58,-3.58,-3.58,-3.5864,-3.6085,-3.6085,-3.6132,-3.6226,-3.6163,-3.6227,-3.6615,-3.66,-3.6538,-3.6554,-3.6631,-3.6415,-3.5752,-3.584,-3.5763,-3.5464,-3.592,-3.5893,-3.5217,-3.526,-3.5416,-3.566,-3.5348,-3.5339,-3.5589,-3.5466,-3.5465,0.0,0.0,0.0,0.0,0.0,0.0,0.0,0.0,-3.3677,-3.2696,-3.4211,-3.517,-3.3259,-3.4354,-3.5251,-3.4275,-3.4716,-3.521,-3.5265,-3.5292,-3.5292,-3.5344,-3.5574,-3.5669,-3.556,-3.5073,-3.4748,-3.4626,-3.407,-3.3731,-3.3731,-3.3213,-3.2979,-3.3101,-3.3101,-3.3328,-3.3774,-3.4362,-3.4901,-3.5277,-3.5386,-3.5467,-3.5548,-3.5576,-3.5591,-3.5602,-3.5694,-3.5605,-3.5359,-3.5444,-3.5421,-3.5305,-3.5588,-3.5471,-3.5088,-3.5036,-3.4147,-3.2921,-3.281,-3.2769,-3.2769,-3.2769,-3.2769,-3.2769,-3.2769,-3.2804,-3.2875,-3.3017,-3.3122,-3.3241,-3.3381,-3.3555,-3.3659,-3.3707,-3.3914,-3.4104,-3.4075,-3.4211,-3.448,-3.5059,-3.519,-3.519,-3.519,-3.5157,-3.527,-3.5623,-3.5512,-3.5544,-3.5831,-3.5863,-3.5894,-3.6037,-3.6116,-3.6116,-3.6005,-3.6005,-3.6068,-3.6148,-3.6179,-3.5904,-3.5246,-3.5889,-3.5935,-3.5246,-3.5763,-3.5926,-3.5688,-3.5688,-3.5621,-3.5504,-3.5504,-3.5504,-2.8379,-2.8422,-2.8453,-2.8377,-2.8171,-2.8063,0.0,0.0,-3.0373,-3.0643,-3.1581,-3.2384,-3.2514,-3.2615,-3.2793,-3.3076,-3.325,-3.3411,-3.3706,-3.3763,-3.382,-3.4088,-3.5032,-3.5506,-3.4938,-3.4829,-3.4572,-3.4043,-3.3498,-3.3196,-3.3196,-3.2626,-3.2558,-3.3074,-3.3101,-3.3531,-3.4378,-3.43,-3.4472,-3.488,-3.466,-3.466,-3.488,-3.4664,-3.4787,-3.5154,-3.5169,-3.5182,-3.5113,-3.5169,-3.506,-3.4867,-3.4924,-3.4579,-3.4033,-3.3709,-3.2901,-3.1882,-3.1406,-3.1272,-3.1272,-3.1272,-3.1272,-3.1272,-3.1272,-3.1371,-3.1519,-3.1556,-3.179,-3.2096,-3.2096,-3.261,-3.2988,-3.2516,-3.3269,-3.3968,-3.3422,-3.3837,-3.4298,-3.4413,-3.4413,-3.4413,-3.4413,-3.4327,-3.4308,-3.448,-3.448,-3.4681,-3.5367,-3.535,-3.5527,-3.6101,-3.6085,-3.6005,-3.6005,-3.6005,-3.6005,-3.6037,-3.6148,-3.6165,-3.6072,-3.6305,-3.6352,-3.6057,-3.6134,-3.6006,-3.5688,-3.5688,-3.5621,-3.5504,-3.5504,-3.5504,-2.7171,-2.7166,-2.7113,0.0,-2.6865,-2.6976,-2.7204,-2.851,-2.9575,-2.9137,-3.0859,-3.2139,-3.1101,-3.2077,-3.2929,0.0,-3.2852,-3.3246,-3.3452,-3.3496,-3.3621,-3.386,-3.4355,-3.4545,-3.4301,-3.4,-3.3702,-3.3444,-3.3237,-3.3101,-3.3101,-3.3159,-3.3322,-3.3566,-3.358,-3.3871,-3.4472,-3.4406,-3.458,-3.4962,-3.4867,-3.4867,-3.4962,-3.4867,-3.499,-3.5277,-3.5044,-3.5003,-3.5086,-3.4962,-3.488,-3.4797,-3.4921,-3.4734,-3.4335,-3.3357,-3.258,-3.1924,-3.122,-3.0986,-3.0986,-3.0986,-3.0986,-3.0986,-3.0986,-3.1061,-3.1161,-3.1272,-3.1508,-3.1743,-3.1853,-3.2205,-3.248,-3.2241,-3.2624,-3.2931,-3.2668,-3.2868,-3.3171,-3.3596,-3.3665,-3.3665,-3.3665,-3.3596,-3.3471,-3.3115,-3.361,-3.4177,-3.4681,-3.4909,-3.5299,-3.6022,-3.6037,-3.6005,-3.6005,-3.6005,-3.6005,-3.6005,-3.6116,-3.6164,-3.6085,-3.5847,-3.5608,-3.5447,-3.5026,-3.4728,-3.4595,-3.4595,-3.4725,-3.4971,-3.4539,-3.4491,-2.6155,-2.5935,0.0,-2.5717,-2.5892,-2.6044,-2.6173,-2.7375,-2.8334,-2.7775,-2.9641,-3.1006,-2.9828,-3.1209,-3.2346,-3.1689,-3.2084,-3.2523,-3.2686,-3.2823,-3.3023,-3.3471,-3.3605,-3.3731,-3.3894,-3.3552,-3.3308,-3.3233,-3.3308,-3.3308,-3.3233,-3.3677,-3.3989,-3.4151,-3.4151,-3.4358,-3.4754,-3.4767,-3.4861,-3.5086,-3.5044,-3.5003,-3.499,-3.4949,-3.5031,-3.5195,-3.4839,-3.4784,-3.4908,-3.4743,-3.4714,-3.4714,-3.4867,-3.4867,-3.4637,-3.3434,-3.2699,-3.2225,-3.1323,-3.1061,-3.1061,-3.1024,-3.1061,-3.1061,-3.1024,-3.0986,-3.1024,-3.1161,-3.136,-3.1559,-3.1706,-3.1877,-3.2036,-3.2109,-3.2109,-3.2146,-3.2182,-3.2218,-3.2336,-3.2832,-3.2925,-3.2925,-3.2925,-3.2925,-3.2761,-3.2277,-3.281,-3.3437,-3.3871,-3.4312,-3.4762,-3.5302,-3.5382,-3.5382,-3.5382,-3.5382,-3.535,-3.5317,-3.5432,-3.5464,-3.5317,-3.4927,-3.4681,-3.4562,-3.4041,-3.3748,-3.3713,-3.3713,-3.3885,-3.4211,-3.3679,-3.363,-2.4967,-2.4584,-2.4102,-2.4978,-2.4882,-2.4689,-2.5137,-2.5306,-2.557,-2.6365,-2.7037,-2.7799,-2.8924,-2.939,-2.9843,-3.0541,-3.0442,-3.0425,-3.075,-3.1078,-3.1618,-3.2527,-3.2923,-3.3322,0.0,-3.3894,-3.3804,-3.3586,-3.3765,-3.3804,-3.3586,-3.3792,-3.4179,-3.4748,-3.4761,-3.498,-3.5359,-3.5372,-3.5304,-3.5086,-3.488,-3.4797,-3.4797,-3.4535,-3.4577,-3.4797,-3.4535,-3.4397,-3.4439,-3.4397,-3.4397,-3.4397,-3.4439,-3.4577,-3.469,-3.3865,-3.3182,-3.2502,-3.1378,-3.1123,-3.1272,-3.1061,-3.1123,-3.1235,-3.1061,-3.0986,-3.0986,-3.1024,-3.1161,-3.131,-3.131,-3.1471,-3.1683,-3.1853,-3.189,-3.1963,-3.2146,-3.2218,-3.2218,-3.2218,-3.2241,-3.2241,-3.2241,-3.2241,-3.2205,-3.2218,-3.2073,-3.2191,-3.2875,-3.3408,-3.3739,-3.3774,-3.3774,-3.3774,-3.3774,-3.3774,-3.3719,-3.3575,-3.3685,-3.3719,-3.3575,-3.3685,-3.3739,-3.3739,-3.3705,-3.365,-3.3506,-3.3506,-3.3437,-3.3248,-3.3213,-3.3213,-2.3317,-2.311,-2.3023,-2.3661,-2.3671,-2.3767,-2.4572,-2.4999,-2.5369,-2.5968,-2.703,-2.8087,-2.8927,-2.9732,-3.029,-3.0543,-3.0532,-3.0514,-3.0663,-3.0822,-3.1294,-3.2447,-3.2725,0.0,0.0,0.0,0.0,-3.3613,-3.4157,-3.4412,-3.419,-3.4751,-3.5181,-3.5371,-3.5385,-3.548,-3.5602,-3.548,-3.5358,-3.5318,-3.5086,-3.4921,-3.4797,-3.4714,-3.4714,-3.4797,-3.4535,-3.4564,-3.4825,-3.4522,-3.4481,-3.466,-3.4481,-3.4452,-3.447,-3.3837,-3.3208,-3.2581,-3.181,-3.1338,-3.1099,-3.1024,-3.1061,-3.1099,-3.1024,-3.0986,-3.0986,-3.0986,-3.1123,-3.131,-3.131,-3.1545,-3.1817,-3.189,-3.2,-3.2109,-3.2182,-3.2218,-3.2218,-3.2218,-3.2218,-3.2218,-3.2218,-3.2218,-3.2218,-3.2218,-3.2146,-3.2277,-3.2725,-3.303,-3.3332,-3.3526,-3.3561,-3.3526,-3.3388,-3.3492,-3.3561,-3.3506,-3.3616,-3.3671,-3.365,-3.3262,-3.303,-3.303,-3.2547,-3.2273,-3.225,-3.225,-3.2381,-3.2654,-3.2187,-3.2223,-2.188,-2.1791,-2.1791,-2.2429,-2.2833,-2.328,-2.3864,-2.4476,-2.5126,-2.577,-2.6961,-2.8116,-2.895,-2.986,-3.0487,-3.0578,-3.0532,-3.045,-3.0543,-3.0624,-3.1089,-3.2117,-3.2337,-3.294,0.0,0.0,0.0,-3.4033,-3.4579,-3.4834,-3.4714,-3.5278,-3.5642,-3.571,-3.571,-3.571,-3.571,-3.5562,-3.548,-3.5399,-3.5277,-3.5113,-3.5003,-3.488,-3.4839,-3.488,-3.4535,-3.4564,-3.4825,-3.4618,-3.4618,-3.4797,-3.4618,-3.4535,-3.4483,-3.406,-3.3378,-3.2607,-3.2006,-3.1495,-3.1099,-3.1024,-3.1061,-3.1099,-3.1024,-3.0986,-3.0986,-3.0986,-3.1099,-3.1198,-3.1272,-3.1495,-3.173,-3.1853,-3.2,-3.2109,-3.2182,-3.2218,-3.2218,-3.2218,-3.2218,-3.2218,-3.2218,-3.2218,-3.2218,-3.2218,-3.2218,-3.2241,-3.2408,-3.2467,-3.2561,-3.2797,-3.2747,-3.2662,-3.2519,-3.2555,-3.2605,-3.2605,-3.2684,-3.2741,-3.2741,-3.2318,-3.2092,-3.2092,-3.1619,-3.1373,-3.1373,-3.1373,-3.1619,-3.1982,-3.1445,-3.1532,-2.0637,-2.0583,-2.0439,-2.1373,-2.2306,-2.2965,-2.3008,-2.3734,-2.4615,-2.5506,-2.6595,-2.7656,0.0,0.0,-3.0261,-3.0532,-3.0352,-3.0216,-3.017,-3.0434,-3.0905,0.0,0.0,0.0,0.0,0.0,0.0,-3.4673,0.0,-3.5086,-3.5086,-3.5277,-3.548,-3.5669,-3.571,-3.571,-3.571,-3.571,-3.5602,-3.544,-3.544,-3.5399,-3.5399,-3.5003,-3.4921,-3.5086,-3.4605,-3.4439,-3.4439,-3.4714,-3.4797,-3.4797,-3.4797,-3.4797,-3.4756,-3.4522,-3.3692,-3.2659,-3.2045,-3.1597,-3.1235,-3.1061,-3.1123,-3.1235,-3.1061,-3.0986,-3.0986,-3.0986,-3.0986,-3.1061,-3.1235,-3.131,-3.1421,-3.178,-3.189,-3.1963,-3.2146,-3.2218,-3.2218,-3.2218,-3.2218,-3.2218,-3.2218,-3.2218,-3.2218,-3.2218,-3.2218,-3.2146,-3.1927,-3.1743,-3.1646,-3.1609,-3.1434,-3.131,-3.131,-3.1123,-3.0986,-3.0986,-3.0986,-3.0986,-3.0986,-3.0986,-3.0986,-3.0986,-3.0986,-3.0986,-3.0986,-3.0986,-3.1099,-3.1272,-3.1099,-3.1211,-1.9279,-1.9279,-1.9409,-2.0393,-2.0836,-2.1195,-2.1908,-2.2227,-2.257,-2.3153,-2.4917,-2.654,-2.7129,-2.8858,0.0,-3.0306,-3.0261,0.0,-3.0011,-3.0033,0.0,-3.1223,0.0,-3.1632,-3.2636,-3.3194,0.0,0.0,-3.4468,-3.5086,-3.5086,-3.5277,-3.548,-3.5669,-3.571,-3.571,-3.571,-3.571,-3.5669,-3.5642,-3.5642,-3.5562,-3.5399,-3.5277,-3.5195,-3.5086,-3.4949,-3.4908,-3.4908,-3.5003,-3.5003,-3.5003,-3.5003,-3.4921,-3.4797,-3.4714,-3.413,-3.3273,-3.2685,-3.1861,-3.1061,-3.1024,-3.1024,-3.1061,-3.1024,-3.0986,-3.0986,-3.0986,-3.0986,-3.1024,-3.1061,-3.1286,-3.1559,-3.1633,-3.189,-3.2146,-3.2182,-3.2218,-3.2218,-3.2218,-3.2218,-3.2218,-3.2218,-3.2218,-3.2218,-3.2218,-3.2218,-3.2182,-3.2146,-3.2073,-3.2,-3.1853,-3.1633,-3.1471,-3.131,-3.1123,-3.0986,-3.0986,-3.0986,-3.0986,-3.0986,-3.0986,-3.0986,-3.0986,-3.0986,-3.0986,-3.0986,-3.0986,-3.1024,-3.1099,-3.1024,-3.1136,-1.8781,-1.8781,-1.892,-1.95,-1.9985,-2.043,-2.0979,-2.1552,-2.2129,-2.2595,-2.442,-2.6183,-2.6841,-2.8555,-2.9943,0.0,0.0,0.0,-2.9931,-2.9886,-3.0091,0.0,-3.0599,0.0,-3.1601,-3.194,-3.2321,0.0,-3.4121,-3.4825,-3.4962,-3.5154,-3.5358,-3.5562,-3.5642,-3.571,-3.571,-3.571,-3.5669,-3.5562,-3.5562,-3.548,-3.5277,-3.5277,-3.5195,-3.5086,0.0,-3.5086,-3.5127,-3.5195,-3.5236,-3.5236,-3.5236,-3.5154,-3.5044,-3.4962,-3.4481,-3.3779,-3.3054,-3.2266,-3.1478,-3.1102,-3.0986,-3.0986,-3.0986,-3.0986,-3.0986,-3.0986,-3.0986,-3.1024,-3.1099,-3.1286,-3.1522,-3.1669,-3.189,-3.2109,-3.2182,-3.2218,-3.2218,-3.2218,-3.2218,-3.2218,-3.2218,-3.2218,-3.2218,-3.2218,-3.2218,-3.2218,-3.2218,-3.2218,-3.2146,-3.2036,-3.178,-3.1596,-3.1582,-3.1323,-3.1123,-3.1123,-3.1123,-3.1099,-3.0986,-3.0986,-3.0986,-3.0986,-3.0986,-3.0986,-3.0986,-3.0986,-3.1099,-3.1261,-3.1174,-3.131,-1.8781,-1.8781,-1.8781,-1.8781,-1.9455,-2.0121,-2.0121,-2.106,-2.2041,-2.2429,-2.4217,-2.5958,-2.6873,-2.8442,-2.968,-2.9886,0.0,-2.9897,-2.984,-2.984,-2.992,-3.008,-2.992,-3.0045,-3.0633,-3.0543,-3.1057,-3.2506,-3.3602,-3.4397,-3.4756,-3.4962,-3.5154,-3.5358,-3.5521,-3.5642,-3.5642,-3.5642,-3.5521,-3.5358,-3.5358,-3.5277,-3.5086,-3.5127,-3.5113,-3.5113,-3.5154,-3.5154,-3.5154,-3.5358,-3.544,-3.5399,-3.544,-3.544,-3.5399,-3.5195,-3.4807,-3.4206,-3.3436,-3.2789,-3.2183,-3.1271,-3.0986,-3.0986,-3.0986,-3.0986,-3.0986,-3.0986,-3.0986,-3.1061,-3.1198,-3.1272,-3.1384,-3.1743,-3.1853,-3.189,-3.2073,-3.2146,-3.2146,-3.2146,-3.2182,-3.2218,-3.2218,-3.2218,-3.2218,-3.2218,-3.2218,-3.2218,-3.2218,-3.2218,-3.2218,-3.2218,-3.1853,-3.172,-3.189,-3.1545,-3.1347,-3.1347,-3.131,-3.1235,-3.1061,-3.1061,-3.1061,-3.1061,-3.1061,-3.1061,-3.1061,-3.1061,-3.1261,-3.1609,-3.1434,-3.1619,-1.8781,-1.8781,-1.8781,-1.8781,-1.8912,-1.905,-1.905,-1.9225,0.0,-1.9538,-2.2327,-2.4784,-2.4957,-2.7787,-3.008,-3.0136,-3.0011,-2.984,-2.9588,-2.9588,-2.9577,0.0,-2.9405,-2.9359,-2.9715,-3.0045,0.0,0.0,-3.2277,-3.37,-3.4756,-3.4839,-3.4921,-3.5154,-3.5195,-3.5195,-3.5195,-3.5195,-3.5195,-3.5154,-3.5154,-3.5127,-3.5127,-3.5277,-3.5358,-3.5358,-3.5521,0.0,-3.5358,-3.5562,-3.5562,-3.544,-3.5602,-3.5562,-3.5399,-3.5358,-3.5182,-3.4846,-3.422,-3.3516,-3.2684,-3.1402,-3.0986,-3.0986,-3.0986,-3.0986,-3.0986,-3.0986,-3.0986,-3.1024,-3.1061,-3.1161,-3.131,-3.1384,-3.1508,-3.1683,-3.172,-3.1817,-3.1963,-3.1963,-3.2109,-3.2218,-3.2218,-3.2218,-3.2218,-3.2218,-3.2218,-3.2218,-3.2218,-3.2218,-3.2218,-3.2218,-3.2,-3.1853,-3.189,-3.1669,-3.1559,-3.1559,-3.1397,-3.1272,-3.1235,-3.1235,-3.1235,-3.1235,-3.1397,-3.1498,-3.1498,-3.1498,-3.1535,-3.1609,-3.1559,-3.1508,-1.8781,-1.8781,-1.8781,-1.8781,-1.8781,-1.8781,-1.8781,0.0,0.0,-1.9234,-2.1637,-2.3811,-2.4023,-2.6789,-2.9106,-2.9176,-2.9474,-2.9691,-2.9691,-2.9588,-2.9531,-2.968,-2.9451,-2.9301,-2.9312,-2.9382,-2.9681,-3.017,-3.1045,-3.2234,-3.3784,-3.4452,-3.488,-3.5086,-3.5086,-3.5086,-3.5086,-3.5086,-3.5044,-3.4921,-3.4921,-3.4867,-3.4743,-3.499,-3.5086,-3.5086,-3.5399,-3.548,-3.544,-3.5642,-3.5642,-3.5562,-3.5669,-3.5642,-3.5562,-3.5562,-3.5521,-3.5318,-3.4607,-3.386,-3.3064,-3.2101,-3.1423,-3.0986,-3.0986,-3.0986,-3.0986,-3.0986,-3.0986,-3.0986,-3.0986,-3.1161,-3.131,-3.131,-3.1434,-3.1609,-3.1609,-3.1743,-3.189,-3.189,-3.2073,-3.2218,-3.2218,-3.2218,-3.2218,-3.2218,-3.2218,-3.2218,-3.2218,-3.2218,-3.2218,-3.2218,-3.2036,-3.1927,-3.2036,-3.1853,-3.1743,-3.1743,-3.1669,-3.1508,-3.131,-3.1198,-3.1123,-3.1123,-3.1248,-3.1224,-3.1112,-3.1224,-3.1224,-3.1112,-3.1112,-3.1149,-1.8781,-1.8781,-1.8781,-1.8781,-1.8781,-1.8781,-1.8781,-1.9142,0.0,-1.9592,-2.1424,-2.314,-2.3588,-2.5973,-2.7977,-2.833,-2.8852,-2.9393,-2.984,-2.9691,-2.9588,-2.9794,-2.9588,0.0,-2.9128,-2.8943,0.0,-2.9863,-3.0079,-3.1012,-3.2895,-3.4092,-3.4797,-3.4949,-3.4949,-3.4949,-3.4949,-3.4949,-3.4867,-3.4714,-3.4714,-3.4577,-3.4397,-3.4673,-3.4797,-3.4797,-3.5195,-3.5358,-3.5399,-3.5562,-3.5669,-3.571,-3.571,-3.571,-3.571,-3.571,-3.571,-3.5602,-3.4995,-3.4245,-3.3551,-3.2963,-3.198,-3.1061,-3.1099,-3.1136,-3.1136,-3.1136,-3.1136,-3.1099,-3.1061,-3.1211,-3.1347,-3.131,-3.1397,-3.1447,-3.1447,-3.1669,-3.178,-3.1582,-3.1753,-3.1936,-3.1936,-3.1936,-3.1973,-3.2169,-3.2218,-3.2218,-3.2218,-3.2218,-3.2218,-3.2218,-3.2073,-3.2036,-3.2182,-3.2073,-3.1963,-3.1963,-3.1927,-3.1743,-3.1384,-3.1174,-3.1061,-3.0986,-3.0986,-3.0911,-3.0773,-3.0911,-3.0911,-3.0773,-3.0773,-3.0849,-1.8781,-1.8781,-1.8781,-1.8781,-1.8781,-1.8781,-1.8781,0.0,-1.9004,-1.9509,-2.1397,-2.314,-2.3625,-2.5681,-2.7579,-2.8527,-2.8516,-2.876,-2.9748,-2.9691,-2.9485,-2.9531,0.0,0.0,-2.9082,-2.8943,-2.885,-2.8932,-2.9726,-3.1012,-3.2895,-3.3911,-3.4439,-3.4439,-3.4481,-3.4481,-3.4481,-3.4481,-3.4439,-3.4439,-3.4439,-3.4439,-3.4397,-3.4673,-3.4797,-3.4797,-3.5044,-3.5236,0.0,-3.544,-3.5562,-3.571,-3.571,-3.571,-3.571,-3.571,-3.571,-3.571,-3.5615,-3.5049,-3.4311,-3.3759,-3.2526,-3.131,-3.1485,-3.1535,-3.1535,-3.1535,-3.1535,-3.1485,-3.1323,-3.1434,-3.1522,-3.1347,-3.1161,-3.1061,-3.1061,-3.1373,-3.1397,-3.0595,-3.0758,-3.1007,-3.1007,-3.1007,-3.1294,-3.2096,-3.2218,-3.2218,-3.2218,-3.2218,-3.2218,-3.2218,-3.2182,-3.2182,-3.2218,-3.2182,-3.2182,-3.2182,-3.2,-3.178,-3.1559,-3.1397,-3.1198,-3.0986,-3.0986,-3.0986,-3.0986,-3.0986,-3.0986,-3.0986,-3.0986,-3.0874,-1.8781,-1.8781,-1.8781,-1.8781,-1.8781,-1.8781,-1.8781,-1.8781,-1.8958,-1.9509,-2.0912,-2.2245,-2.2717,-2.4708,-2.6628,-2.7626,-2.8085,0.0,-2.9897,-2.9874,-2.9691,-2.9531,-2.9393,-2.922,0.0,0.0,-2.8803,-2.8803,-2.9692,-3.0519,-3.1267,-3.219,-3.298,-3.356,-3.356,-3.3827,-3.4397,-3.4397,-3.4397,-3.4397,-3.4397,-3.4397,-3.4397,-3.4494,-3.4577,-3.4577,-3.4797,-3.4962,0.0,-3.5318,-3.51,-3.4703,-3.484,-3.4936,-3.4936,-3.4936,-3.5263,-3.571,-3.571,-3.517,-3.4485,-3.44,-3.2957,-3.1277,-3.1516,-3.1609,-3.1609,-3.1609,-3.1609,-3.1559,-3.1485,-3.1522,-3.1596,-3.1669,-3.111,-3.057,-3.0444,-3.0254,-2.9935,-2.9434,-2.9705,-3.0012,-3.0012,-3.0101,-3.0304,-3.062,-3.0709,-3.0709,-3.0709,-3.0709,-3.0884,-3.1381,-3.19,-3.2218,-3.2218,-3.2218,-3.2218,-3.2218,-3.2109,-3.2,-3.178,-3.136,-3.1099,-3.0986,-3.0748,-3.0558,-3.0457,-3.0558,-3.0495,-3.0279,-3.0279,-3.0152,-1.8781,-1.8781,-1.8781,-1.8781,-1.8781,-1.8781,-1.8781,-1.8781,-1.9012,-1.9691,-2.0704,-2.1709,-2.2271,-2.397,-2.5586,-2.658,-2.7426,-2.8366,-2.96,-2.9829,-2.984,-2.9634,0.0,-2.9347,-2.8943,-2.885,-2.8803,-2.8803,-2.9417,-2.9772,-2.9772,-3.0429,-3.1383,-3.2742,-3.3058,-3.3503,-3.4169,-3.435,-3.4397,-3.4397,-3.4397,-3.4397,-3.4397,-3.4397,-3.4397,-3.4397,-3.4577,-3.4714,0.0,-3.4867,-3.4551,-3.3995,-3.3995,-3.4176,-3.4397,-3.4397,-3.4812,-3.5304,-3.5304,-3.4779,-3.4029,-3.4019,-3.2867,-3.1468,-3.1486,-3.1399,-3.131,-3.1384,-3.1347,-3.131,-3.1384,-3.1123,-3.0898,-3.111,-3.0495,-2.9819,-2.9768,-2.9381,-2.8991,-2.8624,-2.8782,-2.903,-2.9108,-2.9186,-2.9316,-2.9665,-2.9704,-2.9704,-2.9704,-2.9704,-2.9922,-3.0481,-3.1071,-3.1666,-3.2146,-3.2218,-3.2218,-3.2218,-3.2096,-3.1913,-3.173,-3.0885,-3.0508,-3.0723,-3.0126,-2.9908,-3.0011,-3.0152,-3.0037,-2.9702,-2.9702,-2.956,-1.8781,-1.8781,-1.8781,-1.8781,-1.8781,-1.8781,-1.8781,-1.8781,-1.9104,-2.011,-2.0946,-2.1813,-2.2715,-2.3611,-2.4538,-2.5548,-2.658,0.0,-2.8574,-2.9405,-2.9886,0.0,-2.9634,-2.9393,-2.9128,-2.8943,-2.8803,-2.8803,-2.8803,0.0,-2.8803,-2.8803,-2.9918,-3.2211,-3.3222,-3.3721,-3.3721,-3.4152,-3.4397,-3.4397,-3.4397,-3.4397,-3.4397,-3.4397,-3.4397,-3.4397,-3.4397,-3.4535,0.0,-3.4021,-3.3839,-3.394,-3.3292,-3.3602,-3.4397,-3.4397,-3.4397,-3.4397,-3.4397,-3.3814,-3.2935,-3.2298,-3.2123,-3.1968,-3.1376,-3.0926,-3.0645,-3.0857,-3.0745,-3.0645,-3.0857,-3.0024,-2.9172,-2.938,-2.9106,-2.887,-2.9081,-2.9081,-2.8937,-2.8327,-2.8155,-2.8183,-2.8462,-2.8303,-2.849,-2.9549,-2.9704,-2.9704,-2.9704,-2.9704,-2.9704,-2.9704,-2.9704,-3.0393,-3.2059,-3.2218,-3.2218,-3.2218,-3.1827,-3.1532,-3.131,-2.9909,-2.9419,-3.0113,-2.9067,-2.8961,-2.9792,-2.9792,-2.965,-2.9419,-2.9419,-2.9314,-1.8781,-1.8781,-1.8781,-1.8781,-1.9096,-1.9371,-1.9371,-1.96,-2.0019,-2.0645,-2.1441,-2.2185,-2.2809,-2.3611,-2.4538,-2.5548,-2.5974,-2.6542,0.0,0.0,0.0,-2.8806,-2.9198,-2.9485,0.0,0.0,-2.8989,-2.8989,-2.8896,-2.8803,-2.8803,-2.9121,-2.9749,-3.082,-3.1158,-3.1708,-3.2528,-3.2674,-3.2846,-3.295,-3.295,-3.295,-3.295,-3.295,-3.295,-3.295,-3.295,-3.3006,-3.3091,-3.3061,-3.2673,-3.2164,-3.2052,-3.2227,-3.2488,-3.2488,-3.2877,-3.342,-3.342,-3.325,-3.2955,-3.2792,-3.1926,-3.0997,-3.101,-3.0647,-3.0207,-2.9934,-2.9833,-2.9833,-3.0037,-2.9807,-2.951,-2.96,-2.9094,-2.8542,-2.845,-2.7983,-2.7482,-2.7167,-2.7074,-2.7115,-2.7196,-2.7237,-2.74,-2.7753,-2.7609,-2.7516,-2.7516,-2.7516,-2.7626,-2.7872,-2.8215,-2.9201,-3.1132,-3.1046,-3.1172,-3.174,-3.0833,-3.0279,-3.0215,-2.8863,-2.8231,-2.8481,-2.7867,-2.8011,-2.8922,-2.8922,-2.9157,-2.9663,-2.947,-2.938,-1.8874,-1.8781,-1.8781,-1.8781,-1.905,-1.9279,-1.9279,-1.9509,-1.9962,-2.0774,-2.1491,-2.2173,-2.3001,-2.3712,-2.4399,-2.502,-2.545,-2.6071,0.0,0.0,0.0,-2.8991,0.0,0.0,0.0,-2.9405,-2.922,-2.9128,-2.8989,-2.8896,-2.8803,-2.9088,-2.938,-2.9646,-3.0182,-3.0822,-3.1556,-3.1753,-3.1965,-3.2183,-3.2183,-3.2227,-3.2302,-3.2302,-3.2302,-3.2302,-3.2302,-3.2302,0.0,-3.2196,-3.1813,-3.1306,-3.1149,-3.127,-3.1581,-3.1581,-3.1965,-3.2476,-3.2476,-3.2258,-3.1952,-3.1952,-3.1253,-3.0352,-3.0296,-2.9959,-2.9646,-2.966,-2.9295,-2.8951,-2.9069,-2.8924,-2.8779,-2.8779,-2.8303,-2.7874,-2.7805,-2.7156,-2.6674,-2.6809,-2.6467,-2.626,-2.6509,-2.6467,-2.6426,-2.652,-2.6385,-2.6249,-2.6249,-2.6249,-2.6362,-2.6618,-2.6917,-2.7747,-2.9319,-2.9525,-2.9769,-3.0304,-2.9474,-2.8969,-2.8969,-2.7688,-2.7134,-2.747,-2.6883,-2.7058,-2.7971,-2.7891,-2.8131,-2.8673,-2.8422,-2.8291,0.0,-1.8781,-1.8781,-1.8781,-1.8827,-1.8874,-1.892,-1.8936,0.0,-2.0716,-2.1363,-2.2001,-2.3281,-2.3877,-2.4202,-2.4202,-2.4971,-2.5926,0.0,-2.7908,0.0,0.0,-3.0057,0.0,-2.9931,-2.968,-2.9439,-2.9174,-2.9128,-2.9035,-2.885,-2.8803,-2.8803,-2.8803,-3.0084,-3.0777,-3.0789,-3.125,-3.1593,-3.1813,-3.1857,-3.1933,-3.2127,-3.2127,-3.2127,0.0,-3.2127,-3.2127,-3.2084,-3.1472,-3.1217,-3.1172,-3.0487,-3.0746,-3.1492,-3.1492,-3.1492,-3.1492,-3.1492,-3.0925,-3.0216,-3.0216,-3.0216,-3.009,-2.9453,-2.9086,-2.9064,-2.978,-2.9093,-2.813,-2.813,-2.7685,-2.7247,-2.7247,-2.709,-2.6985,-2.7195,-2.6761,-2.6471,-2.7117,-2.636,-2.5835,-2.6376,-2.6001,-2.5665,-2.5853,-2.5853,-2.5853,-2.5853,-2.5853,-2.5853,-2.5812,-2.5812,-2.6155,-2.686,-2.7676,-2.8183,-2.8263,-2.7825,-2.7556,-2.7556,-2.6378,-2.608,-2.6905,-2.6193,-2.6193,-2.7028,-2.6894,-2.6812,-2.6812,-2.664,-2.6517,-1.8966,0.0,-1.8781,-1.8781,-1.9104,-1.9509,0.0,-2.0468,-2.1162,-2.1841,-2.2519,-2.3148,-2.3432,-2.3877,-2.4202,-2.4202,-2.4399,-2.4637,-2.4873,-2.6436,0.0,-2.9977,-3.017,-3.0136,-3.0136,-2.992,-2.9794,-2.9703,-2.9542,-2.9301,-2.9035,-2.9035,-2.8943,-2.8803,-2.9451,-2.9717,-2.9526,-3.0015,-3.0237,-3.0114,-3.0318,-3.042,-3.0454,-3.0611,-3.0689,-3.0689,-3.0689,-3.0689,-3.0689,-3.0521,-3.0442,-3.0442,-3.0261,-3.034,-3.0521,-3.0521,-3.0521,-3.0521,-3.0521,-3.0385,-3.0216,-3.0216,-3.0216,-3.0147,-2.9988,-2.9563,-2.9077,-2.8858,-2.8576,-2.8367,-2.8514,-2.8195,-2.7805,-2.7805,-2.7465,-2.7252,-2.7725,-2.7363,-2.7126,-2.7721,-2.7325,-2.677,-2.6357,-2.6291,-2.6161,-2.5676,-2.5454,-2.5369,-2.5369,-2.5369,-2.5253,-2.4882,-2.5168,-2.5285,-2.5147,-2.6205,-2.7197,-2.7797,-2.6849,-2.6265,-2.6265,-2.5306,-2.4903,-2.5115,-2.5547,-2.5902,-2.611,-2.6741,-2.7028,-2.7028,-2.6987,-2.6958,-1.9371,-1.9012,-1.8874,-1.9104,-1.9371,-1.9737,-2.0201,-2.0813,-2.1459,0.0,0.0,-2.3302,-2.3736,-2.4055,-2.4202,-2.4202,-2.4202,0.0,0.0,0.0,-2.7757,-2.9325,-2.952,-2.9703,0.0,-3.0091,-3.0011,-2.9886,-2.9794,-2.9588,-2.9301,-2.9255,-2.9174,-2.8943,-2.9635,-2.9767,-2.9283,-2.9547,-2.97,-2.9658,-2.9574,-2.96,-2.9737,-2.9966,-3.0057,-3.0045,-3.017,-3.0216,-3.0216,-3.0216,-3.0216,-3.0216,-3.0216,-3.0216,-3.0216,-3.0216,-3.0216,-3.0216,-3.0216,-3.0216,-3.0216,-3.0216,-3.0216,-3.0216,-3.0216,-2.9942,-2.9543,-2.8965,-2.857,-2.8432,-2.8551,-2.8431,-2.831,-2.831,-2.8103,-2.7893,-2.7998,-2.7615,-2.7303,-2.759,-2.7117,-2.6608,-2.6407,-2.6452,-2.6312,-2.5935,-2.5762,-2.5645,-2.5422,-2.5401,-2.5145,-2.456,-2.4828,-2.4903,-2.454,-2.5158,-2.5757,-2.6213,-2.5579,-2.5179,-2.5179,-2.4743,-2.4497,-2.4497,-2.4978,-2.5179,-2.5179,-2.5673,-2.5924,-2.5924,-2.5924,-2.5924,-1.982,-1.9325,-1.915,-1.96,-1.9729,-1.9845,-2.036,0.0,0.0,0.0,0.0,0.0,-2.4038,-2.4202,0.0,0.0,0.0,0.0,-2.5548,-2.6436,-2.7332,-2.8341,-2.8631,0.0,-2.9886,-3.0125,-3.0136,-2.9977,-2.9931,-2.9829,-2.9577,-2.9542,-2.9451,-2.9174,-3.0049,-3.023,-2.9632,-2.9602,-2.9661,-2.9833,-2.9325,-2.9254,-2.9562,-2.9804,-2.9953,-2.9999,0.0,0.0,-3.0216,-3.0216,-3.017,-3.017,-3.017,-3.017,-3.017,-3.017,-3.0216,-3.0216,-3.0216,-3.0216,-3.0216,-3.0216,-3.0216,-3.0216,-3.0216,-3.0216,-3.009,-2.9487,-2.9033,-2.8659,-2.8659,-2.8765,-2.8827,-2.8827,-2.8715,-2.8496,-2.8195,-2.7679,-2.7302,-2.7312,-2.6706,-2.6253,-2.6552,-2.6507,-2.6396,-2.6267,-2.6256,-2.6165,-2.5765,-2.5649,-2.5417,-2.4771,-2.4828,-2.4828,-2.4583,-2.454,-2.4497,-2.4497,-2.4497,-2.4497,-2.4497,-2.4497,-2.4497,-2.4497,-2.4497,-2.4497,-2.4497,-2.4497,-2.4497,-2.4497,-2.4497,-2.4497,-1.9729,-1.9828,-2.011,-2.0155,-2.0201,-2.0423,-2.1211,-2.1336,0.0,0.0,0.0,0.0,0.0,-2.4202,-2.4202,0.0,0.0,-2.4538,0.0,0.0,-2.6302,-2.7332,0.0,-2.8771,-2.891,-2.9703,-3.017,-3.017,-3.0136,-3.0045,-2.984,-2.984,-2.9737,-2.9439,-2.9952,-3.022,-3.0094,-3.0086,-2.9893,-2.9584,-2.9231,-2.936,-2.9875,-3.0041,-3.0265,-3.0487,0.0,-3.0433,-3.0216,-3.0216,-3.0091,-2.9977,-3.0136,-3.0091,-2.9977,-3.0136,-3.0216,-3.0216,-3.0216,-3.0216,-3.0216,-3.0216,-3.0216,-3.0216,-3.0216,-3.0216,-3.0204,-3.0079,-2.9998,-2.9941,-2.9941,-2.9643,-2.9378,-2.9378,-2.8727,-2.8206,-2.85,-2.7871,-2.7352,-2.7793,-2.7598,-2.7202,-2.6666,-2.6752,-2.6672,-2.6083,-2.6156,-2.628,-2.6207,-2.5982,-2.5794,-2.5687,-2.522,-2.4861,-2.4818,-2.4615,-2.4497,-2.4497,-2.4497,-2.4497,-2.4497,-2.4497,-2.4497,-2.4497,-2.4497,-2.4497,-2.4497,-2.4497,-2.4497,-2.4497,-2.4497,-2.4497,-2.0102,-2.0329,-2.069,-2.069,-2.069,-2.0922,-2.1778,-2.2089,0.0,0.0,0.0,0.0,0.0,0.0,-2.4202,-2.4202,0.0,-2.4341,-2.4833,-2.4883,-2.5255,0.0,0.0,-2.7361,-2.8126,-2.8924,-2.9483,-2.9693,-3.0034,-3.017,-3.0045,-3.0057,-2.9966,-2.9737,-3.0165,-3.0377,-3.0189,-3.0175,-3.0079,-2.9847,-2.922,-2.911,-2.9482,-2.9564,-2.9646,-2.9786,0.0,-2.9929,-2.9806,-2.9806,-2.976,-2.968,-2.9772,-2.9772,-2.9737,-2.9966,-3.0091,-3.0216,-3.0216,-3.0216,-3.0216,-3.0216,-3.0216,-3.0216,-3.0216,-3.0216,-3.0216,-3.0216,-3.0216,-3.0216,-3.0216,-3.0055,-2.9793,-2.9568,-2.9162,-2.8734,-2.841,-2.7946,-2.7649,-2.7636,-2.7536,-2.7332,-2.7029,-2.7176,-2.7207,-2.6883,-2.6909,-2.6917,-2.6722,-2.6682,-2.6438,-2.5952,-2.574,-2.5508,-2.5119,-2.4846,-2.4658,-2.4497,-2.4497,-2.4497,-2.4497,-2.4497,-2.4497,-2.4497,-2.4497,-2.4497,-2.4497,-2.4497,-2.4497,-2.4497,-2.4497,-2.4497,-2.06,-2.0826,-2.1159,-2.1157,-2.122,-2.1509,-2.2281,-2.2655,0.0,0.0,0.0,0.0,0.0,-2.4202,0.0,-2.4202,-2.4202,-2.4202,-2.4202,-2.4202,-2.4489,-2.5265,-2.5548,-2.6152,-2.7305,-2.7994,-2.8629,-2.9248,-2.965,-2.9943,-3.017,-3.0216,-3.0136,-2.9977,-3.033,-3.043,-3.0197,-3.015,-3.0171,-3.0178,-2.936,-2.909,-2.9305,-2.9305,-2.9305,-2.9305,-2.9479,-2.9551,-2.9485,-2.9485,-2.9439,-2.9393,-2.9485,-2.9485,-2.9531,-2.9737,-2.9909,-3.0034,-3.0136,-3.0136,-3.0136,-3.017,-3.0216,-3.017,-3.008,-3.0034,-3.0034,-2.9886,-2.984,-2.9943,-3.0125,-3.0125,-2.9943,-2.9577,-2.9301,-2.8921,-2.8186,-2.7904,-2.7715,-2.7357,-2.7309,-2.7309,-2.7309,-2.7441,-2.7547,-2.7547,-2.7584,-2.7516,-2.7169,-2.7299,-2.7133,-2.64,-2.6404,-2.6182,-2.5409,-2.5195,-2.4944,-2.4625,-2.454,-2.4497,-2.4497,-2.4497,-2.4497,-2.4497,-2.4497,-2.4497,-2.4497,-2.4497,-2.4497,-2.4497,-2.4497,-2.4497,-2.1087,-2.1275,-2.1644,-2.1559,-2.1878,-2.23,-2.2767,-2.2778,0.0,-2.3974,0.0,0.0,0.0,-2.4202,-2.4202,-2.4202,-2.4202,-2.4202,-2.4202,0.0,-2.4251,-2.4301,-2.5118,-2.5908,-2.6378,-2.6929,-2.7852,-2.92,-2.8986,-2.9244,-3.017,-3.0216,-3.017,-3.017,-3.0205,-3.0228,-3.0182,-3.0023,-3.0031,-3.0178,-2.9685,-2.9604,-2.9836,-2.9836,-2.9836,-2.9836,-2.9847,-2.9747,-2.9485,-2.9485,-2.9347,-2.9174,-2.9393,-2.9485,-2.9485,-2.9531,-2.9531,-2.9588,-2.984,-2.9931,-2.9931,-3.0136,-3.0216,-3.0125,-2.9669,-2.9531,-2.9439,-2.8956,-2.8828,-2.9117,-2.9988,-2.9897,-2.9531,-2.9531,-2.8792,-2.8081,-2.8045,-2.7668,-2.7357,-2.7309,-2.7309,-2.7309,-2.7309,-2.7309,-2.7309,-2.7309,-2.7499,-2.7573,-2.7542,-2.7629,-2.7661,-2.7584,-2.7198,-2.6646,-2.5901,-2.5663,-2.5366,-2.4892,-2.4625,-2.4497,-2.4497,-2.4497,-2.4497,-2.4497,-2.4497,-2.4497,-2.4497,-2.4497,-2.4497,-2.4497,-2.4497,-2.4497,-2.1221,-2.1132,-2.1329,-2.1548,-2.1908,0.0,0.0,-2.3244,-2.3414,-2.407,-2.3994,0.0,0.0,0.0,-2.4202,-2.4202,-2.4202,-2.4202,-2.4202,-2.4202,-2.4202,-2.4202,-2.4771,-2.5195,-2.5346,-2.6122,-2.687,-2.7374,-2.8221,-2.8863,-2.9244,-2.984,-3.0216,-3.0216,-3.0216,-3.0216,-3.0216,-3.0136,-3.0137,-3.0181,-2.9713,-2.9643,-2.9903,-2.9741,-2.9648,-2.9648,-2.9648,-2.9491,-2.9266,-2.9266,-2.9128,-2.8943,-2.9035,-2.9117,-2.9266,-2.9266,-2.9359,-2.9531,-2.9634,-2.9737,-2.9886,-2.9966,-3.0091,-3.017,-2.9988,-2.9715,-2.9439,-2.9244,-2.8967,-2.8921,-2.9577,-2.9382,-2.9013,-2.9013,-2.8502,-2.7904,-2.7631,-2.7441,-2.7309,-2.7309,-2.7309,-2.7309,-2.7309,-2.7309,-2.7309,-2.7309,-2.7357,-2.7441,-2.7584,-2.7755,-2.7871,-2.7871,-2.7444,-2.7018,-2.6602,-2.6404,-2.607,-2.5539,-2.4867,-2.4497,-2.4497,-2.4497,-2.4497,-2.4497,-2.4497,-2.4497,-2.4497,-2.4497,-2.4497,-2.4497,-2.4497,-2.4497,-2.149,-2.1275,-2.1408,-2.2004,0.0,0.0,-2.3736,-2.3682,-2.3559,-2.4088,-2.4202,-2.4202,-2.4202,0.0,0.0,0.0,-2.4202,-2.4202,-2.4202,-2.4202,-2.4202,-2.4202,-2.4578,-2.4785,-2.4785,-2.5406,-2.5939,-2.6278,-2.7218,-2.8013,-2.8678,-2.9371,-2.9886,-3.017,-3.0216,-3.0216,-3.0216,-3.0216,-3.0216,-3.0216,-2.9852,-2.9772,-2.9886,-2.9691,-2.9588,-2.9485,-2.9485,-2.9393,-2.922,-2.9128,-2.8989,-2.8803,-2.8803,-2.8896,-2.8989,-2.8989,-2.9128,-2.9301,-2.9347,-2.9497,-2.9703,-2.984,-2.9966,-3.0091,-2.9988,-2.9623,-2.9198,-2.9071,-2.8642,-2.8362,-2.8874,-2.8735,-2.8491,-2.8491,-2.8128,-2.7668,-2.7357,-2.7309,-2.7309,-2.7309,-2.7309,-2.7309,-2.7309,-2.7347,-2.7404,-2.7404,-2.7489,-2.7584,-2.7726,-2.7961,-2.8139,-2.8233,-2.7989,-2.7648,-2.7354,-2.7119,-2.6781,-2.6289,-2.5577,-2.5056,-2.4711,-2.47,-2.47,-2.47,-2.47,-2.47,-2.4625,-2.4625,-2.4583,-2.4497,-2.4497,-2.4497,-2.1954,-2.1789,-2.2134,-2.3056,0.0,0.0,-2.469,-2.4075,-2.3488,-2.4093,-2.4202,-2.4202,-2.4202,-2.4202,0.0,-2.4202,-2.4202,-2.4202,-2.4202,-2.4202,-2.4202,-2.4202,-2.4578,-2.4785,-2.4785,-2.4785,-2.5222,-2.6229,-2.5937,-2.66,-2.8595,-2.8689,-2.9163,-3.0182,-3.0182,-3.0227,-3.0227,-3.0216,-3.0216,-3.0216,-3.0216,-3.0091,-2.9886,-2.9886,-2.9737,-2.9485,-2.9485,-2.9485,-2.9485,-2.9209,-2.8989,-2.8803,-2.8803,-2.8803,-2.8803,-2.8803,-2.8803,-2.885,-2.9035,-2.9082,-2.9174,-2.9703,-2.9886,-2.984,-2.9588,-2.9106,-2.8585,-2.8128,-2.7668,-2.7394,-2.7857,-2.7987,-2.7987,-2.7998,-2.7631,-2.7309,-2.7309,-2.7309,-2.7309,-2.7309,-2.7309,-2.7309,-2.7309,-2.7452,-2.7584,-2.7584,-2.7809,-2.7998,-2.7998,-2.8243,-2.8488,-2.8757,-2.8803,-2.856,-2.8045,-2.782,-2.7523,-2.7038,-2.6815,-2.6265,-2.5243,-2.52,-2.52,-2.52,-2.52,-2.5115,-2.4903,-2.4903,-2.4743,-2.4497,-2.4497,-2.4497,-2.1954,-2.1518,0.0,-2.2375,0.0,0.0,0.0,-2.4381,0.0,0.0,-2.4538,-2.439,-2.439,-2.4301,0.0,-2.4202,-2.4202,-2.4202,-2.4202,-2.4202,-2.4202,-2.4202,-2.4578,-2.4785,-2.4785,-2.4785,-2.5039,-2.5615,-2.5937,-2.6507,-2.7391,-2.8875,-2.9814,-3.0101,-3.0519,-3.0778,-3.0778,-3.0399,-3.0216,-3.0216,-3.0216,-3.017,-3.0091,-3.0091,-3.0091,-2.9988,-2.9988,-2.9909,-2.9737,-2.9497,-2.922,-2.8989,-2.8989,-2.8989,-2.8989,-2.885,-2.8803,-2.8803,-2.8896,-2.8989,-2.9128,-2.9266,-2.9451,-2.9588,-2.9312,-2.8896,-2.843,-2.8092,-2.7668,-2.7309,-2.7489,-2.7489,-2.7584,-2.7904,-2.7631,-2.7309,-2.7309,-2.7309,-2.7309,-2.7309,-2.7309,-2.7309,-2.7309,-2.7357,-2.7404,-2.7404,-2.7584,-2.7867,-2.8243,-2.8524,-2.871,-2.8803,-2.8803,-2.8749,-2.8606,-2.8492,-2.825,-2.7726,-2.7659,-2.7047,-2.5743,-2.57,-2.5455,-2.4999,-2.4988,-2.4871,-2.4615,-2.4615,-2.4583,-2.4497,-2.4497,-2.4497,-2.1954,-2.1374,0.0,-2.2449,-2.272,-2.3,-2.387,0.0,0.0,0.0,-2.4627,-2.448,-2.448,-2.439,0.0,-2.4341,-2.4341,-2.4301,-2.4202,-2.4202,-2.4202,-2.4202,-2.4578,-2.4785,-2.4785,-2.4922,-2.5115,-2.5405,-2.574,-2.6244,-2.6883,-2.7982,-2.8974,-2.9752,-2.9992,-3.027,-3.0698,-3.0376,-3.0216,-3.0216,-3.0216,-3.0216,-3.0216,-3.0216,-3.0216,-3.0216,-3.0216,-3.0091,-2.9897,-2.9737,-2.9497,-2.9266,-2.9266,-2.9266,-2.9255,-2.9117,-2.9024,-2.8943,-2.9035,-2.9035,-2.8989,-2.922,-2.9163,-2.9082,-2.9082,-2.8617,-2.8055,-2.7998,-2.7668,-2.7309,-2.7309,-2.7309,-2.7357,-2.7631,-2.7489,-2.7309,-2.7309,-2.7309,-2.7309,-2.7309,-2.7309,-2.7309,-2.7309,-2.7357,-2.7404,-2.7404,-2.7631,-2.7867,-2.8196,-2.8373,-2.8513,-2.8617,-2.8617,-2.8664,-2.8803,-2.8803,-2.8683,-2.8342,-2.8331,-2.7846,-2.6764,-2.655,-2.627,-2.585,-2.584,-2.5582,-2.5068,-2.5068,-2.4845,-2.4497,-2.4497,-2.4676,-2.1865,-2.1235,-2.1468,-2.2878,-2.331,0.0,-2.3956,-2.4304,-2.447,-2.4273,0.0,-2.4322,-2.4322,-2.443,-2.4529,-2.4529,-2.4529,-2.444,-2.4251,-2.4251,-2.4202,-2.4202,-2.4542,-2.4739,-2.4776,-2.512,-2.5341,-2.5362,-2.5387,-2.5773,-2.6698,-2.6532,-2.7199,-2.9047,-2.8795,-2.9115,-3.0148,-3.0102,-3.0125,-3.0216,-3.0216,-3.0216,-3.0216,-3.0216,-3.0216,-3.0216,-3.0216,-3.0091,-2.9886,-2.9931,-2.9783,-2.9531,-2.9531,-2.9531,-2.9531,-2.9485,-2.9359,-2.9174,-2.9439,-2.9209,-2.8932,-2.9347,-2.9035,-2.8581,-2.8943,-2.8384,-2.7726,-2.7904,-2.762,-2.7309,-2.7309,-2.7309,-2.7309,-2.7309,-2.7309,-2.7309,-2.7309,-2.7309,-2.7309,-2.7309,-2.7309,-2.7309,-2.7309,-2.7452,-2.7584,-2.7584,-2.7809,-2.7998,-2.7998,-2.7998,-2.8092,-2.8348,-2.8395,-2.8488,-2.8757,-2.8803,-2.8803,-2.8803,-2.8803,-2.856,-2.8078,-2.7643,-2.7359,-2.7271,-2.7271,-2.6833,-2.5977,-2.5977,-2.5537,-2.4707,-2.4707,-2.5065,-2.1561,-2.0797,0.0,0.0,-2.1991,-2.2339,-2.324,-2.2533,-2.1778,-2.2206,-2.2776,-2.3244,-2.3244,-2.4115,-2.4833,-2.4833,-2.4833,-2.4735,-2.4489,-2.444,-2.439,-2.4202,-2.4284,-2.4468,-2.4748,-2.4606,-2.4735,-2.5378,-2.5139,-2.5144,-2.5698,-2.6468,-2.705,-2.7492,-2.7927,-2.8615,-2.9623,-2.9236,-2.9428,-3.0216,-3.0216,-3.0216,-3.0216,-3.0216,-3.0216,-3.0216,-3.0216,-3.0091,-2.9886,-3.0045,-3.0,-2.9783,-2.9783,-2.9783,-2.9794,-2.9588,-2.9439,-2.9439,-2.9485,-2.9439,-2.9347,-2.9485,-2.9393,-2.9163,-2.8721,-2.8395,-2.8113,-2.7584,-2.7394,-2.7309,-2.7309,-2.7309,-2.7309,-2.7309,-2.7309,-2.7309,-2.7309,-2.7309,-2.7309,-2.7309,-2.7309,-2.7309,-2.7309,-2.7357,-2.7404,-2.7594,-2.7631,-2.7773,-2.7998,-2.7998,-2.8045,-2.8092,-2.829,-2.8441,-2.8488,-2.8664,-2.8803,-2.8803,-2.8803,-2.876,-2.865,-2.8145,-2.7608,-2.705,-2.705,-2.6873,-2.6532,-2.6532,-2.6434,-2.625,-2.625,-2.6303,-2.1908,0.0,0.0,-2.1746,0.0,-2.2139,-2.2316,-2.0974,-1.9583,-1.9339,-2.0582,-2.1769,-2.208,-2.2702,-2.3261,-2.3511,-2.3967,-2.4233,-2.3985,-2.4381,-2.4587,-2.439,-2.4341,-2.4467,-2.479,-2.4633,-2.4762,-2.5378,-2.5231,-2.5203,-2.5414,-2.5727,-2.6155,-2.6641,-2.6833,-2.7369,-2.8412,-2.8611,-2.8956,-2.9463,-2.9977,-3.0216,-3.0216,-3.0216,-3.0216,-3.0216,-3.0216,-3.0136,-3.0057,-3.017,-3.0136,-3.0057,-3.0057,-3.0057,-3.0057,-2.9897,-2.976,-2.9737,-2.9806,-2.9669,-2.9531,-2.9646,-2.9439,-2.9059,-2.871,-2.8301,-2.7925,-2.7547,-2.7441,-2.7404,-2.7309,-2.7357,-2.7404,-2.7299,-2.6918,-2.6524,-2.6524,-2.6119,-2.5771,-2.5771,-2.5771,-2.5916,-2.6428,-2.6524,-2.6572,-2.6668,-2.6264,-2.6196,-2.6972,-2.7067,-2.7363,-2.8092,-2.8301,-2.8441,-2.8571,-2.871,-2.8803,-2.8803,-2.8803,-2.856,-2.807,-2.7789,-2.7693,-2.7867,-2.7345,-2.6873,-2.6445,-2.6445,-2.6295,-2.5951,-2.6457,-2.6854,-2.2507,0.0,-2.1232,-2.2384,-2.2491,0.0,-2.1328,-1.9664,-1.7955,-1.6776,-1.8426,-2.0231,-2.0818,-2.1175,-2.1532,-2.2089,-2.2902,-2.347,-2.3379,-2.4134,-2.4686,-2.4578,-2.4587,-2.4628,-2.4739,-2.4776,-2.4854,-2.5185,-2.5212,-2.5212,-2.5212,-2.49,-2.506,-2.5913,-2.5634,-2.5926,-2.6904,-2.7778,-2.8351,-2.8724,-2.9703,-3.0216,-3.0216,-3.0216,-3.0216,-3.0216,-3.0216,-3.0216,-3.0216,-3.0216,-3.0216,-3.0216,-3.0216,-3.0216,-3.0216,-3.0216,-3.0091,-2.9977,-3.0136,-2.9943,-2.968,-2.9874,-2.9485,-2.8956,-2.8932,-2.8373,-2.782,-2.7726,-2.7631,-2.7536,-2.7404,-2.7452,-2.7441,-2.7109,-2.6177,-2.5489,-2.5645,-2.4845,-2.4088,-2.4088,-2.4088,-2.4393,-2.5285,-2.5441,-2.5441,-2.5441,-2.4698,-2.4581,-2.5654,-2.6051,-2.6638,-2.7961,-2.8254,-2.8441,-2.871,-2.871,-2.8757,-2.8803,-2.8803,-2.8315,-2.7237,-2.7379,-2.772,-2.8269,-2.7389,-2.6683,-2.6091,-2.6091,-2.5815,-2.5231,-2.6123,-2.6834,-2.3033,0.0,-2.2138,0.0,-2.2198,-2.1277,0.0,0.0,-1.7364,0.0,-1.7437,-1.8821,-1.9398,-2.0684,-2.1811,-2.2383,-2.2593,-2.2902,-2.3529,-2.3786,-2.4134,-2.4784,-2.4833,-2.4754,-2.4563,-2.4523,-2.4501,-2.4358,-2.4367,-2.4367,-2.4367,-2.4312,-2.4334,-2.4474,-2.4418,-2.4873,-2.5877,-2.6022,-2.6972,-2.8724,-2.9703,-3.0216,-3.0216,-3.0216,-3.0216,-3.0216,-3.0216,-3.0216,-3.0216,-3.0216,-3.0216,-3.0216,-3.0216,-3.0216,-3.0216,-3.0216,-3.017,-3.017,-3.017,-3.017,-3.0125,-3.0136,-3.008,-2.9943,-2.9531,-2.9024,-2.8571,-2.8348,-2.7831,-2.7357,-2.7536,-2.7452,-2.7109,-2.6129,-2.5089,-2.459,-2.5489,-2.4845,-2.4088,-2.4088,-2.4088,-2.4137,-2.4295,-2.4285,-2.4285,-2.4285,-2.4393,-2.4492,-2.4688,-2.5712,-2.6552,-2.6744,-2.7515,-2.8149,-2.8441,-2.8441,-2.8535,-2.8803,-2.8803,-2.8315,-2.7237,-2.807,-2.7825,-2.6137,-2.5993,-2.5867,-2.5759,-2.5759,-2.574,-2.5633,-2.5777,-2.5902,-2.3492,-2.2539,-2.2182,0.0,-2.2313,-2.1328,-2.1363,-1.9428,-1.7477,-1.6948,-1.6935,-1.7285,-1.8133,-1.8902,-1.9576,-2.0099,-2.07,-2.1202,-2.1574,-2.2676,-2.3642,-2.4183,-2.4784,-2.503,-2.4735,-2.4587,-2.448,-2.439,-2.4251,-2.4202,-2.4202,-2.4202,-2.4202,-2.4202,-2.4202,-2.439,-2.4883,-2.5401,-2.6686,-2.8724,-2.9141,-2.9658,-3.0216,-3.0216,-3.0216,-3.0216,-3.0216,-3.0216,-3.0216,-3.0216,-3.0216,-3.0216,-3.0216,-3.0216,-3.0216,-3.0216,-3.0216,-3.0216,-3.0216,-3.0216,-3.0216,-3.0216,-3.0216,-3.0125,-2.9623,-2.9255,-2.8896,-2.8488,-2.816,-2.7914,-2.7867,-2.7773,-2.7373,-2.6215,-2.4982,-2.4048,-2.3908,-2.3061,-2.2308,-2.2308,-2.2811,-2.3261,-2.3411,-2.3311,-2.3261,-2.3411,-2.2911,-2.2752,-2.3493,-2.4128,-2.5012,-2.6292,-2.6819,-2.74,-2.8092,-2.8196,-2.8233,-2.8326,-2.8373,-2.7893,-2.6877,-2.6675,-2.5945,-2.4599,-2.5314,-2.5412,-2.4816,-2.4816,-2.4816,-2.4826,-2.5412,-2.5703,0.0,0.0,-2.2609,-2.3279,-2.2629,-2.1844,0.0,0.0,-1.8304,0.0,-1.6895,-1.6524,-1.7265,-1.7371,-1.7529,-1.8108,-1.8968,-1.9679,-1.9981,-2.155,-2.2976,-2.3719,-2.452,-2.4981,-2.4981,-2.4833,-2.4686,-2.4587,-2.439,-2.4301,-2.4301,-2.4251,-2.4202,-2.4202,-2.4202,-2.4202,-2.4202,-2.5216,-2.659,-2.8341,-2.8574,-2.9095,-2.984,-3.008,-3.0216,-3.0216,-3.0216,-3.0216,-3.0216,-3.0216,-3.0216,-3.0216,-3.0216,-3.0216,-3.0216,-3.0216,-3.0216,-3.0216,-3.0216,-3.0216,-3.0216,-3.0216,-3.0216,-3.0125,-2.976,-2.9393,-2.9035,-2.8757,-2.8488,-2.8243,-2.8139,-2.7846,-2.7315,-2.6099,-2.4777,-2.3502,-2.2325,-2.1522,-2.0968,-2.0917,-2.1623,-2.2224,-2.2375,-2.2274,-2.2274,-2.2476,-2.1725,-2.1463,-2.245,-2.2844,-2.3773,-2.58,-2.6186,-2.6771,-2.7893,-2.7951,-2.7951,-2.7998,-2.7998,-2.7458,-2.6264,-2.5674,-2.4747,-2.3438,-2.463,-2.4777,-2.371,-2.371,-2.371,-2.3759,-2.4531,-2.4924,0.0,-2.4331,0.0,-2.3157,-2.3129,-2.3038,0.0,0.0,-2.0115,-1.8048,-1.7529,-1.7371,-1.6836,-1.673,-1.6942,-1.7529,-1.8108,-1.8826,-1.9878,-2.0613,-2.1785,-2.384,-2.4137,-2.4452,-2.5235,-2.5284,-2.5137,-2.4883,-2.4627,-2.448,-2.448,-2.4291,-2.4202,-2.4202,-2.4202,-2.4202,-2.4202,-2.5216,-2.6205,-2.7284,-2.8236,-2.8724,-2.8817,-2.9749,-3.0216,-3.0216,-3.0216,-3.0216,-3.0216,-3.0216,-3.0216,-3.0216,-3.0216,-3.0216,-3.0216,-3.0216,-3.0216,-3.0216,-3.0216,-3.0216,-3.0216,-3.0216,-3.0216,-3.0216,-3.017,-2.9669,-2.9174,-2.9393,-2.8746,-2.8092,-2.8301,-2.7468,-2.6302,-2.5236,-2.3958,-2.2577,-2.1267,-2.1121,-2.1224,-2.0976,-2.1173,-2.1275,-2.107,-2.1224,-2.1377,-2.1369,-2.1522,-2.1674,-2.1776,-2.2652,-2.3741,-2.4835,-2.5664,-2.6628,-2.7893,-2.7762,-2.7726,-2.7987,-2.7998,-2.722,-2.5441,-2.6205,-2.5421,-2.2695,-2.366,-2.371,-2.2695,-2.2695,-2.2695,-2.2695,-2.2745,-2.2745,0.0,0.0,0.0,-2.4418,-2.3916,-2.3347,-2.307,-2.1895,-2.068,-1.9901,-1.8617,-1.7529,-1.7312,-1.6942,-1.6783,-1.6995,-1.7206,-1.7569,-1.8349,-1.9213,-2.0392,-2.1878,-2.3235,-2.4196,-2.4501,-2.4981,-2.5235,-2.5137,-2.4735,-2.448,-2.448,-2.4301,-2.4202,-2.4202,-2.4202,-2.4202,-2.4202,-2.4538,-2.5255,-2.6254,-2.7247,-2.8096,-2.8724,-2.9749,-3.0216,-3.0216,-3.0216,-3.0216,-3.0216,-3.0216,-3.0216,-3.0216,-3.0216,-3.0216,-3.0216,-3.0216,-3.0216,-3.017,-3.0057,-3.0011,-3.0011,-3.0011,-3.0011,-3.0011,-3.017,-2.9806,-2.9393,-2.9485,-2.9024,-2.8524,-2.8617,-2.7704,-2.6205,-2.4304,-2.297,-2.1979,-2.1522,-2.1479,-2.1471,-2.1224,-2.1224,-2.1275,-2.1173,-2.1224,-2.1377,-2.1522,-2.1623,-2.1623,-2.1479,-2.1768,-2.2409,-2.3511,-2.3859,-2.4786,-2.661,-2.6668,-2.6918,-2.7536,-2.7536,-2.7241,-2.662,-2.5771,-2.4933,-2.4115,-2.3261,-2.2719,-2.2594,-2.2594,-2.2594,-2.2594,-2.2594,-2.2594,-2.6444,0.0,0.0,0.0,-2.4487,-2.3985,-2.3886,-2.282,-2.1751,-2.1489,-2.0099,-1.8864,-1.8506,-1.7621,-1.6889,-1.6471,-1.6571,-1.6889,-1.7529,-1.8349,-1.942,-2.0723,-2.2484,-2.3692,-2.4088,-2.4922,-2.543,-2.543,-2.503,0.0,-2.4784,-2.4538,-2.4399,-2.4291,-2.4251,-2.4341,-2.4686,-2.435,-2.4686,-2.5693,-2.6398,-2.72,-2.8247,-2.9233,-2.9886,-3.0216,-3.0216,-3.0216,-3.0216,-3.0216,-3.0216,-3.0216,-3.0216,-3.0216,-3.0216,-3.0216,-3.0216,-3.017,-2.9977,-2.9886,-2.9897,-2.9783,-2.984,-2.9931,-3.0057,-2.9817,-2.9485,-2.9485,-2.9163,-2.8803,-2.8803,-2.7647,-2.5896,-2.3899,-2.2719,-2.1979,-2.1878,-2.1818,-2.1776,-2.1479,-2.1522,-2.1522,-2.1428,-2.1522,-2.1623,-2.1827,-2.1818,-2.1776,-2.1573,-2.1479,-2.1827,-2.2929,-2.2929,-2.3669,-2.5548,-2.5849,-2.6235,-2.687,-2.7167,-2.7061,-2.6514,-2.5586,-2.4747,-2.4156,-2.317,-2.2736,-2.2996,-2.2745,-2.2594,-2.2594,-2.2594,-2.2594,0.0,0.0,0.0,0.0,-2.4859,-2.5148,-2.4322,-2.3926,-2.352,-2.2693,-2.2089,-2.1371,-2.029,-1.876,-1.7318,-1.6205,-1.6418,-1.6889,-1.7529,-1.8055,-1.8982,-2.068,-2.1836,-2.2935,-2.3989,-2.5069,-2.5693,-2.5693,-2.543,-2.5284,-2.5284,-2.5039,-2.4784,-2.4538,-2.4291,-2.4686,-2.5645,-2.4686,-2.4686,-2.5645,-2.5693,-2.6205,-2.7189,-2.8247,-2.9233,-3.017,-3.017,-3.0216,-3.0216,-3.0216,-3.0216,-3.0216,-3.0216,-3.0216,-3.0216,-3.0216,-3.0216,-3.017,-2.9977,-2.9886,-2.984,-2.9588,-2.9691,-2.9886,-2.9886,-2.9691,-2.9485,-2.9485,-2.9163,-2.8803,-2.8746,-2.7247,-2.5353,-2.4029,-2.312,-2.2493,-2.2182,-2.2123,-2.2021,-2.1776,-2.1928,-2.2021,-2.1725,-2.1928,-2.2072,-2.2072,-2.2131,-2.2131,-2.2072,-2.1869,-2.2123,-2.3129,-2.3029,-2.342,-2.4747,-2.5343,-2.5742,-2.6052,-2.6822,-2.6562,-2.4992,-2.5693,-2.5011,-2.2745,-2.3379,-2.3728,-2.3728,-2.2996,-2.2594,-2.2644,-2.2594,-2.2603,-2.8556,0.0,0.0,0.0,0.0,0.0,-2.5187,-2.4756,-2.4353,-2.3511,-2.2299,-2.1481,-2.1769,-2.0143,-1.8909,-1.9376,-1.7588,-1.6471,-1.7477,-1.774,-1.8565,-2.0672,-2.1836,-2.2935,-2.3989,-2.5069,-2.5693,0.0,-2.543,-2.5284,-2.5284,-2.4883,-2.4578,-2.448,-2.4291,-2.435,-2.4587,-2.435,-2.435,-2.4637,-2.5362,-2.5829,-2.6167,-2.7919,-2.8863,-2.9152,-2.9886,-3.0216,-3.0216,-3.0216,-3.0216,-3.0216,-3.0216,-3.0216,-3.0216,-3.0216,-3.0216,-3.017,-2.9977,-2.9783,-2.9588,-2.9531,-2.9405,-2.937,-2.9794,-2.9554,-2.9266,-2.9439,-2.9163,-2.8606,-2.7825,-2.6665,-2.5402,-2.4285,-2.327,-2.2594,-2.2493,-2.2443,-2.2384,-2.203,-2.203,-2.2021,-2.1725,-2.1928,-2.2072,-2.2072,-2.2283,-2.2384,-2.2131,-2.2021,-2.2072,-2.2375,-2.2375,-2.2778,-2.3917,-2.4174,-2.451,-2.5197,-2.5984,-2.6235,-2.58,-2.5994,-2.58,-2.5157,-2.4756,-2.455,-2.4559,-2.3229,-2.2896,-2.3379,-2.2846,-2.274,0.0,0.0,0.0,0.0,0.0,0.0,-2.5926,-2.5489,-2.5148,-2.4372,-2.327,-2.2652,-2.3203,-2.1726,-2.0649,-2.1389,-1.9479,-1.8255,-1.9154,-1.9317,-1.9878,-2.1379,-2.2484,-2.3384,-2.4038,-2.5069,-2.5693,-2.5693,-2.5538,-2.5489,-2.5489,-2.5088,-2.4784,-2.4677,-2.444,-2.4291,-2.4202,-2.4202,-2.4202,-2.4202,-2.4775,-2.5304,-2.5742,-2.7342,-2.8294,-2.8771,-2.9749,-3.0216,-3.0216,-3.0216,-3.0216,-3.0216,-3.0216,-3.0216,-3.0216,-3.0216,-3.0216,-3.017,-2.9977,-2.9737,-2.9485,-2.9255,-2.9174,-2.9128,-2.937,-2.9277,-2.9128,-2.9312,-2.9082,-2.8653,-2.8013,-2.6809,-2.5557,-2.4924,-2.366,-2.2594,-2.2594,-2.2723,-2.2732,-2.2367,-2.241,-2.2469,-2.2315,-2.2544,-2.2689,-2.2537,-2.2673,-2.2672,-2.2359,-2.2283,-2.2283,-2.2283,-2.2182,-2.2426,-2.3188,-2.3429,-2.3768,-2.4353,-2.5148,-2.5596,-2.5596,-2.5945,-2.5945,-2.5596,-2.545,-2.5294,-2.5041,-2.4066,-2.3628,-2.3678,-2.3238,-2.3009,0.0,0.0,0.0,0.0,-2.8752,0.0,-2.6802,-2.638,-2.6177,-2.5362,-2.4766,-2.447,-2.4667,-2.3452,-2.2484,-2.2793,-2.1895,-2.1314,-2.1643,-2.1702,-2.1954,-2.2584,-2.3543,-2.4137,-2.4245,-2.5118,-2.5693,-2.5693,-2.5693,-2.5693,-2.5693,-2.544,-2.5186,-2.4932,-2.4686,-2.444,-2.4301,-2.4251,-2.4202,-2.4251,-2.4202,-2.4686,-2.5548,-2.658,-2.7579,-2.8574,-2.9612,-3.008,-3.0216,-3.0216,-3.0216,-3.0216,-3.0216,-3.0216,-3.0216,-3.0216,-3.0216,-3.017,-3.0011,-2.9737,-2.9439,-2.9024,-2.8943,-2.9035,-2.885,-2.8943,-2.9082,-2.9082,-2.885,-2.8653,-2.8757,-2.7152,-2.5567,-2.5713,-2.417,-2.2671,-2.2714,-2.2937,-2.3083,-2.2791,-2.2946,-2.3177,-2.3177,-2.3451,-2.3554,-2.3228,-2.3177,-2.3049,-2.2766,-2.268,-2.2663,-2.2663,-2.2359,-2.2283,-2.2594,-2.2987,-2.3329,-2.3578,-2.4313,-2.4796,-2.4894,-2.5693,-2.579,-2.5187,-2.5887,-2.5994,-2.5538,-2.5138,-2.4599,-2.3926,-2.3777,-2.3456,0.0,0.0,0.0,0.0,-3.1228,0.0,-2.862,-2.8211,-2.7966,-2.721,-2.6665,-2.6224,-2.6109,-2.5129,-2.4452,-2.4726,-2.4214,-2.3294,-2.1904,-2.1702,-2.2206,-2.3633,-2.3989,-2.4452,-2.5323,-2.5586,-2.5693,-2.5693,-2.5693,-2.5693,-2.5693,-2.544,-2.5284,-2.5235,-2.4735,-2.4578,-2.4735,-2.4399,-2.4301,-2.444,-2.4301,-2.4301,-2.4538,-2.5548,-2.6542,-2.7568,-2.8574,-2.9474,-3.0216,-3.0216,-3.0216,-3.0216,-3.0216,-3.0216,-3.0216,-3.0216,-3.0216,-3.017,-3.017,-2.9852,-2.9485,-2.9393,-2.9117,-2.885,-2.8803,-2.885,-2.885,-2.885,-2.8211,-2.772,-2.856,-2.6617,-2.4714,-2.5837,-2.4491,-2.3083,-2.3435,-2.352,-2.3554,-2.3512,-2.3564,-2.3562,-2.3588,-2.3631,-2.3692,-2.3571,-2.3554,-2.3581,-2.3504,-2.3186,-2.3006,-2.3006,-2.2672,-2.2544,-2.2594,-2.2695,-2.2745,-2.2795,-2.3529,-2.4214,-2.4894,-2.5693,-2.6332,-2.6812,-2.6965,-2.7013,-2.6918,-2.5781,-2.5236,-2.5266,-2.4433,-2.4421,0.0,0.0,0.0,-3.3462,0.0,0.0,0.0,-2.9681,-2.9282,-2.7709,-2.7189,-2.6989,-2.7067,-2.6628,-2.6157,-2.5936,-2.58,-2.5187,-2.3692,-2.3583,-2.3998,-2.4805,-2.4913,-2.5118,-2.5635,-2.5693,-2.5693,-2.5693,-2.5693,-2.5693,-2.5693,-2.5586,-2.544,-2.5284,-2.5039,-2.4883,-2.4883,-2.4686,-2.4587,-2.4686,-2.4587,-2.4498,-2.439,-2.5548,-2.6494,-2.7284,-2.8387,-2.9382,-3.0216,-3.0216,-3.0216,-3.0216,-3.0216,-3.0216,-3.0216,-3.0216,-3.0216,-3.0216,-3.0216,-3.0,-2.9646,-2.9405,-2.9117,-2.8896,-2.8664,-2.871,-2.8803,-2.8803,-2.8013,-2.7384,-2.8121,-2.6368,-2.461,-2.5464,-2.4499,-2.3443,-2.3675,-2.3819,-2.3965,-2.3948,-2.4102,-2.4179,-2.3999,-2.4119,-2.417,-2.3973,-2.3948,-2.3888,-2.3708,-2.3511,-2.3323,-2.3134,-2.2946,-2.2808,-2.2611,-2.2594,-2.2594,-2.2594,-2.2946,-2.3479,-2.4264,-2.4716,-2.5304,-2.6081,-2.5751,-2.58,-2.6322,-2.525,-2.4935,-2.5275,-2.4344,-2.4017,0.0,0.0,0.0,0.0,0.0,-3.391,0.0,0.0,0.0,-2.8509,0.0,0.0,0.0,0.0,0.0,-2.6829,0.0,0.0,0.0,-2.5723,0.0,-2.5684,-2.5693,-2.5693,-2.5693,-2.5693,-2.5693,-2.5693,-2.5693,-2.5693,-2.5693,-2.5693,-2.5586,-2.5382,-2.5342,-2.5235,-2.5088,-2.4932,-2.4932,-2.4981,-2.4932,-2.4784,-2.4627,-2.5693,-2.6494,-2.7142,-2.8341,-2.929,-2.9988,-3.0216,-3.0261,-3.0216,-3.0216,-3.0216,-3.0216,-3.0216,-3.0216,-3.0216,-3.0216,-3.0045,-2.984,-2.9312,-2.9128,-2.8989,-2.8581,-2.8477,-2.8524,-2.8575,-2.7715,-2.6851,-2.7464,-2.6085,-2.4633,-2.5188,-2.4553,-2.3847,-2.3924,-2.4127,-2.435,-2.435,-2.4607,-2.4718,-2.4347,-2.4552,-2.471,-2.4338,-2.435,-2.4247,-2.3956,-2.3836,-2.3657,-2.3365,-2.3263,-2.3066,-2.274,-2.2705,-2.2671,-2.2603,-2.2594,-2.2946,-2.3678,-2.3877,-2.4264,-2.4894,-2.4336,-2.4386,-2.5246,-2.4477,-2.4418,-2.5031,-2.4165,-2.3529,0.0,0.0,0.0,0.0,-3.5694,0.0,0.0,0.0,-3.2845,-3.1412,0.0,0.0,0.0,0.0,0.0,0.0,0.0,0.0,-2.6456,-2.6408,-2.6235,-2.5781,-2.5693,-2.5693,-2.5693,-2.5693,-2.5693,-2.5693,-2.5693,-2.5693,-2.5693,-2.5693,-2.5693,-2.5635,-2.544,-2.5391,-2.5586,-2.5137,-2.503,-2.5235,-2.503,-2.4883,-2.4883,-2.503,-2.5645,-2.6638,-2.7605,-2.847,-2.9312,-3.0216,-3.0397,-3.0216,-3.0216,-3.0216,-3.0216,-3.0216,-3.0216,-3.0216,-3.0216,-3.0045,-2.984,-2.9542,-2.9163,-2.8803,-2.8757,-2.8117,-2.7473,-2.7793,-2.6478,-2.5286,-2.6575,-2.5365,-2.414,-2.5448,-2.4907,-2.4264,-2.4616,-2.4727,-2.4753,-2.4753,-2.4795,-2.4804,-2.4761,-2.4795,-2.4804,-2.4761,-2.4753,-2.4735,-2.4701,-2.4384,-2.4153,-2.4056,-2.3802,-2.3451,-2.3083,-2.3049,-2.2903,-2.262,-2.2594,-2.2946,-2.3678,-2.4353,-2.4796,-2.4894,-2.4843,-2.4843,-2.4943,-2.4161,-2.4399,-2.5606,-2.4531,-2.4393,0.0,0.0,0.0,0.0,0.0,0.0,-3.5399,0.0,-3.4735,0.0,0.0,0.0,0.0,0.0,0.0,0.0,-2.8351,0.0,0.0,0.0,-2.6897,0.0,0.0,0.0,-2.5684,-2.5693,-2.5693,-2.5693,-2.5693,-2.5693,-2.5693,-2.5693,-2.5693,-2.5693,-2.5586,-2.5586,-2.5693,-2.5489,-2.544,-2.5538,-2.544,-2.5284,-2.5137,-2.5284,-2.5761,-2.6552,-2.7067,-2.8107,-2.9347,-2.9806,-3.017,-3.0442,-3.0442,-3.0352,-3.0216,-3.0216,-3.0216,-3.0216,-3.0216,-2.9954,-2.9588,-2.922,-2.8943,-2.8707,-2.8354,-2.7902,-2.7503,-2.7262,-2.6133,-2.5161,-2.6035,-2.5102,-2.421,-2.5016,-2.4893,-2.456,-2.4787,-2.4821,-2.4821,-2.4821,-2.4821,-2.4821,-2.4821,-2.4821,-2.4821,-2.4821,-2.4821,-2.4821,-2.4821,-2.4675,-2.4432,-2.4202,-2.4093,-2.3836,-2.346,-2.3434,-2.3374,-2.3228,-2.2997,-2.2927,-2.3046,-2.3379,-2.3569,-2.3569,-2.3601,-2.3601,-2.3578,-2.3265,-2.3399,-2.3908,-2.342,-2.342,-3.8202,0.0,0.0,0.0,0.0,0.0,0.0,0.0,0.0,0.0,0.0,0.0,0.0,0.0,0.0,0.0,0.0,-2.9325,0.0,-2.807,0.0,0.0,0.0,0.0,0.0,-2.5635,-2.5693,-2.5693,-2.5693,-2.5693,-2.5693,-2.5693,-2.5693,-2.5693,-2.5693,-2.5693,-2.5693,-2.5693,-2.5693,-2.5693,-2.5693,-2.5586,-2.544,-2.5586,-2.5917,-2.6322,-2.6802,-2.7835,-2.9198,-2.9474,-2.9886,-3.0295,-3.0532,-3.0352,-3.0034,-3.017,-3.0216,-3.0216,-3.0216,-2.9897,-2.9439,-2.9117,-2.8984,-2.8914,-2.8391,-2.7927,-2.7471,-2.7114,-2.6003,-2.5012,-2.5398,-2.4974,-2.4415,-2.4753,-2.4821,-2.4821,-2.4821,-2.4821,-2.4821,-2.4821,-2.4821,-2.4821,-2.4821,-2.4821,-2.4821,-2.4821,-2.4821,-2.4821,-2.4821,-2.4821,-2.471,-2.4427,-2.4338,-2.4239,-2.3853,-2.3819,-2.3785,-2.3699,-2.3425,-2.3143,-2.2911,-2.2903,-2.2903,-2.2903,-2.297,-2.297,-2.2903,-2.297,-2.297,-2.2903,-2.2697,-2.2654,0.0,0.0,0.0,-3.8202,0.0,0.0,0.0,0.0,-3.7159,0.0,0.0,0.0,0.0,0.0,0.0,0.0,0.0,0.0,0.0,0.0,0.0,0.0,0.0,0.0,0.0,-2.5538,-2.5693,0.0,-2.5693,-2.5693,-2.5693,-2.5693,-2.5693,-2.5693,-2.5693,-2.5693,-2.5693,-2.5693,-2.5693,-2.5693,-2.5693,-2.5693,-2.5693,-2.5693,-2.5684,-2.5781,-2.6781,-2.7615,-2.8412,-2.9395,-2.9692,-2.9623,-3.0295,-3.017,-2.9577,-3.0034,-3.0216,-3.0216,-3.0216,-2.9897,-2.9485,-2.9485,-2.9495,-2.9456,-2.943,-2.8253,-2.7012,-2.738,-2.5885,-2.4299,-2.4748,-2.4804,-2.4804,-2.4812,-2.4821,-2.4821,-2.4821,-2.4821,-2.4821,-2.4821,-2.4821,-2.4821,-2.4821,-2.4821,-2.4821,-2.4821,-2.4821,-2.4821,-2.4821,-2.4821,-2.4812,-2.4804,-2.4804,-2.4641,-2.4193,-2.4159,-2.4059,-2.3744,-2.3709,-2.3692,-2.3684,-2.3684,-2.3684,-2.3684,-2.3692,-2.3692,-2.3684,-2.3692,-2.3692,-2.3667,-2.2937,-2.2791,0.0,0.0,-3.8202,-3.8202,0.0,0.0,0.0,0.0,0.0,0.0,0.0,0.0,0.0,0.0,0.0,0.0,0.0,0.0,0.0,0.0,0.0,0.0,0.0,0.0,0.0,0.0,0.0,0.0,-2.5693,0.0,-2.5693,-2.5693,-2.5693,-2.5693,-2.5693,-2.5693,-2.5693,-2.5693,-2.5693,-2.5693,-2.5693,-2.5693,-2.5693,-2.5693,-2.5693,-2.5742,-2.6052,-2.7115,-2.8588,-2.8912,-2.9715,-3.0713,-3.0982,-3.0814,-3.0465,-3.0261,-3.0306,-3.0397,-2.9897,-2.9623,-2.9495,-2.9504,-2.9394,-2.9214,-2.9314,-2.8371,-2.7243,-2.6937,-2.5738,-2.465,-2.4787,-2.4821,-2.4821,-2.4821,-2.4821,-2.4821,-2.4821,-2.4821,-2.4821,-2.4821,-2.4821,-2.4821,-2.4821,-2.4821,-2.4821,-2.4821,-2.4821,-2.4821,-2.4821,-2.4821,-2.4821,-2.4821,-2.4821,-2.477,-2.4633,-2.4624,-2.4453,-2.4059,-2.4042,-2.3931,-2.3727,-2.3718,-2.3718,-2.3718,-2.3718,-2.3718,-2.3718,-2.3682,-2.3682,-2.3709,-2.3461,-2.3409,-3.7271,-3.7515,0.0,-3.772,-3.7962,0.0,-3.8202,0.0,-3.8202,0.0,0.0,0.0,0.0,0.0,0.0,0.0,0.0,0.0,0.0,-3.0979,0.0,0.0,0.0,0.0,0.0,0.0,0.0,-2.6235,-2.5917,-2.5693,0.0,-2.5693,-2.5693,-2.5693,-2.5693,-2.5693,-2.5693,-2.5693,-2.5693,-2.5693,-2.5693,-2.5693,-2.5693,-2.5693,-2.5693,-2.5693,-2.5693,-2.6839,-2.868,-2.868,-2.9383,-3.0453,-3.1071,-3.0847,-3.0204,-3.0408,-3.0589,-3.0703,-3.0377,-3.0113,-2.9926,-3.0089,-2.9994,-2.9759,-2.978,-2.9137,-2.8177,-2.7353,-2.6254,-2.5302,-2.4932,-2.4821,-2.4821,-2.4821,-2.4821,-2.4821,-2.4821,-2.4821,-2.4821,-2.4821,-2.4821,-2.4821,-2.4821,-2.4821,-2.4821,-2.4821,-2.4821,-2.4821,-2.4821,-2.4821,-2.4821,-2.4821,-2.4821,-2.4821,-2.4821,-2.4821,-2.471,-2.4407,-2.439,-2.4333,-2.4085,-2.4076,-2.4076,-2.4076,-2.4076,-2.4076,-2.4076,-2.4093,-2.4093,-2.4076,-2.4076,-2.4076]},{"header":{"parameterUnit":"m.s-1","parameterCategory":1,"la1":30.6,"la2":29.2853,"lo1":-89.7004,"lo2":-87.6739,"dy":0.0162,"dx":0.0183,"nx":112,"ny":82,"refTime":"2024-04-28T18:00:00:Z","depth":0,"parameterNumber":3,"parameterNumberName":"V-component_of_WINDS"},"data":[0.0,0.0,0.0,0.0,0.0,0.0,0.0,0.0,0.0,0.0,0.0,0.0,0.0,0.0,0.0,0.0,0.0,0.0,0.0,0.0,0.0,0.0,0.0,0.0,0.0,0.0,0.0,0.0,0.0,0.0,0.0,0.0,0.0,0.0,0.0,0.0,0.0,0.0,0.0,0.0,0.0,0.0,0.0,0.0,0.0,0.0,0.0,0.0,0.0,0.0,0.0,0.0,0.0,0.0,0.0,0.0,0.0,0.0,0.0,0.0,0.0,0.0,0.0,0.0,0.0,0.0,0.0,0.0,0.0,0.0,0.0,0.0,0.0,0.0,0.0,0.0,0.0,0.0,0.0,0.0,0.0,0.0,0.0,0.0,0.0,0.0,0.0,0.0,0.0,0.0,1.4649,1.1372,0.9384,0.8452,0.8772,0.9083,0.8784,0.7565,0.0,0.0,0.0,0.0,0.0,0.0,0.0,0.0,0.0,0.0,0.0,0.0,0.0,0.0,0.0,0.0,0.0,0.0,0.0,0.0,0.0,0.0,0.0,0.0,0.0,0.0,0.0,0.0,0.0,0.0,0.0,0.0,0.0,0.0,0.0,0.0,0.0,0.0,0.0,0.0,0.0,0.0,0.0,0.0,0.0,0.0,0.0,0.0,0.0,0.0,0.0,0.0,0.0,0.0,0.0,0.0,0.0,0.0,0.0,0.0,0.0,0.0,0.0,0.0,0.0,0.0,0.0,0.0,0.0,0.0,0.0,0.0,0.0,0.0,0.0,0.0,0.0,0.0,0.0,0.0,0.0,0.0,0.0,0.0,0.0,0.0,0.0,0.0,0.0,0.0,0.0,0.0,0.0,0.0,0.0,0.0,0.0,0.0,0.0,0.0,0.0,0.0,0.0,0.0,1.4809,1.1903,0.9172,0.7782,0.8251,0.8261,0.8019,0.7616,0.0,0.0,0.0,0.0,0.0,0.0,0.0,0.0,0.0,0.0,0.0,0.0,0.0,0.0,0.0,0.0,0.0,0.0,0.0,0.0,0.0,0.0,0.0,0.0,0.0,0.0,0.0,0.0,0.0,0.0,0.0,0.0,0.0,0.0,0.0,0.0,0.0,0.0,0.0,0.0,0.0,0.0,0.0,0.0,0.0,0.0,0.0,0.0,0.0,0.0,0.0,0.0,0.0,0.0,0.0,0.0,0.0,0.0,0.0,0.0,0.0,0.0,0.0,0.0,0.0,0.0,0.0,0.0,0.0,0.0,0.0,0.0,0.0,0.0,0.0,0.0,0.0,0.0,0.0,0.0,0.0,0.0,0.0,0.0,0.0,0.0,0.0,0.0,0.0,0.0,0.0,0.0,0.0,0.0,0.0,0.0,0.0,0.0,0.0,0.0,0.0,0.0,0.0,1.4787,1.358,1.2037,0.9884,0.8535,0.8341,0.8375,0.8134,0.7434,0.7633,0.0,0.0,0.0,0.0,0.0,0.0,0.0,0.0,0.0,0.0,0.0,0.0,0.0,0.0,0.0,0.0,0.0,0.0,0.0,0.0,0.0,0.0,0.0,0.0,0.0,0.0,0.0,0.0,0.0,0.0,0.0,0.0,0.0,0.0,0.0,0.0,0.0,0.0,0.0,0.0,0.0,0.0,0.0,0.0,0.0,0.0,0.0,0.0,0.0,0.0,0.0,0.0,0.0,0.0,0.0,0.0,0.0,0.0,0.0,0.0,0.0,0.0,0.0,0.0,0.0,0.0,0.0,0.0,0.0,0.0,0.0,0.0,0.0,0.0,0.0,0.0,0.0,0.0,0.0,0.0,0.0,0.0,0.0,0.0,0.0,0.0,0.0,0.0,0.0,0.0,0.0,0.0,0.0,0.0,0.0,0.0,0.0,0.0,0.0,0.0,0.0,0.0,1.3943,1.2683,1.2299,1.0658,0.9361,0.8726,0.8627,0.823,0.7338,0.7534,0.0,0.0,0.0,0.0,0.0,0.0,0.0,0.0,0.0,0.0,0.0,0.0,0.0,0.0,0.0,0.0,0.0,0.0,0.0,0.0,0.0,0.0,0.0,0.0,0.0,0.0,0.0,0.0,0.0,0.0,0.0,0.0,0.0,0.0,0.0,0.0,0.0,0.0,0.0,0.0,0.0,0.0,0.0,0.0,0.0,0.0,0.0,0.0,0.0,0.0,0.0,0.0,0.0,0.0,0.0,0.0,0.0,0.0,0.0,0.0,0.0,0.0,0.0,0.0,0.0,0.0,0.0,0.0,0.0,0.0,0.0,0.0,0.0,0.0,0.0,0.0,0.0,0.0,0.0,0.0,0.0,0.0,0.0,0.0,0.0,0.0,0.0,0.0,0.0,0.0,0.0,0.0,0.0,0.0,0.0,0.0,0.0,0.0,0.0,0.0,0.0,0.0,1.4095,1.3077,1.3032,1.0947,0.9558,0.9509,0.863,0.7942,0.7596,0.7842,0.0,0.0,0.0,0.0,0.0,0.0,0.0,0.0,0.0,0.0,0.0,0.0,0.0,0.0,0.0,0.0,0.0,0.0,0.0,0.0,0.0,0.0,0.0,0.0,0.0,0.0,0.0,0.0,0.0,0.0,0.0,0.0,0.0,0.0,0.0,0.0,0.0,0.0,0.0,0.0,0.0,0.0,0.0,0.0,0.0,0.0,0.0,0.0,0.0,0.0,0.0,0.0,0.0,0.0,0.0,0.0,0.0,0.0,0.0,0.0,0.0,0.0,0.0,0.0,0.0,0.0,0.0,0.0,0.0,0.0,0.0,0.0,0.0,0.0,0.0,0.0,0.0,0.0,0.0,0.0,0.0,0.0,0.0,0.0,0.0,0.0,0.0,0.0,0.0,0.0,0.0,0.0,0.0,0.0,0.0,0.0,0.0,0.0,0.0,0.0,0.0,0.0,1.4327,1.3605,1.291,1.2044,1.1023,0.9706,0.9217,0.8676,0.7892,0.0,0.0,0.0,0.0,0.0,0.0,0.0,0.0,0.0,0.0,0.0,0.0,0.0,0.0,0.0,0.0,0.0,0.0,0.0,0.0,0.0,0.0,0.0,0.0,0.0,0.0,0.0,0.0,0.0,0.0,0.0,0.0,0.0,0.0,0.0,0.0,0.0,0.0,0.0,0.0,0.0,0.0,0.0,0.0,0.0,0.0,0.0,0.0,0.0,0.0,0.0,0.0,0.0,0.0,0.0,0.0,0.0,0.0,0.0,0.0,0.0,0.0,0.0,0.0,0.0,0.0,0.0,0.0,0.0,0.0,0.0,0.0,0.0,0.0,0.0,0.0,0.0,0.0,0.0,0.0,0.0,0.0,0.0,0.0,0.0,0.0,0.0,0.0,0.0,0.0,0.0,0.0,0.0,0.0,0.0,0.0,0.0,0.0,0.0,0.0,0.0,0.0,1.4739,1.4473,1.4004,1.327,1.2877,1.2145,1.0681,1.0288,0.9706,0.8676,0.0,0.0,0.0,0.0,0.0,0.0,0.0,0.0,0.0,0.0,0.0,0.0,0.0,0.0,0.0,0.0,0.0,0.0,0.0,0.0,0.0,0.0,0.0,0.0,0.0,0.0,0.0,0.0,0.0,0.0,0.0,0.0,0.0,0.0,0.0,0.0,0.0,0.0,0.0,0.0,0.0,0.0,0.0,0.0,0.0,0.0,0.0,0.0,0.0,0.0,0.0,0.0,0.0,0.0,0.0,0.0,0.0,0.0,0.0,0.0,0.0,0.0,0.0,0.0,0.0,0.0,0.0,0.0,0.0,0.0,0.0,0.0,0.0,0.0,0.0,0.0,0.0,0.0,0.0,0.0,0.0,0.0,0.0,0.0,0.0,0.0,0.0,0.0,0.0,0.0,0.0,0.0,0.0,0.0,0.0,0.0,0.0,0.0,0.0,0.0,0.0,0.0,1.4714,1.4467,1.4298,1.4298,1.3366,1.2732,1.2678,1.1804,1.0877,0.0,0.0,0.0,0.0,0.0,0.0,0.0,0.0,0.0,0.0,0.0,0.0,0.0,0.0,0.0,0.0,0.0,0.0,0.0,0.0,0.0,0.0,0.0,0.0,0.0,0.0,0.0,0.0,0.0,0.0,0.0,0.0,0.0,0.0,0.0,0.0,0.0,0.0,0.0,0.0,0.0,0.0,0.0,0.0,0.0,0.0,0.0,0.0,0.0,0.0,0.0,0.0,0.0,0.0,0.0,0.0,0.0,0.0,0.0,0.0,0.0,0.0,0.0,0.0,0.0,0.0,0.0,0.0,0.0,0.0,0.0,0.0,0.0,0.0,0.0,0.0,0.0,0.0,0.0,0.0,0.0,0.0,0.0,0.0,0.0,0.0,0.0,0.0,0.0,0.0,0.0,0.0,0.0,0.0,0.0,0.0,0.0,0.0,0.0,0.0,0.0,0.0,0.0,1.4443,1.4346,1.4298,1.4298,1.4004,1.3511,1.2775,1.2436,1.1712,1.0355,0.0,0.0,0.0,0.0,0.0,0.0,0.0,0.0,0.0,0.0,0.0,0.0,0.0,0.0,0.0,0.0,0.0,0.0,0.0,0.0,0.0,0.0,0.0,0.0,0.0,0.0,0.0,0.0,0.0,0.0,0.0,0.0,0.0,0.0,0.0,0.0,0.0,0.0,0.0,0.0,0.0,0.0,0.0,0.0,0.0,0.0,0.0,0.0,0.0,0.0,0.0,0.0,0.0,0.0,0.0,0.0,0.0,0.0,0.0,0.0,0.0,0.0,0.0,0.0,0.0,0.0,0.0,0.0,0.0,0.0,0.0,0.0,0.0,0.0,0.0,0.0,0.0,0.0,0.0,0.0,0.0,0.0,0.0,0.0,0.0,0.0,0.0,0.0,0.0,0.0,0.0,0.0,0.0,0.0,0.0,0.0,0.0,0.0,0.0,0.0,0.0,0.0,1.4382,1.4298,1.4298,1.4298,1.4208,1.3871,1.3232,1.3082,1.25,1.1292,0.0,0.0,0.0,0.0,0.0,0.0,0.0,0.0,0.0,0.0,0.0,0.0,0.0,0.0,0.0,0.0,0.0,0.0,0.0,0.0,0.0,0.0,0.0,0.0,0.0,0.0,0.0,0.0,0.0,0.0,0.0,0.0,0.0,0.0,0.0,0.0,0.0,0.0,0.0,0.0,0.0,0.0,0.0,0.0,0.0,0.0,0.0,0.0,0.0,0.0,0.0,0.0,0.0,0.0,0.0,0.0,0.0,0.0,0.0,0.0,0.0,0.0,0.0,0.0,0.0,0.0,0.0,0.0,0.0,0.0,0.0,0.0,0.0,0.0,0.0,0.0,0.0,0.0,0.0,0.0,0.0,0.0,0.0,0.0,0.0,0.0,0.0,0.0,0.0,0.0,0.0,0.0,0.0,0.0,0.0,0.0,0.0,0.0,0.0,0.0,0.0,0.0,1.4833,1.4544,1.4496,1.4472,1.413,1.3883,1.3883,1.3642,1.3201,1.2467,0.0,0.0,0.0,0.0,0.0,0.0,0.0,0.0,0.0,0.0,0.0,0.0,0.0,0.0,0.0,0.0,0.0,0.0,0.0,0.0,0.0,0.0,0.0,0.0,0.0,0.0,0.0,0.0,0.0,0.0,0.0,0.0,0.0,0.0,0.0,0.0,0.0,0.0,0.0,0.0,0.0,0.0,0.0,0.0,0.0,0.0,0.0,0.0,0.0,0.0,0.0,0.0,0.0,0.0,0.0,0.0,0.0,0.0,0.0,0.0,2.4761,0.0,0.0,0.0,0.0,0.0,0.0,0.0,0.0,0.0,0.0,0.0,0.0,0.0,0.0,0.0,0.0,0.0,0.0,0.0,0.0,0.0,0.0,0.0,0.0,0.0,0.0,0.0,0.0,0.0,0.0,0.0,0.0,0.0,0.0,0.0,0.0,0.0,0.0,0.0,0.0,0.0,1.7402,1.6449,1.5736,1.5641,1.4618,1.3786,1.3588,1.3539,1.3201,1.2467,1.2515,0.0,0.0,0.0,0.0,0.0,0.0,0.0,0.0,0.0,0.0,0.0,0.0,0.0,0.0,0.0,0.0,0.0,0.0,0.0,0.0,0.0,0.0,0.0,0.0,0.0,0.0,0.0,0.0,0.0,0.0,0.0,0.0,0.0,0.0,0.0,0.0,0.0,0.0,0.0,0.0,0.0,0.0,0.0,0.0,0.0,0.0,0.0,0.0,0.0,0.0,0.0,0.0,0.0,0.0,0.0,0.0,0.0,0.0,0.0,0.0,2.5658,0.0,0.0,0.0,0.0,0.0,0.0,0.0,0.0,0.0,0.0,0.0,0.0,0.0,0.0,0.0,0.0,0.0,0.0,0.0,0.0,0.0,0.0,0.0,0.0,0.0,0.0,0.0,0.0,0.0,0.0,0.0,0.0,0.0,0.0,0.0,0.0,0.0,0.0,0.0,0.0,1.8199,1.7478,1.7019,1.6954,1.5797,1.4949,1.4806,1.4244,1.3727,1.3335,1.3545,0.0,0.0,0.0,0.0,0.0,0.0,0.0,0.0,0.0,0.0,0.0,0.0,0.0,0.0,0.0,0.0,0.0,0.0,0.0,0.0,0.0,0.0,0.0,0.0,0.0,0.0,0.0,0.0,0.0,0.0,0.0,0.0,0.0,0.0,0.0,0.0,0.0,0.0,0.0,0.0,0.0,0.0,0.0,0.0,0.0,0.0,0.0,0.0,0.0,0.0,0.0,0.0,0.0,2.8484,2.8484,2.8391,2.8484,2.8333,2.8111,2.8158,2.8145,2.7914,2.7342,0.0,0.0,0.0,0.0,0.0,0.0,0.0,0.0,0.0,0.0,0.0,0.0,0.0,0.0,0.0,0.0,0.0,0.0,0.0,0.0,0.0,0.0,0.0,0.0,2.63,2.5724,2.3595,0.0,0.0,0.0,0.0,0.0,0.0,0.0,0.0,0.0,0.0,0.0,1.8845,1.8442,1.8241,1.8249,1.7131,1.6391,1.6344,1.5229,1.458,1.458,1.4795,1.4967,0.0,0.0,0.0,0.0,0.0,0.0,0.0,0.0,0.0,0.0,0.0,0.0,0.0,0.0,0.0,0.0,0.0,0.0,0.0,0.0,0.0,0.0,0.0,0.0,0.0,0.0,0.0,0.0,0.0,0.0,0.0,0.0,2.9269,2.8525,0.0,0.0,0.0,0.0,0.0,0.0,0.0,0.0,0.0,0.0,0.0,0.0,0.0,2.7934,2.8712,2.9375,2.975,2.9932,3.0767,3.0869,3.0238,3.0656,3.0701,3.0431,3.0045,0.0,2.7098,2.7748,0.0,0.0,0.0,0.0,0.0,0.0,0.0,0.0,0.0,0.0,0.0,0.0,0.0,0.0,0.0,0.0,0.0,0.0,0.0,0.0,0.0,0.0,2.5716,2.5791,2.578,2.5622,0.0,2.4483,2.4033,2.3563,2.285,0.0,0.0,0.0,0.0,0.0,0.0,0.0,2.1412,2.0188,1.9269,1.9138,1.792,1.7055,1.6854,1.6069,1.5609,1.5609,1.485,1.4497,1.4743,1.4792,0.0,0.0,0.0,0.0,0.0,0.0,0.0,0.0,0.0,0.0,0.0,0.0,0.0,0.0,0.0,0.0,0.0,0.0,0.0,0.0,0.0,0.0,0.0,0.0,0.0,0.0,0.0,0.0,0.0,3.0024,2.9735,2.9371,2.9656,2.9769,0.0,0.0,0.0,0.0,0.0,0.0,0.0,0.0,0.0,2.9684,2.9221,2.9425,3.0376,3.0587,3.0853,3.1048,3.1472,3.1528,3.1217,3.1439,3.1439,3.135,3.1116,3.0324,2.9105,2.8672,2.7947,2.7152,0.0,0.0,0.0,0.0,2.6249,2.6648,2.7148,2.741,2.7458,2.7373,0.0,0.0,0.0,0.0,0.0,0.0,0.0,0.0,0.0,0.0,2.6621,2.6933,2.7009,2.6877,2.6405,2.5669,2.4962,0.0,2.3389,2.271,2.253,0.0,0.0,0.0,0.0,2.167,2.1617,2.0977,2.0471,2.0288,1.9236,1.8503,1.8357,1.749,1.6926,1.6926,1.644,1.6211,1.6301,1.6354,1.6445,0.0,0.0,0.0,0.0,0.0,0.0,0.0,0.0,0.0,0.0,0.0,0.0,0.0,0.0,0.0,0.0,0.0,0.0,0.0,0.0,0.0,0.0,0.0,0.0,0.0,0.0,0.0,0.0,3.0267,3.0537,2.9719,3.0662,3.0935,0.0,0.0,0.0,0.0,0.0,0.0,2.9209,2.9192,2.9596,3.0502,3.0313,3.0708,3.1706,3.1559,3.1593,3.1761,3.1761,3.1761,3.1705,3.1705,3.1705,3.1705,3.1528,3.1256,3.0803,2.9806,2.8951,2.8237,2.7778,2.7467,2.7243,2.6909,2.7081,2.7515,2.8038,2.8233,2.8269,2.8362,2.8229,2.7821,2.6946,0.0,0.0,0.0,0.0,2.5778,2.6756,2.702,2.7138,2.7611,2.771,2.7595,2.727,2.6475,2.561,0.0,2.4092,2.3444,2.3444,0.0,0.0,0.0,0.0,2.1571,2.1446,2.1302,2.1159,2.0961,2.018,1.9624,1.9624,1.8604,1.7995,1.8032,1.7707,1.7573,1.7609,1.7609,1.7609,1.7609,0.0,0.0,0.0,0.0,0.0,0.0,0.0,0.0,0.0,0.0,0.0,0.0,0.0,0.0,0.0,0.0,0.0,0.0,0.0,0.0,0.0,0.0,0.0,0.0,0.0,0.0,0.0,0.0,0.0,2.8651,3.0893,0.0,0.0,0.0,0.0,2.9715,3.0311,3.064,3.0226,2.9677,2.9915,3.1009,3.1046,3.1455,3.2339,3.2351,3.2232,3.1981,3.1981,3.1893,3.1705,3.1705,3.1705,3.1661,3.1172,3.0925,3.0902,3.1116,3.0305,2.9031,2.8811,2.8166,2.7424,2.7588,2.7841,2.8123,2.8593,2.8896,2.9082,2.9347,2.8785,2.7903,2.7312,2.647,0.0,0.0,2.6451,2.626,2.7078,2.6945,2.6712,2.6896,2.6978,2.7008,2.7149,2.6475,2.5788,0.0,2.5031,2.4413,2.4413,0.0,2.3096,2.3052,2.2122,2.1392,2.1392,2.1024,2.0744,2.0699,2.0332,2.0078,2.0078,1.9053,1.843,1.8629,1.7806,1.7406,1.7609,1.7609,1.7609,1.7609,1.7609,0.0,0.0,0.0,0.0,0.0,0.0,0.0,0.0,0.0,0.0,0.0,0.0,0.0,0.0,0.0,0.0,0.0,0.0,0.0,0.0,0.0,0.0,0.0,0.0,0.0,0.0,0.0,0.0,3.1716,3.2587,0.0,3.1703,3.26,3.2405,3.0396,3.0666,3.0435,2.9386,2.9601,3.0112,3.0865,3.1068,3.1467,3.2157,3.2025,3.1893,3.1805,3.1805,3.1749,3.1705,3.1705,3.1705,3.1705,3.1484,3.1395,3.1439,3.1528,3.0859,2.9821,3.005,2.9971,2.9598,2.9376,2.9534,2.9873,2.9738,2.9466,2.9049,2.8656,2.831,2.7944,2.7778,2.7272,2.6791,2.7062,2.6892,2.6682,2.6956,2.6903,2.6809,2.6891,2.6891,2.6933,2.6974,2.6839,2.6704,2.6704,2.5966,2.5326,2.5326,2.4935,2.4425,2.3833,2.328,2.2677,2.1935,2.1713,2.1311,2.0518,2.0307,2.0135,1.9849,1.9376,1.905,1.8844,1.8562,1.8417,1.8499,1.8851,1.9096,1.9096,1.9381,1.967,0.0,0.0,0.0,0.0,0.0,0.0,0.0,0.0,0.0,0.0,0.0,0.0,0.0,0.0,0.0,0.0,0.0,0.0,0.0,0.0,0.0,0.0,0.0,0.0,0.0,3.3951,3.4179,3.3342,3.4113,3.4326,3.3369,3.4126,3.3874,3.1857,3.1899,3.1508,3.0331,3.0385,3.0581,3.1023,3.1211,3.149,3.1893,3.1761,3.1705,3.1705,3.1705,3.1705,3.1705,3.1705,3.1705,3.1705,3.1705,3.1705,3.1705,3.1705,3.1306,3.0701,3.0672,3.0646,3.0589,3.0003,2.9978,3.0199,2.9978,2.9702,2.9288,2.8545,2.8428,2.8479,2.8222,2.7947,2.7671,2.763,2.7419,2.7208,2.7126,2.7044,2.7044,2.7156,2.7196,2.7249,2.7412,2.7505,2.7545,2.7626,2.6899,2.6268,2.6268,2.583,2.5274,2.4681,2.4092,2.341,2.2668,2.2359,2.1872,2.1078,2.0748,2.0402,1.9973,1.9765,1.9465,1.9038,1.8979,1.8977,1.9002,1.9499,1.9814,1.9814,2.0333,2.0586,2.0549,0.0,0.0,0.0,0.0,0.0,0.0,0.0,0.0,0.0,0.0,0.0,0.0,0.0,0.0,0.0,0.0,0.0,0.0,0.0,0.0,0.0,0.0,0.0,3.3655,3.5448,3.5972,3.3264,3.5331,3.5944,3.3198,3.5398,3.6152,3.4086,3.41,3.3913,3.3238,3.2097,3.1497,3.157,3.1552,3.1583,3.1713,3.1669,3.1657,3.1657,3.1657,3.1657,3.1657,3.1657,3.1657,3.1657,3.1657,3.1657,3.1657,3.1657,3.1657,3.1577,3.0628,3.022,3.0149,2.9351,2.9067,2.9098,2.9258,2.9628,2.9858,2.9148,2.9215,2.9432,2.8707,2.851,2.8471,2.8259,2.8035,2.777,2.7592,2.7389,2.7336,2.773,2.7799,2.7943,2.8379,2.8299,2.8259,2.8431,2.7788,2.7231,2.7231,2.631,2.5568,2.5568,2.4478,0.0,2.3584,2.2965,2.2482,2.2438,2.1714,2.1049,2.0517,2.0161,1.9769,1.9309,1.9094,1.8968,1.9011,1.9411,1.9638,1.9678,2.0323,2.0654,2.0664,0.0,0.0,0.0,0.0,0.0,0.0,0.0,0.0,0.0,0.0,0.0,0.0,0.0,0.0,0.0,0.0,0.0,0.0,0.0,0.0,0.0,3.6749,3.6766,3.6048,3.654,3.6696,3.5944,3.6535,3.6682,3.5944,3.6535,3.6362,3.4736,3.4656,3.4191,3.2974,3.3117,3.3204,3.3238,3.2581,3.224,3.2294,3.1113,3.0518,3.0518,3.0518,3.0518,3.0518,3.0518,3.0518,3.0518,3.0518,3.0518,3.0518,3.0518,3.0518,3.0579,3.1073,3.1141,3.0922,3.068,3.0453,3.0181,2.9658,2.9608,2.9605,2.8855,2.8687,2.8771,2.8558,2.851,2.8471,2.8419,2.8379,2.8287,2.8219,2.7914,2.7649,2.7758,2.7701,2.7632,2.7765,2.7857,2.8002,2.8042,2.799,2.7978,2.8111,2.758,2.718,2.718,2.6618,0.0,2.5241,2.4978,2.4288,2.2785,2.2587,2.2318,2.1693,2.1409,2.1296,2.1362,2.0761,2.0198,1.9648,2.0235,2.0741,2.1175,2.1603,2.1998,0.0,0.0,0.0,0.0,0.0,0.0,0.0,0.0,0.0,0.0,0.0,0.0,0.0,0.0,0.0,0.0,0.0,0.0,0.0,0.0,0.0,0.0,3.6978,3.6978,3.6978,3.6978,3.6978,3.6978,3.6978,3.6978,3.6978,3.6978,3.6668,3.5825,3.5523,3.5018,3.4192,3.4047,3.3953,3.3859,3.3333,3.298,3.2885,3.2189,3.1872,3.1872,3.1872,3.1872,3.1818,3.123,3.1297,3.1818,3.123,3.1297,3.1872,3.1872,3.1497,0.0,0.0,0.0,0.0,0.0,3.0503,3.0282,2.9828,2.9677,2.9628,2.9162,2.9025,2.9025,2.9025,2.9025,2.9025,2.9025,2.8973,2.8882,2.8882,2.8593,2.8343,2.8343,2.8275,2.8167,2.8167,2.8219,2.8311,2.8391,2.8419,0.0,2.8697,2.8327,2.7983,2.7983,2.7661,2.7232,2.6707,2.6461,2.5859,2.466,2.4426,2.4152,2.3654,2.3368,0.0,0.0,0.0,2.193,2.1377,2.1978,0.0,0.0,0.0,2.3662,2.3995,0.0,0.0,0.0,2.431,2.4796,0.0,0.0,0.0,0.0,0.0,0.0,0.0,0.0,0.0,0.0,0.0,0.0,0.0,0.0,0.0,0.0,3.6978,3.6978,3.6978,3.6978,3.6978,3.6978,3.6978,3.6978,3.6978,3.6978,3.6978,3.6978,3.6413,3.6015,3.6015,0.0,0.0,0.0,0.0,3.3661,3.3513,3.3878,3.4086,3.4151,3.4192,3.4192,3.4138,3.2902,3.2982,3.4042,3.2807,3.2995,3.411,3.411,3.3449,3.2227,3.0812,3.0367,3.0418,3.0276,3.014,3.0049,3.0049,0.0,0.0,3.0049,3.0049,3.0049,3.0049,3.0049,3.0049,3.0049,2.9831,2.9639,2.9639,2.9419,2.9236,2.9314,2.9209,2.9091,2.917,2.8961,2.8803,2.9013,2.8922,2.8882,2.9052,2.8618,2.8247,2.8247,2.8063,2.7891,2.7891,2.7557,2.7232,2.7098,0.0,0.0,2.5909,2.5525,2.5216,2.4925,2.4287,2.3814,2.3562,2.397,2.4287,2.4536,2.5068,2.5472,2.5727,2.5804,2.6507,2.766,2.6206,2.6064,0.0,0.0,0.0,0.0,0.0,0.0,0.0,0.0,0.0,0.0,0.0,0.0,0.0,0.0,0.0,3.6978,3.6978,3.6978,3.6978,3.6978,3.6978,3.6978,3.6978,3.6978,3.6978,3.6978,3.6978,3.6978,3.6452,3.6095,3.6095,3.5545,3.5209,3.5171,3.4008,3.3628,3.4118,3.3073,3.2777,3.3344,0.0,0.0,3.3344,3.3225,3.3159,3.3066,3.2948,3.2975,3.3079,3.3079,3.3289,3.3417,3.1942,3.1875,3.2542,3.2275,3.192,3.1649,3.1649,3.1649,3.1649,3.1649,3.1649,3.1649,3.1649,3.1539,0.0,3.1405,3.1244,3.1095,3.1095,3.0582,3.0177,3.0658,2.9781,2.8988,2.9484,2.9028,2.8578,2.863,2.8736,2.8791,2.8843,2.8764,2.8685,2.8685,2.8486,2.8379,2.8379,2.8435,2.8131,2.7197,2.7331,2.7371,2.7093,2.683,2.6932,2.7355,2.5796,2.4764,2.4531,2.4312,2.4558,2.5279,2.5984,2.6597,2.71,2.7704,2.8379,2.9012,2.7849,2.7873,0.0,0.0,0.0,0.0,0.0,0.0,0.0,0.0,0.0,0.0,0.0,3.6733,3.7796,0.0,3.6875,3.7519,3.725,3.6978,3.6978,3.6978,3.6978,3.6978,3.6978,3.6978,3.6978,3.675,3.6567,3.6567,3.5991,3.5653,3.5653,3.5136,3.4848,3.4848,3.4133,3.4112,3.4887,3.4386,3.4484,3.5203,3.5203,3.5164,3.5047,3.4423,3.445,3.4878,3.4253,3.4411,3.4995,3.4292,3.4639,3.5444,3.3913,3.3317,3.3324,3.3145,3.2661,3.211,3.211,3.211,3.211,3.211,3.211,3.211,3.211,3.2051,3.1942,3.1833,3.1723,3.1613,3.1553,3.1206,3.0959,3.1145,3.0582,3.005,3.0266,2.9999,2.9588,2.9184,2.9172,2.925,2.925,2.925,2.9172,2.8961,2.8961,2.8934,2.8816,2.8895,2.8752,2.8159,2.8211,2.8291,2.8239,2.8171,2.8195,2.8439,2.7501,2.6827,2.6543,2.6519,2.662,2.6901,2.7548,2.8045,2.8429,2.8816,2.9196,2.9599,2.9042,2.9105,0.0,0.0,0.0,0.0,0.0,0.0,0.0,0.0,3.7981,3.888,3.7581,3.682,3.8684,3.782,3.7147,3.8234,3.7886,3.7347,3.708,3.7028,3.6947,3.668,3.6838,3.6936,3.6824,3.6399,3.6061,3.5934,3.5358,3.5006,3.5006,3.4393,3.4076,3.4203,3.4203,3.4663,3.5668,3.6052,3.6618,3.7419,3.7289,3.7211,3.7134,3.6045,3.6139,3.7028,3.5928,3.6153,3.726,3.6147,3.6361,3.7285,3.5978,3.4934,3.4181,3.3982,3.341,3.2707,3.2596,3.2555,3.2555,3.2555,3.2555,3.2555,3.2555,3.2519,3.2448,3.2304,3.2196,3.2101,3.1955,3.1773,3.1663,3.164,3.1418,3.1182,3.1156,3.1007,3.0707,3.0075,2.9922,2.9922,2.9922,2.9961,2.9858,2.9496,2.96,2.9561,2.9275,2.9236,2.9197,2.9052,2.8922,2.8922,2.9091,2.9091,2.9013,2.8882,2.8843,2.8687,2.8415,2.8612,2.8648,2.8415,2.8831,2.9157,2.9419,2.9419,2.956,2.9792,2.9792,2.9792,3.809,3.9029,3.9706,3.9783,3.9954,4.0078,0.0,0.0,3.8356,3.8266,3.747,3.709,3.7985,3.8103,3.8311,3.9071,3.9103,3.8604,3.7353,3.717,3.6747,3.5531,3.6356,3.6768,3.6258,3.6145,3.5878,3.533,3.4688,3.4301,3.4301,3.3712,3.3641,3.4175,3.4203,3.4874,3.6306,3.6541,3.7048,3.7815,3.7991,3.7991,3.7815,3.7829,3.7715,3.7534,3.7386,3.74,3.7572,3.7386,3.7515,3.7801,3.7615,3.7162,3.6496,3.5756,3.5282,3.4946,3.4349,3.4128,3.4128,3.4128,3.4128,3.4128,3.4128,3.4011,3.3874,3.3839,3.3646,3.3382,3.3382,3.2824,3.2417,3.2945,3.2128,3.1331,3.1856,3.1415,3.0882,3.0782,3.0782,3.0782,3.0782,3.0908,3.0959,3.0707,3.0707,3.0481,2.9742,2.9793,2.9613,2.891,2.8961,2.9091,2.9091,2.9091,2.9091,2.9052,2.8882,2.8767,2.8758,2.8621,2.8593,2.8745,2.8806,2.9028,2.9419,2.9419,2.956,2.9792,2.9792,2.9792,3.8005,3.8439,3.8811,0.0,3.9457,3.9806,3.9675,3.9061,3.8631,3.9108,3.8193,3.7714,3.91,3.8913,3.8811,0.0,3.9412,3.8669,3.7397,3.7201,3.6691,3.537,3.5653,3.585,3.5597,3.5208,3.4899,3.4632,3.4343,3.4203,3.4203,3.4337,3.4506,3.4759,3.4773,3.5305,3.6405,3.6495,3.6921,3.7739,3.7801,3.7801,3.7739,3.7801,3.7687,3.7419,3.7663,3.7701,3.7625,3.7739,3.7815,3.7891,3.7777,3.7658,3.7388,3.6403,3.5711,3.5146,3.4598,3.4414,3.4414,3.4414,3.4414,3.4414,3.4414,3.4346,3.423,3.4128,3.3937,3.3744,3.364,3.3276,3.298,3.3241,3.2838,3.2503,3.2739,3.2511,3.2173,3.1673,3.1599,3.1599,3.1599,3.1673,3.1833,3.2259,3.1686,3.1044,3.0481,3.0279,2.9883,2.904,2.9052,2.9091,2.9091,2.9091,2.9091,2.9091,2.8922,2.8831,2.8961,2.9223,2.9484,2.9678,3.0114,3.0456,3.0607,3.0607,3.052,3.0266,3.0759,3.0784,3.8144,3.827,0.0,3.8488,3.8934,3.9349,3.9263,3.8914,3.8731,3.9301,3.8629,3.8375,3.9763,3.9588,3.9501,4.0378,4.0065,3.9279,3.8017,3.751,3.6837,3.5658,3.5181,3.5006,3.5175,3.4745,3.4492,3.4564,3.4492,3.4492,3.4564,3.495,3.5273,3.5442,3.5442,3.5813,3.6623,3.6637,3.6978,3.7625,3.7663,3.7701,3.7687,3.7725,3.7649,3.7495,3.7853,3.7877,3.7763,3.7915,3.7967,3.7967,3.7801,3.7801,3.78,3.6888,3.6078,3.5321,3.4636,3.4346,3.4346,3.438,3.4346,3.4346,3.438,3.4414,3.438,3.423,3.4074,3.3917,3.3779,3.3591,3.3466,3.3396,3.3396,3.3361,3.3326,3.329,3.3122,3.2547,3.2426,3.2426,3.2426,3.2426,3.2618,3.3206,3.2596,3.1869,3.1378,3.0895,3.0418,2.9819,2.9755,2.9755,2.9755,2.9755,2.9793,2.9832,2.9665,2.9626,2.9832,3.0228,3.0481,3.0645,3.1193,3.1539,3.1576,3.1576,3.1392,3.1007,3.1613,3.1636,3.8909,3.9152,3.9428,3.8925,3.9056,3.9224,3.8892,3.8782,3.8632,3.8094,3.8435,3.8973,3.9267,3.9991,4.07,4.118,4.1423,4.1023,3.9624,3.8292,3.7183,3.6364,3.5074,3.4506,0.0,3.5175,3.5235,3.5469,3.5272,3.5235,3.5469,3.53,3.547,3.6061,3.6075,3.6461,3.726,3.7275,3.7366,3.7625,3.7815,3.7891,3.7891,3.8104,3.8066,3.7891,3.8104,3.8202,3.8165,3.8202,3.8202,3.8202,3.8165,3.8066,3.7857,3.7446,3.6852,3.6098,3.4849,3.4264,3.4128,3.4346,3.4264,3.4162,3.4346,3.4414,3.4414,3.438,3.423,3.4094,3.4094,3.3971,3.3827,3.364,3.3605,3.3536,3.3361,3.329,3.329,3.329,3.3241,3.3241,3.3241,3.3241,3.3276,3.329,3.3431,3.3262,3.2448,3.1842,3.1462,3.1426,3.1426,3.1426,3.1426,3.1426,3.1513,3.1723,3.1549,3.1513,3.1723,3.1549,3.1462,3.1462,3.1499,3.1586,3.1796,3.1796,3.1869,3.2037,3.2074,3.2074,3.9783,3.9927,3.9977,3.9671,3.9688,3.9653,3.9228,3.8958,3.8694,3.8319,3.8964,3.9559,3.9361,4.0272,4.1122,4.1276,4.1357,4.0957,3.9691,3.9097,3.8217,3.6514,3.587,0.0,0.0,0.0,0.0,3.5498,3.5681,3.5869,3.6108,3.6302,3.6511,3.6708,3.6722,3.6821,3.7109,3.7226,3.7341,3.738,3.7625,3.7777,3.7891,3.7967,3.7967,3.7891,3.8104,3.8052,3.7839,3.8089,3.8127,3.7991,3.8127,3.8179,3.8032,3.7498,3.6881,3.6185,3.5328,3.4728,3.4312,3.438,3.4346,3.4312,3.438,3.4414,3.4414,3.4414,3.4264,3.4094,3.4094,3.3902,3.3675,3.3605,3.3501,3.3396,3.3326,3.329,3.329,3.329,3.329,3.329,3.329,3.329,3.329,3.329,3.3361,3.3206,3.2654,3.2318,3.1978,3.1746,3.1709,3.1746,3.1892,3.1783,3.1709,3.1796,3.1623,3.1536,3.1586,3.2051,3.2318,3.2318,3.2832,3.3129,3.3178,3.3178,3.3023,3.2725,3.3185,3.315,4.0614,4.0662,4.0662,4.0358,4.0153,3.9919,3.9618,3.9265,3.8876,3.8476,3.932,3.9968,3.9393,4.0445,4.139,4.1323,4.1357,4.115,4.0349,3.982,3.9084,3.7938,3.7364,3.7069,0.0,0.0,0.0,3.6336,3.6519,3.6708,3.6822,3.7013,3.707,3.6978,3.6978,3.6978,3.6978,3.7148,3.7226,3.7303,3.7419,3.7572,3.7701,3.7815,3.7853,3.7815,3.8104,3.8052,3.7839,3.8028,3.8028,3.7891,3.8028,3.8104,3.8046,3.7744,3.707,3.6214,3.5625,3.4902,3.4312,3.438,3.4346,3.4312,3.438,3.4414,3.4414,3.4414,3.4312,3.4196,3.4128,3.3922,3.373,3.364,3.3501,3.3396,3.3326,3.329,3.329,3.329,3.329,3.329,3.329,3.329,3.329,3.329,3.329,3.3241,3.3051,3.2966,3.2846,3.2583,3.2605,3.2662,3.2804,3.2769,3.2747,3.2747,3.2613,3.2528,3.2528,3.303,3.3304,3.3304,3.3833,3.4088,3.4088,3.4088,3.3833,3.3409,3.3942,3.3888,4.1391,4.1396,4.1445,4.0949,4.0449,4.0078,4.0053,3.9696,3.9202,3.8628,3.9522,4.024,0.0,0.0,4.1555,4.1357,4.1489,4.1588,4.1621,4.048,3.9825,0.0,0.0,0.0,0.0,0.0,0.0,3.8005,0.0,3.7625,3.7625,3.7419,3.7226,3.7017,3.6978,3.6978,3.6978,3.6978,3.7109,3.7264,3.7264,3.7303,3.7303,3.7701,3.7777,3.7625,3.8014,3.8165,3.8165,3.7967,3.7891,3.7891,3.7891,3.7891,3.7929,3.8089,3.7418,3.6272,3.5668,3.4862,3.4162,3.4346,3.4264,3.4162,3.4346,3.4414,3.4414,3.4414,3.4414,3.4346,3.4162,3.4094,3.3991,3.3709,3.3605,3.3536,3.3361,3.329,3.329,3.329,3.329,3.329,3.329,3.329,3.329,3.329,3.329,3.3361,3.357,3.3744,3.3862,3.3896,3.4005,3.4094,3.4094,3.4264,3.4414,3.4414,3.4414,3.4414,3.4414,3.4414,3.4414,3.4414,3.4414,3.4414,3.4414,3.4414,3.4312,3.4128,3.4312,3.421,4.2061,4.2061,4.198,4.1468,4.1225,4.1042,4.0666,4.0514,4.0302,3.9902,4.0463,4.0869,4.041,4.1023,0.0,4.1522,4.1555,0.0,4.1784,4.1528,0.0,4.069,0.0,4.0125,3.9591,3.9124,0.0,0.0,3.8113,3.7625,3.7625,3.7419,3.7226,3.7017,3.6978,3.6978,3.6978,3.6978,3.7017,3.707,3.707,3.7148,3.7303,3.7419,3.7495,3.7625,3.7725,3.7763,3.7763,3.7701,3.7701,3.7701,3.7701,3.7777,3.7891,3.7967,3.7575,3.6954,3.6301,3.5308,3.4346,3.438,3.438,3.4346,3.438,3.4414,3.4414,3.4414,3.4414,3.438,3.4346,3.4142,3.3917,3.3848,3.3605,3.3361,3.3326,3.329,3.329,3.329,3.329,3.329,3.329,3.329,3.329,3.329,3.329,3.3326,3.3361,3.3431,3.3501,3.364,3.3848,3.3971,3.4094,3.4264,3.4414,3.4414,3.4414,3.4414,3.4414,3.4414,3.4414,3.4414,3.4414,3.4414,3.4414,3.4414,3.438,3.4312,3.438,3.4278,4.2308,4.2308,4.2246,4.1938,4.1666,4.1428,4.1174,4.0855,4.0546,4.0243,4.0742,4.1099,4.0649,4.1258,4.1785,0.0,0.0,0.0,4.1866,4.1898,4.1703,0.0,4.1258,0.0,4.0447,4.0154,3.9824,0.0,3.8397,3.7839,3.7739,3.7534,3.7341,3.7148,3.707,3.6978,3.6978,3.6978,3.7017,3.7148,3.7148,3.7226,3.7419,3.7419,3.7495,3.7625,0.0,3.7625,3.7586,3.7495,3.7457,3.7457,3.7457,3.7534,3.7663,3.7739,3.7465,3.6944,3.6389,3.5522,3.4654,3.4467,3.4414,3.4414,3.4414,3.4414,3.4414,3.4414,3.4414,3.438,3.4312,3.4142,3.3951,3.3813,3.3605,3.3396,3.3326,3.329,3.329,3.329,3.329,3.329,3.329,3.329,3.329,3.329,3.329,3.329,3.329,3.329,3.3361,3.3466,3.3709,3.3882,3.3868,3.4108,3.4264,3.4264,3.4264,3.4312,3.4414,3.4414,3.4414,3.4414,3.4414,3.4414,3.4414,3.4414,3.4312,3.4191,3.4244,3.4094,4.2308,4.2308,4.2308,4.2308,4.1959,4.16,4.16,4.1111,4.0594,4.0358,4.0908,4.1241,4.0697,4.1383,4.1996,4.1898,0.0,4.1914,4.1931,4.1931,4.185,4.1687,4.185,4.1736,4.1209,4.1276,4.0842,3.9697,3.8826,3.8202,3.7929,3.7739,3.7534,3.7341,3.7187,3.707,3.707,3.707,3.7187,3.7341,3.7341,3.7419,3.7625,3.7586,3.7572,3.7572,3.7534,3.7534,3.7534,3.7341,3.7264,3.7303,3.7264,3.7264,3.7303,3.7495,3.7244,3.6762,3.6251,3.5705,3.5121,3.4578,3.4414,3.4414,3.4414,3.4414,3.4414,3.4414,3.4414,3.4346,3.4196,3.4128,3.4025,3.3744,3.364,3.3605,3.3431,3.3361,3.3361,3.3361,3.3326,3.329,3.329,3.329,3.329,3.329,3.329,3.329,3.329,3.329,3.329,3.329,3.364,3.3793,3.3605,3.3902,3.4059,3.4059,3.4094,3.4162,3.4346,3.4346,3.4346,3.4346,3.4346,3.4346,3.4346,3.4346,3.4191,3.3896,3.4005,3.3833,4.2308,4.2308,4.2308,4.2308,4.2228,4.2166,4.2166,4.2065,0.0,4.1899,4.1881,4.1866,4.1741,4.1685,4.1687,4.167,4.1784,4.1931,4.2061,4.2061,4.2045,0.0,4.219,4.2222,4.1948,4.164,0.0,0.0,3.9859,3.8767,3.7929,3.7853,3.7777,3.7534,3.7495,3.7495,3.7495,3.7495,3.7495,3.7534,3.7534,3.7586,3.7586,3.7419,3.7341,3.7341,3.7187,0.0,3.7341,3.7148,3.7148,3.7264,3.7109,3.7148,3.7303,3.7341,3.74,3.7368,3.6776,3.6257,3.5669,3.4723,3.4414,3.4414,3.4414,3.4414,3.4414,3.4414,3.4414,3.438,3.4346,3.423,3.4094,3.4025,3.3937,3.3827,3.3793,3.3675,3.3536,3.3536,3.3396,3.329,3.329,3.329,3.329,3.329,3.329,3.329,3.329,3.329,3.329,3.329,3.3501,3.364,3.3605,3.3813,3.3917,3.3917,3.404,3.4128,3.4162,3.4162,3.4162,3.4162,3.404,3.4,3.4,3.4,3.3965,3.3896,3.3917,3.3937,4.2308,4.2308,4.2308,4.2308,4.2308,4.2308,4.2308,0.0,0.0,4.2082,4.2351,4.2517,4.2353,4.2356,4.2349,4.2253,4.2093,4.2012,4.2012,4.2061,4.2077,4.1996,4.2158,4.2238,4.2254,4.2158,4.19,4.1525,4.0826,3.9894,3.8694,3.8179,3.7815,3.7625,3.7625,3.7625,3.7625,3.7625,3.7663,3.7777,3.7777,3.7801,3.7915,3.7687,3.7625,3.7625,3.7303,3.7226,3.7264,3.707,3.707,3.7148,3.7017,3.707,3.7148,3.7148,3.7187,3.7218,3.6708,3.6231,3.569,3.4879,3.4519,3.4414,3.4414,3.4414,3.4414,3.4414,3.4414,3.4414,3.4414,3.423,3.4094,3.4094,3.4005,3.3896,3.3896,3.3744,3.3605,3.3605,3.3431,3.329,3.329,3.329,3.329,3.329,3.329,3.329,3.329,3.329,3.329,3.329,3.3466,3.357,3.3466,3.364,3.3744,3.3744,3.3813,3.3937,3.4094,3.4196,3.4264,3.4264,3.4176,3.4225,3.4327,3.4225,3.4225,3.4327,3.4327,3.4293,4.2308,4.2308,4.2308,4.2308,4.2308,4.2308,4.2308,4.2124,0.0,4.1895,4.2504,4.2953,4.2663,4.2907,4.308,4.2802,4.2475,4.2174,4.1931,4.2012,4.2061,4.1963,4.2061,0.0,4.2381,4.2508,0.0,4.177,4.1591,4.0876,3.9376,3.8449,3.7891,3.7725,3.7725,3.7725,3.7725,3.7725,3.7801,3.7967,3.7967,3.8066,3.8202,3.8005,3.7891,3.7891,3.7495,3.7341,3.7303,3.7148,3.7017,3.6978,3.6978,3.6978,3.6978,3.6978,3.6978,3.6947,3.6636,3.6244,3.5744,3.5117,3.4671,3.4346,3.4312,3.4278,3.4278,3.4278,3.4278,3.4312,3.4346,3.421,3.4059,3.4094,3.404,3.402,3.402,3.3813,3.3709,3.3868,3.3681,3.3507,3.3507,3.3507,3.3472,3.3312,3.329,3.329,3.329,3.329,3.329,3.329,3.3431,3.3466,3.3326,3.3431,3.3536,3.3536,3.357,3.3744,3.4025,3.4244,3.4346,3.4414,3.4414,3.4481,3.4631,3.4481,3.4481,3.4631,3.4631,3.4563,4.2308,4.2308,4.2308,4.2308,4.2308,4.2308,4.2308,0.0,4.2187,4.1956,4.2451,4.2841,4.2621,4.306,4.329,4.2694,4.2678,4.2538,4.1996,4.2012,4.2109,4.2077,0.0,0.0,4.2413,4.2508,4.2571,4.2492,4.1868,4.0876,3.9376,3.8583,3.8165,3.8165,3.8127,3.8127,3.8127,3.8127,3.8165,3.8165,3.8165,3.8165,3.8202,3.8005,3.7891,3.7891,3.7663,3.7457,0.0,3.7264,3.7148,3.6978,3.6978,3.6978,3.6978,3.6978,3.6978,3.6978,3.6961,3.6692,3.6235,3.5574,3.4804,3.4094,3.3985,3.3965,3.3965,3.3965,3.3965,3.3985,3.4108,3.4005,3.3951,3.4059,3.423,3.4346,3.4346,3.4088,3.404,3.4658,3.4461,3.4211,3.4211,3.4211,3.4002,3.3382,3.329,3.329,3.329,3.329,3.329,3.329,3.3326,3.3326,3.329,3.3326,3.3326,3.3326,3.3501,3.3709,3.3917,3.404,3.4196,3.4414,3.4414,3.4414,3.4414,3.4414,3.4414,3.4414,3.4414,3.4515,4.2308,4.2308,4.2308,4.2308,4.2308,4.2308,4.2308,4.2308,4.2207,4.1956,4.2758,4.3423,4.3178,4.3671,4.3881,4.3259,4.2939,0.0,4.1818,4.1882,4.2012,4.2077,4.2174,4.2318,0.0,0.0,4.2602,4.2602,4.1916,4.1245,4.0656,3.9929,3.9305,3.8863,3.8863,3.8657,3.8202,3.8202,3.8202,3.8202,3.8202,3.8202,3.8202,3.8142,3.8066,3.8066,3.7891,3.7739,0.0,3.738,3.7558,3.7872,3.7772,3.7711,3.7711,3.7711,3.7404,3.6978,3.6978,3.6739,3.6339,3.5935,3.5497,3.4966,3.4169,3.3896,3.3896,3.3896,3.3896,3.3917,3.3985,3.3951,3.3882,3.3813,3.4249,3.4706,3.4791,3.4957,3.5204,3.5548,3.5322,3.5062,3.5062,3.5011,3.4861,3.461,3.4558,3.4558,3.4558,3.4558,3.4375,3.3948,3.3542,3.329,3.329,3.329,3.329,3.329,3.3396,3.3501,3.3709,3.4074,3.4312,3.4414,3.4601,3.4769,3.4883,3.4769,3.485,3.5063,3.5063,3.5148,4.2308,4.2308,4.2308,4.2308,4.2308,4.2308,4.2308,4.2308,4.2205,4.187,4.2924,4.378,4.3475,4.4147,4.4541,4.391,4.3363,4.2754,4.1981,4.1915,4.1931,4.2029,0.0,4.2206,4.2508,4.2571,4.2602,4.2602,4.211,4.1835,4.1835,4.1311,4.0715,3.9985,3.9748,3.94,3.8876,3.8402,3.8202,3.8202,3.8202,3.8202,3.8202,3.8202,3.8202,3.8202,3.8066,3.7967,0.0,3.7801,3.8037,3.8509,3.8509,3.8375,3.8202,3.8202,3.7825,3.7366,3.7366,3.7296,3.7218,3.6882,3.6663,3.636,3.5277,3.4568,3.4094,3.4025,3.4059,3.4094,3.4025,3.4264,3.4467,3.4249,3.4773,3.5302,3.532,3.5642,3.5961,3.6228,3.6103,3.5929,3.5866,3.5802,3.5721,3.5432,3.54,3.54,3.54,3.54,3.519,3.4681,3.4206,3.3736,3.3361,3.329,3.329,3.329,3.3382,3.3556,3.373,3.4452,3.4787,3.465,3.5118,3.5329,3.5294,3.5148,3.5246,3.5554,3.5554,3.5621,4.2308,4.2308,4.2308,4.2308,4.2308,4.2308,4.2308,4.2308,4.2163,4.1692,4.2828,4.375,4.3289,4.4406,4.5194,4.4586,4.391,0.0,4.2663,4.219,4.1898,0.0,4.2029,4.2174,4.2381,4.2508,4.2602,4.2602,4.2602,0.0,4.2602,4.2602,4.2235,4.1507,4.0752,4.0366,4.0366,3.8943,3.8202,3.8202,3.8202,3.8202,3.8202,3.8202,3.8202,3.8202,3.8202,3.8104,0.0,3.8538,3.8671,3.8531,3.9066,3.8826,3.8202,3.8202,3.8202,3.8202,3.8202,3.8642,3.9164,3.8577,3.8367,3.8267,3.7642,3.613,3.4562,3.4346,3.4447,3.4562,3.4346,3.5077,3.5864,3.572,3.5943,3.6133,3.5913,3.5913,3.6054,3.6585,3.6693,3.6646,3.643,3.6554,3.6384,3.5529,3.54,3.54,3.54,3.54,3.54,3.54,3.54,3.481,3.3417,3.329,3.329,3.329,3.3612,3.3888,3.4094,3.5252,3.5688,3.518,3.5975,3.6085,3.5504,3.5504,3.5572,3.5688,3.5688,3.5799,4.2308,4.2308,4.2308,4.2308,4.2145,4.2019,4.2019,4.1913,4.1736,4.1408,4.2538,4.3541,4.3239,4.4406,4.5194,4.4586,4.4316,4.3956,0.0,0.0,0.0,4.2506,4.2285,4.2109,0.0,0.0,4.2476,4.2476,4.2539,4.2602,4.2602,4.3072,4.2783,4.1556,4.1255,4.0859,4.0259,3.9813,3.9493,3.9356,3.9356,3.9356,3.9356,3.9356,3.9356,3.9356,3.9356,3.9334,3.9262,3.9313,3.9636,4.0076,4.0115,3.9975,3.9763,3.9763,3.9442,3.8957,3.8957,3.9103,3.9275,3.908,3.9163,3.9232,3.8898,3.751,3.592,3.5359,3.524,3.524,3.5091,3.5287,3.5561,3.5512,3.5928,3.6368,3.6415,3.6799,3.7224,3.7478,3.7522,3.7492,3.7433,3.7403,3.7284,3.6997,3.7057,3.7101,3.7101,3.7101,3.6995,3.6737,3.6523,3.574,3.4124,3.4254,3.4167,3.3667,3.4394,3.4832,3.4912,3.5963,3.6461,3.6291,3.6814,3.6753,3.6116,3.6116,3.5926,3.5587,3.5671,3.572,4.2267,4.2308,4.2308,4.2308,4.2166,4.2061,4.2061,4.1956,4.185,4.178,4.2754,4.3635,4.3602,4.4596,4.5291,4.4906,4.4642,4.4259,0.0,0.0,0.0,4.238,0.0,0.0,0.0,4.219,4.2318,4.2381,4.2476,4.2539,4.2602,4.3023,4.2848,4.1948,4.1926,4.1653,4.1124,4.0551,4.0185,4.001,4.001,3.9975,3.9889,3.9889,3.9889,3.9889,3.9889,3.9889,0.0,4.0025,4.0355,4.0799,4.087,4.0752,4.0512,4.0512,4.0185,3.9748,3.9748,3.9925,4.017,4.017,4.0272,4.037,4.0022,3.8606,3.6938,3.6222,3.6016,3.5992,3.5897,3.6039,3.618,3.618,3.6554,3.6906,3.6983,3.7462,3.7831,3.7759,3.7976,3.8119,3.7947,3.7976,3.8004,3.7963,3.8033,3.8103,3.8103,3.8103,3.8001,3.7751,3.7562,3.6905,3.5567,3.5422,3.5242,3.4784,3.5439,3.5853,3.5853,3.6827,3.7261,3.7038,3.7515,3.7413,3.6784,3.6845,3.6662,3.629,3.6461,3.6538,0.0,4.2308,4.2308,4.2308,4.2287,4.2267,4.2246,4.2282,0.0,4.2592,4.332,4.4006,4.4249,4.4906,4.5397,4.5397,4.4934,4.4344,0.0,4.3078,0.0,0.0,4.1752,0.0,4.1866,4.1996,4.2142,4.2349,4.2381,4.2445,4.2571,4.2602,4.2602,4.2602,4.2667,4.2653,4.2572,4.1283,4.0528,4.0355,4.032,4.0235,4.003,4.003,4.003,0.0,4.003,4.003,4.0065,4.0646,4.0867,4.0901,4.139,4.1174,4.0581,4.0581,4.0581,4.0581,4.0581,4.1039,4.1588,4.1588,4.1588,4.1511,4.1007,3.9487,3.7792,3.7105,3.6904,3.6909,3.6909,3.7244,3.7589,3.7589,3.763,3.7658,3.7603,3.7865,3.8069,3.7755,3.8264,3.8573,3.811,3.8367,3.8593,3.842,3.842,3.842,3.842,3.842,3.842,3.8448,3.8448,3.8144,3.7483,3.6811,3.6399,3.6338,3.6674,3.6901,3.6901,3.7847,3.8124,3.7546,3.8023,3.8023,3.7458,3.7531,3.7589,3.7589,3.7783,3.787,4.2225,0.0,4.2308,4.2308,4.2163,4.1956,0.0,4.2083,4.2329,4.2181,4.3259,4.4231,4.4302,4.4906,4.5397,4.5397,4.5291,4.514,4.4988,4.3997,0.0,4.1737,4.1621,4.167,4.167,4.185,4.1963,4.2028,4.2093,4.2238,4.2445,4.2445,4.2508,4.2602,4.3154,4.3138,4.2462,4.2668,4.2391,4.1638,4.1538,4.1488,4.1439,4.1274,4.1192,4.1192,4.1192,4.1192,4.1192,4.1341,4.1423,4.1423,4.1555,4.1474,4.1341,4.1341,4.1341,4.1341,4.1341,4.144,4.1588,4.1588,4.1588,4.159,4.1464,4.0783,3.9929,3.9267,3.9062,3.9044,3.8889,3.8542,3.827,3.827,3.7889,3.7682,3.816,3.8539,3.8921,3.9315,3.9758,3.9875,3.9352,3.9255,3.906,3.8609,3.8639,3.8694,3.8694,3.8694,3.8794,3.9056,3.8849,3.875,3.8816,3.8039,3.7263,3.672,3.7467,3.795,3.795,3.8689,3.8996,3.886,3.8507,3.8222,3.808,3.7663,3.7458,3.7458,3.7488,3.7533,4.2019,4.2205,4.2267,4.2163,4.2019,4.1849,4.1648,4.2088,4.2573,0.0,0.0,4.4525,4.476,4.5121,4.5397,4.5397,4.5397,0.0,0.0,0.0,4.3152,4.2174,4.2061,4.1932,0.0,4.1703,4.1784,4.1898,4.1963,4.2061,4.2238,4.227,4.2349,4.2508,4.3525,4.3719,4.3008,4.3396,4.3315,4.2751,4.2334,4.2077,4.198,4.1817,4.1752,4.1736,4.1621,4.1588,4.1588,4.1588,4.1588,4.1588,4.1588,4.1588,4.1588,4.1588,4.1588,4.1588,4.1588,4.1588,4.1588,4.1588,4.1588,4.1588,4.1588,4.1401,4.1038,4.042,4.0054,3.9768,3.9659,3.9312,3.8965,3.8965,3.8681,3.8568,3.9071,3.9438,3.982,4.0144,4.0583,4.0778,4.0373,4.025,4.0132,3.9841,3.986,3.9773,3.9429,3.9396,3.9375,3.9305,3.9067,3.8996,3.9272,3.8832,3.8367,3.7962,3.8463,3.8772,3.8772,3.9121,3.9299,3.9299,3.8925,3.8772,3.8772,3.8423,3.8254,3.8254,3.8254,3.8254,4.1788,4.204,4.2142,4.1913,4.1831,4.1841,4.1745,0.0,0.0,0.0,0.0,0.0,4.5329,4.5397,0.0,0.0,0.0,0.0,4.4586,4.3997,4.3423,4.2818,4.2648,0.0,4.1802,4.1654,4.167,4.1833,4.1866,4.1915,4.2045,4.2093,4.2158,4.2349,4.362,4.4088,4.3622,4.3784,4.3767,4.3508,4.2767,4.2366,4.2318,4.2172,4.209,4.2057,0.0,0.0,4.1588,4.1588,4.1621,4.1621,4.1621,4.1621,4.1621,4.1621,4.1588,4.1588,4.1588,4.1588,4.1588,4.1588,4.1588,4.1588,4.1588,4.1588,4.1511,4.1055,4.0515,4.0086,4.0086,3.9866,3.9677,3.9677,3.9613,3.9675,4.008,4.0462,4.0764,4.0875,4.132,4.1609,4.128,4.1309,4.1334,4.1231,4.1214,4.0971,4.0346,4.0165,3.9896,3.945,3.916,3.9067,3.9245,3.9272,3.9299,3.9299,3.9299,3.9299,3.9299,3.9299,3.9299,3.9299,3.9299,3.9299,3.9299,3.9299,3.9299,3.9299,3.9299,3.9299,4.1831,4.1805,4.1692,4.167,4.1648,4.1758,4.2195,4.3028,0.0,0.0,0.0,0.0,0.0,4.5397,4.5397,0.0,0.0,4.5194,0.0,0.0,4.41,4.3423,0.0,4.2554,4.2459,4.1932,4.1621,4.1621,4.167,4.1736,4.1931,4.1931,4.198,4.2142,4.2975,4.3359,4.328,4.4187,4.4318,4.3654,4.2831,4.2719,4.3266,4.3103,4.2923,4.2741,0.0,4.2275,4.1588,4.1588,4.1703,4.1833,4.167,4.1703,4.1833,4.167,4.1588,4.1588,4.1588,4.1588,4.1588,4.1588,4.1588,4.1588,4.1588,4.1588,4.1573,4.1495,4.1384,4.1305,4.1305,4.0894,4.0435,4.0435,4.0181,4.0096,4.0797,4.1417,4.2018,4.2594,4.2906,4.2904,4.2365,4.2195,4.1968,4.1439,4.1255,4.1152,4.1037,4.0393,3.991,3.9839,3.9303,3.9023,3.905,3.9202,3.9299,3.9299,3.9299,3.9299,3.9299,3.9299,3.9299,3.9299,3.9299,3.9299,3.9299,3.9299,3.9299,3.9299,3.9299,3.9299,4.1675,4.1565,4.1386,4.1386,4.1386,4.1509,4.2059,4.2888,0.0,0.0,0.0,0.0,0.0,0.0,4.5397,4.5397,0.0,4.53,4.5032,4.5005,4.4752,0.0,0.0,4.3681,4.3727,4.278,4.2302,4.2703,4.2009,4.1621,4.1736,4.1752,4.1817,4.198,4.2682,4.3082,4.3214,4.37,4.3766,4.3427,4.2815,4.2654,4.2896,4.2816,4.2735,4.2638,0.0,4.2251,4.1883,4.1883,4.1916,4.1996,4.1931,4.1931,4.198,4.1817,4.1703,4.1588,4.1588,4.1588,4.1588,4.1588,4.1588,4.1588,4.1588,4.1588,4.1588,4.1588,4.1588,4.1588,4.1588,4.1367,4.1195,4.1357,4.1263,4.1324,4.202,4.2423,4.278,4.3276,4.3432,4.3423,4.3151,4.2967,4.2809,4.2505,4.2442,4.2252,4.1844,4.1382,4.1005,4.0736,3.9921,3.9467,3.9715,3.9379,3.9175,3.9299,3.9299,3.9299,3.9299,3.9299,3.9299,3.9299,3.9299,3.9299,3.9299,3.9299,3.9299,3.9299,3.9299,3.9299,4.1431,4.1318,4.1192,4.1412,4.1424,4.1539,4.2127,4.2946,0.0,0.0,0.0,0.0,0.0,4.5397,0.0,4.5397,4.5397,4.5397,4.5397,4.5397,4.522,4.4769,4.4586,4.4619,4.4886,4.3627,4.3049,4.3669,4.2542,4.1785,4.1621,4.1588,4.167,4.1833,4.2325,4.2661,4.2827,4.286,4.2988,4.3198,4.2719,4.2525,4.2639,4.2639,4.2639,4.2639,4.2494,4.2302,4.2109,4.2109,4.2142,4.2174,4.2109,4.2109,4.2077,4.198,4.1834,4.172,4.167,4.167,4.167,4.1621,4.1588,4.1621,4.1687,4.172,4.172,4.1802,4.1835,4.1785,4.1654,4.1654,4.1785,4.2045,4.2238,4.2476,4.299,4.3174,4.3295,4.3568,4.3598,4.3598,4.3598,4.3492,4.3449,4.3449,4.3402,4.3191,4.2647,4.2239,4.1881,4.1539,4.0561,4.003,4.0271,3.9644,3.9248,3.9218,3.9272,3.9299,3.9299,3.9299,3.9299,3.9299,3.9299,3.9299,3.9299,3.9299,3.9299,3.9299,3.9299,3.9299,4.1163,4.1088,4.1138,4.2084,4.2139,4.2161,4.293,4.3873,0.0,4.5208,0.0,0.0,0.0,4.5397,4.5397,4.5397,4.5397,4.5397,4.5397,0.0,4.5371,4.5344,4.4852,4.4761,4.546,4.4269,4.3509,4.3701,4.2974,4.2254,4.1621,4.1588,4.1621,4.1621,4.1669,4.17,4.1733,4.1896,4.2394,4.3198,4.2494,4.2575,4.3411,4.3411,4.3411,4.3411,4.3427,4.288,4.2109,4.2109,4.2206,4.2349,4.2174,4.2109,4.2109,4.2077,4.2077,4.2061,4.1931,4.1866,4.1866,4.167,4.1588,4.1654,4.198,4.2077,4.2142,4.2428,4.2539,4.2365,4.1753,4.1818,4.2077,4.2077,4.2586,4.3035,4.3082,4.3325,4.3568,4.3598,4.3598,4.3598,4.3598,4.3598,4.3598,4.3598,4.3479,4.3386,4.3336,4.2444,4.1792,4.1773,4.1092,4.0449,3.998,3.9994,3.972,3.9073,3.9218,3.9299,3.9299,3.9299,3.9299,3.9299,3.9299,3.9299,3.9299,3.9299,3.9299,3.9299,3.9299,3.9299,4.1094,4.114,4.1302,4.2177,4.2652,0.0,0.0,4.418,4.4621,4.5268,4.5485,0.0,0.0,0.0,4.5397,4.5397,4.5397,4.5397,4.5397,4.5397,4.5397,4.5397,4.5623,4.5925,4.6199,4.5359,4.483,4.489,4.3457,4.2491,4.2254,4.1835,4.1588,4.1588,4.1588,4.1588,4.1588,4.167,4.1863,4.2215,4.214,4.2237,4.2508,4.2574,4.2639,4.2639,4.2639,4.251,4.2286,4.2286,4.2381,4.2508,4.2445,4.2365,4.2286,4.2286,4.2222,4.2077,4.2029,4.198,4.1898,4.1817,4.1703,4.1621,4.1753,4.1948,4.2142,4.2254,4.2444,4.2476,4.2045,4.2158,4.2412,4.2412,4.2758,4.3174,4.3372,4.3492,4.3598,4.3598,4.3598,4.3598,4.3598,4.3598,4.3598,4.3598,4.3568,4.3492,4.3402,4.2944,4.2612,4.2612,4.1959,4.121,4.0479,4.0561,4.0336,3.9609,3.9412,3.9299,3.9299,3.9299,3.9299,3.9299,3.9299,3.9299,3.9299,3.9299,3.9299,3.9299,3.9299,3.9299,4.0954,4.1308,4.1679,4.2382,0.0,0.0,4.4406,4.4656,4.4897,4.5303,4.5397,4.5397,4.5397,0.0,0.0,0.0,4.5397,4.5397,4.5397,4.5397,4.5397,4.5397,4.6104,4.6613,4.6613,4.6189,4.5847,4.563,4.4092,4.3033,4.2617,4.2142,4.1802,4.1621,4.1588,4.1588,4.1588,4.1588,4.1588,4.1588,4.1851,4.1931,4.1898,4.2012,4.2061,4.2109,4.2109,4.2174,4.2318,4.2381,4.2476,4.2602,4.2602,4.2539,4.2476,4.2476,4.2381,4.2238,4.2206,4.2125,4.2028,4.1931,4.1817,4.1703,4.1753,4.2013,4.2285,4.2397,4.2664,4.2851,4.2507,4.2601,4.2741,4.2741,4.3005,4.3325,4.3568,4.3598,4.3598,4.3598,4.3598,4.3598,4.3598,4.3552,4.3539,4.3539,4.3462,4.3402,4.3312,4.316,4.3021,4.2959,4.2488,4.1871,4.1035,4.1167,4.0945,4.0193,3.9956,3.9616,3.9164,3.9148,3.9148,3.9148,3.9148,3.9148,3.9218,3.9218,3.9245,3.9299,3.9299,3.9299,4.0752,4.1525,4.2293,4.2798,0.0,0.0,4.4888,4.5398,4.5727,4.5432,4.5397,4.5397,4.5397,4.5397,0.0,4.5397,4.5397,4.5397,4.5397,4.5397,4.5397,4.5397,4.6104,4.6613,4.6613,4.6613,4.6333,4.5659,4.4925,4.3943,4.2695,4.2633,4.2333,4.1637,4.1637,4.1604,4.1604,4.1588,4.1588,4.1588,4.1588,4.1703,4.1898,4.1898,4.198,4.2109,4.2109,4.2109,4.2109,4.2302,4.2476,4.2602,4.2602,4.2602,4.2602,4.2602,4.2602,4.2571,4.2445,4.2413,4.2349,4.2028,4.1898,4.1931,4.2061,4.2349,4.2679,4.3005,4.3325,4.3522,4.3204,4.3096,4.3096,4.3113,4.3372,4.3598,4.3598,4.3598,4.3598,4.3598,4.3598,4.3598,4.3598,4.3509,4.3402,4.3402,4.3235,4.3113,4.3113,4.2976,4.2837,4.2634,4.2602,4.2342,4.1677,4.1734,4.1485,4.0753,4.09,4.0349,3.887,3.8805,3.8805,3.8805,3.8805,3.886,3.8996,3.8996,3.9121,3.9299,3.9299,3.9299,4.0752,4.1226,0.0,4.2982,0.0,0.0,0.0,4.5257,0.0,0.0,4.5194,4.5274,4.5274,4.5344,0.0,4.5397,4.5397,4.5397,4.5397,4.5397,4.5397,4.5397,4.6104,4.6613,4.6613,4.6613,4.6721,4.7054,4.596,4.5339,4.5474,4.4569,4.3994,4.3798,4.2886,4.2363,4.2363,4.1841,4.1588,4.1588,4.1588,4.1621,4.1703,4.1703,4.1703,4.1753,4.1753,4.1834,4.198,4.2125,4.2318,4.2476,4.2476,4.2476,4.2476,4.2571,4.2602,4.2602,4.2539,4.2476,4.2381,4.2286,4.2158,4.2061,4.2254,4.2539,4.2852,4.3052,4.3325,4.3598,4.3462,4.3462,4.3402,4.3174,4.3372,4.3598,4.3598,4.3598,4.3598,4.3598,4.3598,4.3598,4.3598,4.3568,4.3539,4.3539,4.3402,4.3221,4.2976,4.279,4.2665,4.2602,4.2602,4.2522,4.2311,4.2341,4.208,4.1397,4.1395,4.0864,3.964,3.9575,3.9385,3.8958,3.8942,3.904,3.9202,3.9202,3.9245,3.9299,3.9299,3.9299,4.0752,4.1389,0.0,4.3009,4.3529,4.4066,4.5131,0.0,0.0,0.0,4.5123,4.5203,4.5203,4.5274,0.0,4.53,4.53,4.5344,4.5397,4.5397,4.5397,4.5397,4.6104,4.6613,4.6613,4.6872,4.7234,4.7655,4.6918,4.6504,4.668,4.5663,4.4831,4.4318,4.3233,4.2536,4.2252,4.181,4.1588,4.1588,4.1588,4.1588,4.1588,4.1588,4.1588,4.1588,4.1588,4.1703,4.1914,4.198,4.2125,4.2286,4.2286,4.2286,4.227,4.2365,4.2429,4.2508,4.2445,4.2445,4.2476,4.2318,4.2333,4.2413,4.2413,4.2728,4.3099,4.3113,4.3325,4.3598,4.3598,4.3598,4.3568,4.3372,4.3462,4.3598,4.3598,4.3598,4.3598,4.3598,4.3598,4.3598,4.3598,4.3568,4.3539,4.3539,4.3372,4.3221,4.3007,4.2867,4.2774,4.2728,4.2728,4.2696,4.2602,4.2602,4.2424,4.2019,4.2002,4.1576,4.0629,4.0303,3.9973,3.9617,3.96,3.9581,3.9539,3.9539,3.9472,3.9299,3.9299,3.9394,4.0799,4.1789,4.2591,4.2915,4.3725,0.0,4.5174,4.5232,4.5186,4.5292,0.0,4.5266,4.5266,4.523,4.5177,4.5177,4.5177,4.5247,4.5371,4.5371,4.5397,4.5397,4.6035,4.6527,4.6596,4.7121,4.7534,4.77,4.762,4.7346,4.683,4.607,4.5156,4.399,4.3196,4.2461,4.1782,4.1719,4.1654,4.1588,4.1588,4.1588,4.1588,4.1588,4.1588,4.1588,4.1588,4.1703,4.1898,4.1866,4.1947,4.2077,4.2077,4.2077,4.2077,4.2109,4.2222,4.2349,4.2142,4.2302,4.2492,4.2206,4.2445,4.2775,4.2508,4.2883,4.3312,4.3174,4.3355,4.3598,4.3598,4.3598,4.3598,4.3598,4.3598,4.3598,4.3598,4.3598,4.3598,4.3598,4.3598,4.3598,4.3598,4.3509,4.3402,4.3402,4.3235,4.3113,4.3113,4.3113,4.3052,4.293,4.2899,4.2837,4.2634,4.2602,4.2602,4.2602,4.2602,4.2342,4.1725,4.0982,4.0561,4.0526,4.0526,4.0349,4.0001,4.0001,3.9796,3.9444,3.9444,3.9726,4.0873,4.1485,0.0,0.0,4.4839,4.5929,4.5612,4.5944,4.6306,4.6167,4.5933,4.5742,4.5742,4.5354,4.5032,4.5032,4.5032,4.5086,4.522,4.5247,4.5274,4.5397,4.5552,4.5897,4.6544,4.6155,4.6397,4.7603,4.7155,4.7041,4.7453,4.6782,4.6267,4.5982,4.4801,4.3853,4.3202,4.2638,4.2126,4.1588,4.1588,4.1588,4.1588,4.1588,4.1588,4.1588,4.1588,4.1703,4.1898,4.1736,4.1768,4.1947,4.1947,4.1947,4.1963,4.2061,4.2142,4.2142,4.2109,4.2142,4.2206,4.2109,4.2174,4.2333,4.2681,4.2899,4.3084,4.3402,4.3522,4.3598,4.3598,4.3598,4.3598,4.3598,4.3598,4.3598,4.3598,4.3598,4.3598,4.3598,4.3598,4.3598,4.3598,4.3568,4.3539,4.3419,4.3372,4.3281,4.3113,4.3113,4.3082,4.3052,4.2945,4.2868,4.2837,4.2696,4.2602,4.2602,4.2602,4.2538,4.2376,4.1727,4.1123,4.0674,4.0674,4.0697,4.0758,4.0758,4.0705,4.0615,4.0615,4.0697,4.0666,0.0,0.0,4.326,0.0,4.6286,4.6136,4.6697,4.7277,4.7419,4.6914,4.6418,4.6293,4.6035,4.5776,4.5649,4.5433,4.5336,4.5468,4.5257,4.5167,4.5274,4.53,4.5654,4.65,4.6207,4.6448,4.7603,4.7327,4.7276,4.7672,4.7015,4.6465,4.6143,4.5102,4.4228,4.3542,4.292,4.2428,4.2077,4.1737,4.1588,4.1588,4.1588,4.1588,4.1588,4.1588,4.167,4.1752,4.1621,4.167,4.1752,4.1752,4.1752,4.1752,4.1818,4.1916,4.198,4.1883,4.198,4.2077,4.2045,4.2142,4.2381,4.2665,4.2961,4.3207,4.3449,4.3492,4.3539,4.3598,4.3568,4.3539,4.3582,4.3818,4.4035,4.4035,4.4231,4.4412,4.4412,4.4412,4.4328,4.4093,4.4035,4.4006,4.3948,4.4145,4.414,4.3693,4.3634,4.3472,4.3052,4.2961,4.2868,4.2759,4.2665,4.2602,4.2602,4.2602,4.2743,4.3019,4.2689,4.2239,4.1608,4.1907,4.1979,4.1811,4.1811,4.1675,4.143,4.1132,4.1154,4.0292,0.0,4.201,4.2999,4.4743,0.0,4.6665,4.7327,4.8023,4.855,4.7844,4.7088,4.6895,4.6735,4.6572,4.631,4.5935,4.5692,4.576,4.5389,4.5113,4.515,4.5167,4.5478,4.6284,4.6352,4.6621,4.7241,4.7293,4.7293,4.7293,4.6707,4.6155,4.5569,4.4964,4.4344,4.3689,4.3185,4.2834,4.2585,4.1932,4.1588,4.1588,4.1588,4.1588,4.1588,4.1588,4.1588,4.1588,4.1588,4.1588,4.1588,4.1588,4.1588,4.1588,4.1588,4.1703,4.1833,4.167,4.1785,4.1996,4.1882,4.2109,4.2428,4.2492,4.2867,4.3251,4.3312,4.3372,4.3432,4.3539,4.3509,4.3492,4.37,4.4219,4.4597,4.453,4.4937,4.5303,4.5303,4.5303,4.5161,4.4691,4.4625,4.4625,4.4625,4.5018,4.5037,4.4434,4.4226,4.3898,4.316,4.2992,4.2868,4.2665,4.2665,4.2634,4.2602,4.2602,4.2881,4.3482,4.3393,4.3199,4.2912,4.341,4.3435,4.2996,4.2996,4.2752,4.2305,4.1806,4.1818,3.9994,0.0,4.3214,0.0,4.4889,4.6689,0.0,0.0,4.8364,0.0,4.8234,4.7627,4.7416,4.6869,4.6377,4.6147,4.6067,4.5935,4.5684,4.5572,4.5389,4.5059,4.5032,4.5121,4.5358,4.5402,4.548,4.569,4.5707,4.5707,4.5707,4.5604,4.5526,4.5429,4.5325,4.4988,4.4373,4.4288,4.3693,4.2585,4.1932,4.1588,4.1588,4.1588,4.1588,4.1588,4.1588,4.1588,4.1588,4.1588,4.1588,4.1588,4.1588,4.1588,4.1588,4.1588,4.1621,4.1621,4.1621,4.1621,4.1654,4.167,4.1687,4.1785,4.2077,4.2429,4.2759,4.293,4.3267,4.3568,4.3432,4.3509,4.37,4.4248,4.4801,4.5054,4.4597,4.4937,4.5303,4.5303,4.5303,4.5276,4.5214,4.5197,4.5197,4.5197,4.5161,4.5108,4.5001,4.4423,4.3972,4.3856,4.3399,4.3037,4.2868,4.2868,4.2806,4.2602,4.2602,4.2881,4.3482,4.3019,4.3155,4.4152,4.4237,4.4243,4.417,4.417,4.4136,4.4063,4.3979,4.3973,4.0383,4.2167,4.3652,0.0,4.5246,4.6665,4.6607,4.7488,4.8344,4.8532,4.8495,4.8309,4.8018,4.7679,4.7406,4.7208,4.6905,4.6659,4.6531,4.5982,4.5537,4.5363,4.5059,4.4923,4.5086,4.5167,4.5203,4.5274,4.5371,4.5397,4.5397,4.5397,4.5397,4.5397,4.5397,4.5274,4.5005,4.4669,4.3869,4.2585,4.2301,4.1964,4.1588,4.1588,4.1588,4.1588,4.1588,4.1588,4.1588,4.1588,4.1588,4.1588,4.1588,4.1588,4.1588,4.1588,4.1588,4.1588,4.1588,4.1588,4.1588,4.1588,4.1588,4.1654,4.2013,4.227,4.2539,4.2837,4.3054,4.319,4.3221,4.3281,4.3489,4.4174,4.4838,4.5346,4.5442,4.5877,4.6249,4.6249,4.6003,4.5776,4.57,4.5751,4.5776,4.57,4.5953,4.601,4.5614,4.5259,4.4777,4.4083,4.3764,4.3426,4.3052,4.3007,4.2959,4.2898,4.2867,4.3157,4.3752,4.3852,4.4266,4.5072,4.4629,4.4574,4.4885,4.4885,4.4885,4.4903,4.4574,4.4406,0.0,0.0,4.3432,4.3897,4.5264,4.6448,0.0,0.0,4.7995,0.0,4.855,4.8678,4.842,4.8382,4.8325,4.8111,4.7695,4.7363,4.7216,4.6478,4.5833,4.5563,4.5159,4.4951,4.4951,4.5032,4.5113,4.5167,4.5274,4.5344,4.5344,4.5371,4.5397,4.5397,4.5397,4.5397,4.5397,4.4797,4.3927,4.2818,4.2663,4.2333,4.1835,4.1687,4.1588,4.1588,4.1588,4.1588,4.1588,4.1588,4.1588,4.1588,4.1588,4.1588,4.1588,4.1588,4.1588,4.1588,4.1588,4.1588,4.1588,4.1588,4.1588,4.1654,4.1916,4.2174,4.2445,4.2634,4.2837,4.2976,4.3021,4.3188,4.3502,4.4197,4.493,4.5631,4.6284,4.6684,4.6957,4.698,4.6637,4.6332,4.6259,4.6308,4.6308,4.6211,4.659,4.669,4.6158,4.5943,4.5425,4.435,4.4123,4.3794,4.3157,4.3143,4.3143,4.3113,4.3113,4.3413,4.4145,4.4468,4.4991,4.5752,4.501,4.493,4.5546,4.5546,4.5546,4.552,4.5064,4.4848,0.0,4.0795,0.0,4.3098,4.4549,4.5955,0.0,0.0,4.7244,4.8113,4.8325,4.8382,4.855,4.8587,4.8514,4.8325,4.8111,4.7793,4.7259,4.6986,4.6454,4.5433,4.5276,4.5152,4.4831,4.4803,4.4886,4.5005,4.5123,4.5203,4.5203,4.5327,4.5397,4.5397,4.5397,4.5397,4.5397,4.4797,4.4157,4.3453,4.2863,4.2585,4.2522,4.19,4.1588,4.1588,4.1588,4.1588,4.1588,4.1588,4.1588,4.1588,4.1588,4.1588,4.1588,4.1588,4.1588,4.1588,4.1588,4.1588,4.1588,4.1588,4.1588,4.1588,4.1621,4.198,4.2349,4.2174,4.2618,4.3052,4.2961,4.3429,4.41,4.4718,4.5416,4.6161,4.6801,4.6888,4.6842,4.6975,4.6865,4.6819,4.6911,4.6842,4.6772,4.6754,4.6684,4.6613,4.6566,4.6059,4.5485,4.492,4.4451,4.3881,4.3157,4.3265,4.3312,4.3096,4.3113,4.3562,4.4625,4.4157,4.4591,4.6147,4.5572,4.5546,4.6147,4.6147,4.6147,4.6147,4.6122,4.6122,0.0,0.0,0.0,4.3049,4.4509,4.5821,4.5895,4.6424,4.6999,4.7313,4.7875,4.8325,4.8383,4.8514,4.8569,4.8495,4.842,4.8269,4.7957,4.7554,4.7039,4.6389,4.5724,4.5267,4.5125,4.4951,4.4831,4.4886,4.5086,4.5203,4.5203,4.5344,4.5397,4.5397,4.5397,4.5397,4.5397,4.5194,4.4752,4.4128,4.3499,4.2956,4.2585,4.19,4.1588,4.1588,4.1588,4.1588,4.1588,4.1588,4.1588,4.1588,4.1588,4.1588,4.1588,4.1588,4.1588,4.1621,4.1752,4.1784,4.1784,4.1784,4.1784,4.1784,4.1621,4.1883,4.2174,4.2109,4.2429,4.279,4.2728,4.3279,4.4157,4.5232,4.5945,4.6471,4.6684,4.6725,4.6708,4.6842,4.6842,4.6819,4.6865,4.6842,4.6772,4.6684,4.6637,4.6637,4.6725,4.6548,4.62,4.5649,4.5468,4.4947,4.396,4.3948,4.3818,4.3432,4.3432,4.3595,4.3977,4.4412,4.4865,4.5354,4.5776,4.607,4.6196,4.6196,4.6196,4.6196,4.6196,4.6196,3.8656,0.0,0.0,0.0,4.4175,4.5468,4.552,4.602,4.6513,4.6613,4.7208,4.7736,4.7897,4.825,4.8532,4.8696,4.8641,4.8532,4.8325,4.7957,4.747,4.6959,4.6098,4.5511,4.5303,4.4961,4.472,4.472,4.4923,0.0,4.5059,4.5194,4.5291,4.5327,4.5371,4.53,4.5113,4.5318,4.5113,4.4502,4.4042,4.3529,4.288,4.2238,4.1802,4.1588,4.1588,4.1588,4.1588,4.1588,4.1588,4.1588,4.1588,4.1588,4.1588,4.1588,4.1588,4.1621,4.1833,4.1898,4.1914,4.1947,4.1931,4.1866,4.1752,4.1899,4.2109,4.2109,4.2333,4.2602,4.2602,4.3292,4.4294,4.5425,4.607,4.6471,4.6518,4.6525,4.6566,4.6725,4.6684,4.6684,4.6749,4.6684,4.6637,4.6542,4.6525,4.6566,4.6661,4.6725,4.6542,4.5988,4.5988,4.5589,4.4586,4.4435,4.4207,4.3848,4.3687,4.373,4.4018,4.4541,4.4991,4.5311,4.5844,4.6105,4.5998,4.6122,4.6196,4.6196,4.6196,4.6196,0.0,0.0,0.0,0.0,4.3495,4.479,4.5266,4.5477,4.5666,4.6017,4.631,4.6624,4.7084,4.7777,4.8401,4.8785,4.8714,4.8532,4.8325,4.8131,4.7731,4.6999,4.643,4.5875,4.5355,4.4879,4.4615,4.4615,4.472,4.4803,4.4803,4.494,4.5059,4.5194,4.5327,4.5113,4.453,4.5113,4.5113,4.453,4.4502,4.4157,4.3512,4.288,4.2238,4.1621,4.1621,4.1588,4.1588,4.1588,4.1588,4.1588,4.1588,4.1588,4.1588,4.1588,4.1588,4.1621,4.1833,4.1898,4.1931,4.2061,4.2012,4.1898,4.1898,4.2012,4.2109,4.2109,4.2333,4.2602,4.2618,4.3499,4.4584,4.5312,4.587,4.6246,4.6374,4.6381,4.6429,4.6566,4.6495,4.6429,4.659,4.6495,4.6405,4.6405,4.6398,4.6398,4.6405,4.6501,4.6381,4.5887,4.5938,4.5717,4.4991,4.468,4.4474,4.4338,4.3877,4.3989,4.4855,4.4502,4.4889,4.6122,4.576,4.558,4.558,4.5998,4.6196,4.6172,4.6196,4.6214,3.7468,0.0,0.0,0.0,0.0,0.0,4.4746,4.5008,4.5205,4.5649,4.6231,4.6595,4.6418,4.7168,4.7697,4.7362,4.8158,4.8696,4.8344,4.8248,4.7895,4.6981,4.643,4.5875,4.5355,4.4879,4.4615,0.0,4.472,4.4803,4.4803,4.5005,4.515,4.5203,4.5327,4.5318,4.5167,4.5318,4.5318,4.514,4.4714,4.4401,4.4202,4.3094,4.2491,4.2317,4.1802,4.1588,4.1588,4.1588,4.1588,4.1588,4.1588,4.1588,4.1588,4.1588,4.1588,4.1621,4.1833,4.1947,4.2061,4.2077,4.219,4.2238,4.1963,4.2109,4.2286,4.2142,4.2333,4.2711,4.3155,4.3835,4.4557,4.5197,4.5794,4.6196,4.6246,4.627,4.6277,4.6447,4.6447,4.6429,4.659,4.6495,4.6405,4.6405,4.6326,4.6277,4.6398,4.6429,4.6405,4.6259,4.6259,4.6062,4.5459,4.5345,4.5142,4.4763,4.4333,4.4207,4.4463,4.435,4.4463,4.4807,4.5008,4.5098,4.5115,4.5837,4.6048,4.576,4.6073,4.6495,0.0,0.0,0.0,0.0,0.0,0.0,4.4344,4.4597,4.479,4.5239,4.5794,4.6059,4.5784,4.646,4.6927,4.653,4.7319,4.7868,4.7557,4.7512,4.7259,4.6642,4.6098,4.5648,4.5329,4.4879,4.4615,4.4615,4.4682,4.4709,4.4709,4.4913,4.5059,4.5096,4.5247,4.5327,4.5397,4.5397,4.5397,4.5397,4.5042,4.4725,4.4474,4.3439,4.2849,4.2554,4.19,4.1588,4.1588,4.1588,4.1588,4.1588,4.1588,4.1588,4.1588,4.1588,4.1588,4.1621,4.1833,4.198,4.2109,4.227,4.2349,4.2381,4.2238,4.2302,4.2381,4.2254,4.2413,4.268,4.3033,4.3748,4.449,4.4848,4.5572,4.6196,4.6196,4.646,4.6607,4.6372,4.659,4.6843,4.6916,4.7132,4.7171,4.6854,4.6745,4.6614,4.6354,4.6326,4.6326,4.6326,4.6374,4.6235,4.5879,4.5735,4.5537,4.5205,4.479,4.4558,4.4558,4.4378,4.4378,4.4558,4.4642,4.4708,4.4828,4.5381,4.5632,4.5606,4.5854,4.6275,0.0,0.0,0.0,0.0,4.1834,0.0,4.3844,4.4121,4.4219,4.4714,4.5025,4.5186,4.5079,4.5657,4.6098,4.5968,4.6294,4.65,4.6413,4.6407,4.6288,4.6049,4.5588,4.5276,4.5241,4.4852,4.4615,4.4615,4.4615,4.4615,4.4615,4.4737,4.4858,4.4978,4.5113,4.5247,4.5344,4.5371,4.5397,4.5371,4.5397,4.5113,4.4586,4.391,4.329,4.2663,4.1997,4.1687,4.1588,4.1588,4.1588,4.1588,4.1588,4.1588,4.1588,4.1588,4.1588,4.1621,4.1784,4.198,4.2142,4.2429,4.2508,4.2445,4.2571,4.2508,4.2413,4.2413,4.2571,4.268,4.2634,4.3558,4.4507,4.4536,4.5458,4.6354,4.6442,4.7029,4.7327,4.66,4.7046,4.752,4.752,4.8082,4.8293,4.7625,4.752,4.7257,4.6547,4.6372,4.6337,4.6337,4.6354,4.6326,4.6196,4.598,4.5786,4.5658,4.5249,4.4964,4.491,4.4502,4.4446,4.4746,4.439,4.435,4.4569,4.4773,4.5072,4.5477,4.5555,4.5787,0.0,0.0,0.0,0.0,4.0514,0.0,4.2632,4.2927,4.3064,4.3545,4.3835,4.4078,4.4214,4.4756,4.5152,4.5069,4.5302,4.5716,4.6312,4.6407,4.6167,4.552,4.5355,4.5152,4.4759,4.4654,4.4615,4.4615,4.4615,4.4615,4.4615,4.4737,4.4803,4.4831,4.5086,4.515,4.5086,4.5291,4.5344,4.5247,4.5344,4.5344,4.5194,4.4586,4.3956,4.3273,4.2663,4.2093,4.1588,4.1588,4.1588,4.1588,4.1588,4.1588,4.1588,4.1588,4.1588,4.1621,4.1621,4.1851,4.2109,4.2174,4.2365,4.2571,4.2602,4.2571,4.2571,4.2571,4.2927,4.3199,4.2743,4.3864,4.5165,4.532,4.6305,4.7327,4.7916,4.8222,4.8293,4.8074,4.8179,4.831,4.8363,4.8451,4.8442,4.8328,4.8293,4.8214,4.8056,4.7538,4.7169,4.7169,4.6614,4.6221,4.6196,4.6147,4.6122,4.6097,4.5684,4.5302,4.491,4.4502,4.415,4.386,4.3789,4.3759,4.3818,4.4429,4.4718,4.4657,4.5117,4.5568,0.0,0.0,0.0,3.8663,0.0,0.0,0.0,4.1708,4.2013,4.3183,4.3512,4.3614,4.3634,4.3881,4.4186,4.4361,4.4463,4.4746,4.5511,4.5545,4.5372,4.4981,4.4944,4.4852,4.4626,4.4615,4.4615,4.4615,4.4615,4.4615,4.4615,4.4654,4.4737,4.4803,4.494,4.5005,4.5005,4.5113,4.5167,4.5113,4.5167,4.5238,4.5274,4.4586,4.3985,4.3453,4.2787,4.2158,4.1588,4.1588,4.1588,4.1588,4.1588,4.1588,4.1588,4.1588,4.1588,4.1588,4.1588,4.1768,4.2045,4.219,4.2365,4.2539,4.2696,4.2665,4.2602,4.2602,4.3033,4.3505,4.3615,4.4764,4.6042,4.6535,4.7314,4.8064,4.8407,4.8837,4.9135,4.91,4.9416,4.9574,4.9205,4.9451,4.9556,4.9153,4.91,4.8977,4.8608,4.8205,4.7819,4.7432,4.7046,4.6635,4.6232,4.6196,4.6196,4.6196,4.6023,4.5709,4.5275,4.5052,4.4725,4.4276,4.4942,4.4914,4.4133,4.5203,4.5333,4.4674,4.5188,4.5649,0.0,0.0,0.0,0.0,0.0,3.8245,0.0,0.0,0.0,4.2565,0.0,0.0,0.0,0.0,0.0,4.3781,0.0,0.0,0.0,4.4553,0.0,4.4598,4.4615,4.4615,4.4615,4.4615,4.4615,4.4615,4.4615,4.4615,4.4615,4.4615,4.4654,4.4748,4.4793,4.4831,4.4913,4.4978,4.4978,4.4951,4.4978,4.5059,4.5123,4.4502,4.3985,4.3542,4.2818,4.2222,4.1753,4.1588,4.1555,4.1588,4.1588,4.1588,4.1588,4.1588,4.1588,4.1588,4.1588,4.1736,4.1931,4.2254,4.2381,4.2476,4.2775,4.2821,4.279,4.2967,4.3504,4.4248,4.4927,4.5988,4.7069,4.7748,4.8319,4.8758,4.8916,4.9469,4.9925,4.9925,5.0452,5.068,5.0057,5.0479,5.0662,5.0039,4.9925,4.9714,4.9118,4.8872,4.8503,4.7906,4.7696,4.7292,4.6495,4.6425,4.6354,4.6214,4.6196,4.6023,4.5606,4.5503,4.5275,4.491,4.6011,4.5985,4.4735,4.5914,4.5924,4.4811,4.5328,4.5684,0.0,0.0,0.0,0.0,3.6721,0.0,0.0,0.0,3.9316,4.0569,0.0,0.0,0.0,0.0,0.0,0.0,0.0,0.0,4.403,4.4059,4.4207,4.4542,4.4615,4.4615,4.4615,4.4615,4.4615,4.4615,4.4615,4.4615,4.4615,4.4615,4.4615,4.4626,4.4737,4.4765,4.4654,4.4886,4.4923,4.4831,4.4923,4.5005,4.5005,4.4923,4.453,4.3898,4.3227,4.2709,4.2254,4.1588,4.1456,4.1588,4.1588,4.1588,4.1588,4.1588,4.1588,4.1588,4.1588,4.1736,4.1931,4.2093,4.2333,4.2602,4.2634,4.2988,4.3542,4.4263,4.5289,4.621,4.6496,4.7455,4.8417,4.8626,4.9147,4.975,5.0469,5.0697,5.075,5.075,5.0838,5.0855,5.0768,5.0838,5.0855,5.0768,5.075,5.0715,5.0645,4.9995,4.9521,4.946,4.8802,4.8082,4.7327,4.7257,4.6958,4.6249,4.6196,4.6023,4.5606,4.5205,4.4964,4.491,4.5049,4.5049,4.4882,4.5441,4.5291,4.4462,4.5064,4.5161,0.0,0.0,0.0,0.0,0.0,0.0,3.6979,0.0,3.7577,0.0,0.0,0.0,0.0,0.0,0.0,0.0,4.2834,0.0,0.0,0.0,4.3785,0.0,0.0,0.0,4.4598,4.4615,4.4615,4.4615,4.4615,4.4615,4.4615,4.4615,4.4615,4.4615,4.4654,4.4654,4.4615,4.4709,4.4737,4.4682,4.4737,4.4803,4.4886,4.4803,4.4508,4.3972,4.3634,4.2972,4.2206,4.1883,4.1621,4.1423,4.1423,4.1489,4.1588,4.1588,4.1588,4.1588,4.1588,4.1801,4.2061,4.2318,4.2508,4.2761,4.3557,4.4009,4.4444,4.5596,4.6544,4.732,4.7826,4.8608,4.9363,4.9901,5.0202,5.0496,5.082,5.0891,5.0891,5.0891,5.0891,5.0891,5.0891,5.0891,5.0891,5.0891,5.0891,5.0891,5.0891,5.0592,5.0233,4.9758,4.9398,4.8872,4.8099,4.8047,4.7924,4.7625,4.7151,4.662,4.5972,4.576,4.5641,4.5641,4.6195,4.6195,4.5658,4.6409,4.6298,4.5442,4.5717,4.5717,3.4397,0.0,0.0,0.0,0.0,0.0,0.0,0.0,0.0,0.0,0.0,0.0,0.0,0.0,0.0,0.0,0.0,4.2174,0.0,4.3019,0.0,0.0,0.0,0.0,0.0,4.4626,4.4615,4.4615,4.4615,4.4615,4.4615,4.4615,4.4615,4.4615,4.4615,4.4615,4.4615,4.4615,4.4615,4.4615,4.4615,4.4654,4.4737,4.4654,4.444,4.4133,4.3844,4.3171,4.2285,4.2093,4.1802,4.1507,4.1357,4.1489,4.172,4.1621,4.1588,4.1588,4.1588,4.1818,4.2142,4.2365,4.2669,4.3069,4.4138,4.4801,4.5494,4.6727,4.7643,4.8434,4.9181,4.9682,5.0198,5.075,5.0891,5.0891,5.0891,5.0891,5.0891,5.0891,5.0891,5.0891,5.0891,5.0891,5.0891,5.0891,5.0891,5.0891,5.0891,5.0891,5.0662,5.0083,5.0039,4.9697,4.8907,4.8837,4.8766,4.8591,4.8029,4.745,4.6846,4.6828,4.6828,4.6828,4.749,4.749,4.6828,4.749,4.749,4.6828,4.6407,4.6319,0.0,0.0,0.0,3.4397,0.0,0.0,0.0,0.0,3.5494,0.0,0.0,0.0,0.0,0.0,0.0,0.0,0.0,0.0,0.0,0.0,0.0,0.0,0.0,0.0,0.0,4.4682,4.4615,0.0,4.4615,4.4615,4.4615,4.4615,4.4615,4.4615,4.4615,4.4615,4.4615,4.4615,4.4615,4.4615,4.4615,4.4615,4.4615,4.4615,4.4598,4.4542,4.381,4.3243,4.2724,4.2078,4.1916,4.2013,4.1507,4.1621,4.2045,4.172,4.1588,4.1588,4.1588,4.1818,4.2109,4.2109,4.2816,4.367,4.3735,4.5104,4.6786,4.7543,4.8683,4.982,5.06,5.0855,5.0855,5.0873,5.0891,5.0891,5.0891,5.0891,5.0891,5.0891,5.0891,5.0891,5.0891,5.0891,5.0891,5.0891,5.0891,5.0891,5.0891,5.0891,5.0873,5.0855,5.0855,5.0522,4.9741,4.9671,4.9328,4.8548,4.8477,4.8442,4.8425,4.8425,4.8425,4.8425,4.8442,4.8442,4.8425,4.8442,4.8442,4.839,4.6898,4.66,0.0,0.0,3.4397,3.4397,0.0,0.0,0.0,0.0,0.0,0.0,0.0,0.0,0.0,0.0,0.0,0.0,0.0,0.0,0.0,0.0,0.0,0.0,0.0,0.0,0.0,0.0,0.0,0.0,4.4615,0.0,4.4615,4.4615,4.4615,4.4615,4.4615,4.4615,4.4615,4.4615,4.4615,4.4615,4.4615,4.4615,4.4615,4.4615,4.4615,4.4587,4.4338,4.3604,4.2583,4.2363,4.1852,4.1223,4.1021,4.1171,4.1454,4.1555,4.1522,4.1456,4.1818,4.2013,4.2222,4.2929,4.3476,4.4137,4.5355,4.6524,4.7666,4.8846,4.984,5.0539,5.082,5.0891,5.0891,5.0891,5.0891,5.0891,5.0891,5.0891,5.0891,5.0891,5.0891,5.0891,5.0891,5.0891,5.0891,5.0891,5.0891,5.0891,5.0891,5.0891,5.0891,5.0891,5.0891,5.0785,5.0504,5.0487,5.0136,4.9328,4.9293,4.9065,4.8512,4.8495,4.8495,4.8495,4.8495,4.8495,4.8495,4.8556,4.8556,4.8477,4.7969,4.7863,3.5291,3.506,0.0,3.4868,3.4634,0.0,3.4397,0.0,3.4397,0.0,0.0,0.0,0.0,0.0,0.0,0.0,0.0,0.0,0.0,4.0925,0.0,0.0,0.0,0.0,0.0,0.0,0.0,4.4207,4.444,4.4615,0.0,4.4615,4.4615,4.4615,4.4615,4.4615,4.4615,4.4615,4.4615,4.4615,4.4615,4.4615,4.4615,4.4615,4.4615,4.4615,4.4615,4.3798,4.252,4.252,4.2062,4.1343,4.0953,4.1122,4.1573,4.1472,4.1339,4.1303,4.1906,4.2216,4.254,4.3474,4.4155,4.4854,4.6077,4.7085,4.8074,4.9219,5.0034,5.061,5.0836,5.0891,5.0891,5.0891,5.0891,5.0891,5.0891,5.0891,5.0891,5.0891,5.0891,5.0891,5.0891,5.0891,5.0891,5.0891,5.0891,5.0891,5.0891,5.0891,5.0891,5.0891,5.0891,5.0891,5.0891,5.0891,5.0662,5.018,5.0145,4.989,4.9381,4.9363,4.9363,4.9363,4.9363,4.9363,4.9363,4.9398,4.9398,4.9363,4.9363,4.9363]}]]